[[{"header":{"parameterUnit":"m.s-1","parameterCategory":1,"la1":30.6,"la2":29.2853,"lo1":-89.7004,"lo2":-87.6739,"dy":0.0162,"dx":0.0183,"nx":112,"ny":82,"refTime":"2025-03-15T18:00:00:Z","depth":0,"parameterNumber":2,"parameterNumberName":"U-component_of_WINDS"},"data":[0.0,0.0,0.0,0.0,0.0,0.0,0.0,0.0,0.0,0.0,0.0,0.0,0.0,0.0,0.0,0.0,0.0,0.0,0.0,0.0,0.0,0.0,0.0,0.0,0.0,0.0,0.0,0.0,0.0,0.0,0.0,0.0,0.0,0.0,0.0,0.0,0.0,0.0,0.0,0.0,0.0,0.0,0.0,0.0,0.0,0.0,0.0,0.0,0.0,0.0,0.0,0.0,0.0,0.0,0.0,0.0,0.0,0.0,0.0,0.0,0.0,0.0,0.0,0.0,0.0,0.0,0.0,0.0,0.0,0.0,0.0,0.0,0.0,0.0,0.0,0.0,0.0,0.0,0.0,0.0,0.0,0.0,0.0,0.0,0.0,0.0,0.0,0.0,0.0,0.0,-5.6307,-5.6904,-5.878,-6.025,-6.0817,-5.9628,-5.7598,-5.4701,0.0,0.0,0.0,0.0,0.0,0.0,0.0,0.0,0.0,0.0,0.0,0.0,0.0,0.0,0.0,0.0,0.0,0.0,0.0,0.0,0.0,0.0,0.0,0.0,0.0,0.0,0.0,0.0,0.0,0.0,0.0,0.0,0.0,0.0,0.0,0.0,0.0,0.0,0.0,0.0,0.0,0.0,0.0,0.0,0.0,0.0,0.0,0.0,0.0,0.0,0.0,0.0,0.0,0.0,0.0,0.0,0.0,0.0,0.0,0.0,0.0,0.0,0.0,0.0,0.0,0.0,0.0,0.0,0.0,0.0,0.0,0.0,0.0,0.0,0.0,0.0,0.0,0.0,0.0,0.0,0.0,0.0,0.0,0.0,0.0,0.0,0.0,0.0,0.0,0.0,0.0,0.0,0.0,0.0,0.0,0.0,0.0,0.0,0.0,0.0,0.0,0.0,0.0,0.0,-5.4388,-5.8215,-5.9471,-5.9814,-5.9355,-5.8563,-5.7047,-5.4667,0.0,0.0,0.0,0.0,0.0,0.0,0.0,0.0,0.0,0.0,0.0,0.0,0.0,0.0,0.0,0.0,0.0,0.0,0.0,0.0,0.0,0.0,0.0,0.0,0.0,0.0,0.0,0.0,0.0,0.0,0.0,0.0,0.0,0.0,0.0,0.0,0.0,0.0,0.0,0.0,0.0,0.0,0.0,0.0,0.0,0.0,0.0,0.0,0.0,0.0,0.0,0.0,0.0,0.0,0.0,0.0,0.0,0.0,0.0,0.0,0.0,0.0,0.0,0.0,0.0,0.0,0.0,0.0,0.0,0.0,0.0,0.0,0.0,0.0,0.0,0.0,0.0,0.0,0.0,0.0,0.0,0.0,0.0,0.0,0.0,0.0,0.0,0.0,0.0,0.0,0.0,0.0,0.0,0.0,0.0,0.0,0.0,0.0,0.0,0.0,0.0,0.0,0.0,-5.367,-5.4874,-5.8599,-5.9249,-5.9317,-5.9012,-5.8702,-5.7357,-5.4667,-5.3425,0.0,0.0,0.0,0.0,0.0,0.0,0.0,0.0,0.0,0.0,0.0,0.0,0.0,0.0,0.0,0.0,0.0,0.0,0.0,0.0,0.0,0.0,0.0,0.0,0.0,0.0,0.0,0.0,0.0,0.0,0.0,0.0,0.0,0.0,0.0,0.0,0.0,0.0,0.0,0.0,0.0,0.0,0.0,0.0,0.0,0.0,0.0,0.0,0.0,0.0,0.0,0.0,0.0,0.0,0.0,0.0,0.0,0.0,0.0,0.0,0.0,0.0,0.0,0.0,0.0,0.0,0.0,0.0,0.0,0.0,0.0,0.0,0.0,0.0,0.0,0.0,0.0,0.0,0.0,0.0,0.0,0.0,0.0,0.0,0.0,0.0,0.0,0.0,0.0,0.0,0.0,0.0,0.0,0.0,0.0,0.0,0.0,0.0,0.0,0.0,0.0,0.0,-5.5253,-5.646,-5.8771,-5.9012,-5.9012,-5.9012,-5.853,-5.7081,-5.4425,-5.2429,0.0,0.0,0.0,0.0,0.0,0.0,0.0,0.0,0.0,0.0,0.0,0.0,0.0,0.0,0.0,0.0,0.0,0.0,0.0,0.0,0.0,0.0,0.0,0.0,0.0,0.0,0.0,0.0,0.0,0.0,0.0,0.0,0.0,0.0,0.0,0.0,0.0,0.0,0.0,0.0,0.0,0.0,0.0,0.0,0.0,0.0,0.0,0.0,0.0,0.0,0.0,0.0,0.0,0.0,0.0,0.0,0.0,0.0,0.0,0.0,0.0,0.0,0.0,0.0,0.0,0.0,0.0,0.0,0.0,0.0,0.0,0.0,0.0,0.0,0.0,0.0,0.0,0.0,0.0,0.0,0.0,0.0,0.0,0.0,0.0,0.0,0.0,0.0,0.0,0.0,0.0,0.0,0.0,0.0,0.0,0.0,0.0,0.0,0.0,0.0,0.0,0.0,-5.6115,-5.8771,-5.8978,-5.9012,-5.9012,-5.9012,-5.7081,-5.5184,-5.3598,-5.0671,0.0,0.0,0.0,0.0,0.0,0.0,0.0,0.0,0.0,0.0,0.0,0.0,0.0,0.0,0.0,0.0,0.0,0.0,0.0,0.0,0.0,0.0,0.0,0.0,0.0,0.0,0.0,0.0,0.0,0.0,0.0,0.0,0.0,0.0,0.0,0.0,0.0,0.0,0.0,0.0,0.0,0.0,0.0,0.0,0.0,0.0,0.0,0.0,0.0,0.0,0.0,0.0,0.0,0.0,0.0,0.0,0.0,0.0,0.0,0.0,0.0,0.0,0.0,0.0,0.0,0.0,0.0,0.0,0.0,0.0,0.0,0.0,0.0,0.0,0.0,0.0,0.0,0.0,0.0,0.0,0.0,0.0,0.0,0.0,0.0,0.0,0.0,0.0,0.0,0.0,0.0,0.0,0.0,0.0,0.0,0.0,0.0,0.0,0.0,0.0,0.0,0.0,-5.4943,-5.7426,-5.8875,-5.9012,-5.9012,-5.9012,-5.7805,-5.6012,-5.3563,0.0,0.0,0.0,0.0,0.0,0.0,0.0,0.0,0.0,0.0,0.0,0.0,0.0,0.0,0.0,0.0,0.0,0.0,0.0,0.0,0.0,0.0,0.0,0.0,0.0,0.0,0.0,0.0,0.0,0.0,0.0,0.0,0.0,0.0,0.0,0.0,0.0,0.0,0.0,0.0,0.0,0.0,0.0,0.0,0.0,0.0,0.0,0.0,0.0,0.0,0.0,0.0,0.0,0.0,0.0,0.0,0.0,0.0,0.0,0.0,0.0,0.0,0.0,0.0,0.0,0.0,0.0,0.0,0.0,0.0,0.0,0.0,0.0,0.0,0.0,0.0,0.0,0.0,0.0,0.0,0.0,0.0,0.0,0.0,0.0,0.0,0.0,0.0,0.0,0.0,0.0,0.0,0.0,0.0,0.0,0.0,0.0,0.0,0.0,0.0,0.0,0.0,-5.1981,-5.4807,-5.7288,-5.884,-5.9012,-5.9012,-5.9012,-5.7667,-5.5736,-5.3184,0.0,0.0,0.0,0.0,0.0,0.0,0.0,0.0,0.0,0.0,0.0,0.0,0.0,0.0,0.0,0.0,0.0,0.0,0.0,0.0,0.0,0.0,0.0,0.0,0.0,0.0,0.0,0.0,0.0,0.0,0.0,0.0,0.0,0.0,0.0,0.0,0.0,0.0,0.0,0.0,0.0,0.0,0.0,0.0,0.0,0.0,0.0,0.0,0.0,0.0,0.0,0.0,0.0,0.0,0.0,0.0,0.0,0.0,0.0,0.0,0.0,0.0,0.0,0.0,0.0,0.0,0.0,0.0,0.0,0.0,0.0,0.0,0.0,0.0,0.0,0.0,0.0,0.0,0.0,0.0,0.0,0.0,0.0,0.0,0.0,0.0,0.0,0.0,0.0,0.0,0.0,0.0,0.0,0.0,0.0,0.0,0.0,0.0,0.0,0.0,0.0,0.0,-5.2188,-5.6184,-5.9012,-5.9012,-5.9012,-5.9012,-5.9012,-5.6253,-5.3873,0.0,0.0,0.0,0.0,0.0,0.0,0.0,0.0,0.0,0.0,0.0,0.0,0.0,0.0,0.0,0.0,0.0,0.0,0.0,0.0,0.0,0.0,0.0,0.0,0.0,0.0,0.0,0.0,0.0,0.0,0.0,0.0,0.0,0.0,0.0,0.0,0.0,0.0,0.0,0.0,0.0,0.0,0.0,0.0,0.0,0.0,0.0,0.0,0.0,0.0,0.0,0.0,0.0,0.0,0.0,0.0,0.0,0.0,0.0,0.0,0.0,0.0,0.0,0.0,0.0,0.0,0.0,0.0,0.0,0.0,0.0,0.0,0.0,0.0,0.0,0.0,0.0,0.0,0.0,0.0,0.0,0.0,0.0,0.0,0.0,0.0,0.0,0.0,0.0,0.0,0.0,0.0,0.0,0.0,0.0,0.0,0.0,0.0,0.0,0.0,0.0,0.0,0.0,-5.2119,-5.5736,-5.8426,-5.8944,-5.9012,-5.8806,-5.8288,-5.6426,-5.4184,-5.1597,0.0,0.0,0.0,0.0,0.0,0.0,0.0,0.0,0.0,0.0,0.0,0.0,0.0,0.0,0.0,0.0,0.0,0.0,0.0,0.0,0.0,0.0,0.0,0.0,0.0,0.0,0.0,0.0,0.0,0.0,0.0,0.0,0.0,0.0,0.0,0.0,0.0,0.0,0.0,0.0,0.0,0.0,0.0,0.0,0.0,0.0,0.0,0.0,0.0,0.0,0.0,0.0,0.0,0.0,0.0,0.0,0.0,0.0,0.0,0.0,0.0,0.0,0.0,0.0,0.0,0.0,0.0,0.0,0.0,0.0,0.0,0.0,0.0,0.0,0.0,0.0,0.0,0.0,0.0,0.0,0.0,0.0,0.0,0.0,0.0,0.0,0.0,0.0,0.0,0.0,0.0,0.0,0.0,0.0,0.0,0.0,0.0,0.0,0.0,0.0,0.0,0.0,-5.2084,-5.5563,-5.8185,-5.8944,-5.8737,-5.8392,-5.7943,-5.6219,-5.4011,-5.1287,0.0,0.0,0.0,0.0,0.0,0.0,0.0,0.0,0.0,0.0,0.0,0.0,0.0,0.0,0.0,0.0,0.0,0.0,0.0,0.0,0.0,0.0,0.0,0.0,0.0,0.0,0.0,0.0,0.0,0.0,0.0,0.0,0.0,0.0,0.0,0.0,0.0,0.0,0.0,0.0,0.0,0.0,0.0,0.0,0.0,0.0,0.0,0.0,0.0,0.0,0.0,0.0,0.0,0.0,0.0,0.0,0.0,0.0,0.0,0.0,0.0,0.0,0.0,0.0,0.0,0.0,0.0,0.0,0.0,0.0,0.0,0.0,0.0,0.0,0.0,0.0,0.0,0.0,0.0,0.0,0.0,0.0,0.0,0.0,0.0,0.0,0.0,0.0,0.0,0.0,0.0,0.0,0.0,0.0,0.0,0.0,0.0,0.0,0.0,0.0,0.0,0.0,-5.2084,-5.5495,-5.8081,-5.884,-5.8323,-5.784,-5.7702,-5.5667,-5.3425,-5.1149,0.0,0.0,0.0,0.0,0.0,0.0,0.0,0.0,0.0,0.0,0.0,0.0,0.0,0.0,0.0,0.0,0.0,0.0,0.0,0.0,0.0,0.0,0.0,0.0,0.0,0.0,0.0,0.0,0.0,0.0,0.0,0.0,0.0,0.0,0.0,0.0,0.0,0.0,0.0,0.0,0.0,0.0,0.0,0.0,0.0,0.0,0.0,0.0,0.0,0.0,0.0,0.0,0.0,0.0,0.0,0.0,0.0,0.0,0.0,0.0,-5.4832,-5.4162,0.0,0.0,0.0,0.0,0.0,0.0,0.0,0.0,0.0,0.0,0.0,0.0,0.0,0.0,0.0,0.0,0.0,0.0,0.0,0.0,0.0,0.0,0.0,0.0,0.0,0.0,0.0,0.0,0.0,0.0,0.0,0.0,0.0,0.0,0.0,0.0,0.0,0.0,0.0,0.0,-5.2015,-5.5046,-5.7322,-5.8081,-5.8012,-5.7426,-5.6219,-5.4598,-5.2666,-5.039,-4.75,0.0,0.0,0.0,0.0,0.0,0.0,0.0,0.0,0.0,0.0,0.0,0.0,0.0,0.0,0.0,0.0,0.0,0.0,0.0,0.0,0.0,0.0,0.0,0.0,0.0,0.0,0.0,0.0,0.0,0.0,0.0,0.0,0.0,0.0,0.0,0.0,0.0,0.0,0.0,0.0,0.0,0.0,0.0,0.0,0.0,0.0,0.0,0.0,0.0,0.0,0.0,0.0,0.0,0.0,0.0,0.0,0.0,0.0,0.0,-5.5545,-5.4944,0.0,0.0,0.0,0.0,0.0,0.0,0.0,0.0,0.0,0.0,0.0,0.0,0.0,0.0,0.0,0.0,0.0,0.0,0.0,0.0,0.0,0.0,0.0,0.0,0.0,0.0,0.0,0.0,0.0,0.0,0.0,0.0,0.0,0.0,0.0,0.0,0.0,0.0,0.0,0.0,-5.1528,-5.4356,-5.6529,-5.7288,-5.7047,-5.6495,-5.5669,-5.3908,-5.2183,-5.0631,-4.7638,0.0,0.0,0.0,0.0,0.0,0.0,0.0,0.0,0.0,0.0,0.0,0.0,0.0,0.0,0.0,0.0,0.0,0.0,0.0,0.0,0.0,0.0,0.0,0.0,0.0,0.0,0.0,0.0,0.0,0.0,0.0,0.0,0.0,0.0,0.0,0.0,0.0,0.0,0.0,0.0,0.0,0.0,0.0,0.0,0.0,0.0,0.0,0.0,0.0,0.0,0.0,0.0,0.0,-5.6675,-5.707,-5.826,-5.7763,-5.7261,-5.6743,-5.6687,-5.6194,-5.5354,-5.456,0.0,0.0,0.0,0.0,0.0,0.0,0.0,0.0,0.0,0.0,0.0,0.0,0.0,0.0,0.0,0.0,0.0,0.0,0.0,0.0,0.0,0.0,-5.1272,-5.0775,-5.115,-5.071,-4.7394,0.0,0.0,0.0,0.0,0.0,0.0,0.0,0.0,0.0,0.0,0.0,-5.1011,-5.3736,-5.5874,-5.6529,-5.5908,-5.5391,-5.5253,-5.3222,-5.1701,-5.0976,-4.8217,-4.6224,0.0,0.0,0.0,0.0,0.0,0.0,0.0,0.0,0.0,0.0,0.0,0.0,0.0,0.0,0.0,0.0,0.0,0.0,0.0,0.0,0.0,0.0,0.0,0.0,0.0,0.0,0.0,0.0,0.0,0.0,0.0,0.0,-5.7954,-5.8135,0.0,0.0,0.0,0.0,0.0,0.0,0.0,0.0,0.0,0.0,0.0,0.0,0.0,-5.7042,-5.7519,-5.8217,-5.8671,-5.8891,-5.9501,-5.9627,-5.9382,-5.9305,-5.8984,-5.8545,-5.8545,0.0,-5.4632,-5.452,0.0,0.0,0.0,0.0,0.0,0.0,0.0,0.0,0.0,0.0,0.0,0.0,0.0,0.0,0.0,0.0,0.0,0.0,0.0,0.0,0.0,0.0,-5.4907,-5.3382,-5.3145,-5.2706,-5.0879,-4.912,-4.7631,-4.6684,-4.6287,-4.5818,0.0,0.0,0.0,0.0,0.0,0.0,-5.1011,-5.3736,-5.5667,-5.577,-5.5115,-5.4391,-5.3736,-5.2183,-5.0942,-5.0183,-4.7907,-4.6224,-4.5432,-4.3191,0.0,0.0,0.0,0.0,0.0,0.0,0.0,0.0,0.0,0.0,0.0,0.0,0.0,0.0,0.0,0.0,0.0,0.0,0.0,0.0,0.0,0.0,0.0,0.0,0.0,0.0,0.0,0.0,0.0,-5.7991,-5.7963,-5.7627,-5.7806,-5.7569,0.0,0.0,0.0,0.0,0.0,0.0,0.0,0.0,0.0,-5.7997,-5.8107,-5.8327,-5.8694,-5.9465,-6.0126,-6.0566,-6.0896,-6.1178,-6.139,-6.1042,-6.0791,-6.0568,-6.0214,-5.91,-5.7495,-5.6277,-5.4874,-5.3425,0.0,0.0,0.0,0.0,-5.2114,-5.2459,-5.2977,-5.3149,-5.308,-5.2563,0.0,0.0,0.0,0.0,0.0,0.0,0.0,-5.1687,-5.2429,-5.4049,-5.5383,-5.5009,-5.4804,-5.4465,-5.3348,-5.1657,-4.9796,-4.78,-4.7894,-4.7708,-4.5896,-4.5665,0.0,0.0,0.0,-5.0287,-5.1011,-5.3391,-5.4839,-5.4425,-5.408,-5.3563,-5.2804,-5.1735,-5.0976,-5.0666,-4.8493,-4.7052,-4.6707,-4.4492,-4.2723,0.0,0.0,0.0,0.0,0.0,0.0,0.0,0.0,0.0,0.0,0.0,0.0,0.0,0.0,0.0,0.0,0.0,0.0,0.0,0.0,0.0,0.0,0.0,0.0,0.0,0.0,0.0,0.0,-5.8063,-5.7935,-5.7221,-5.7603,-5.7431,0.0,0.0,0.0,0.0,0.0,0.0,-5.8574,-5.8988,-5.9134,-5.8914,-5.9501,-5.9918,-6.0102,-6.0713,-6.13,-6.1924,-6.1924,-6.2218,-6.278,-6.2334,-6.2032,-6.1869,-6.135,-6.0796,-6.0086,-5.8122,-5.645,-5.5012,-5.4253,-5.3494,-5.2873,-5.346,-5.3804,-5.4115,-5.5219,-5.5598,-5.5462,-5.477,-5.377,-5.2394,-5.0292,0.0,0.0,0.0,0.0,-5.2398,-5.4306,-5.5207,-5.5758,-5.62,-5.5992,-5.5513,-5.4769,-5.3551,-5.186,-4.9255,-4.9354,-4.9206,-4.7056,-4.6561,0.0,-4.7093,-4.8941,-5.0562,-5.1287,-5.3046,-5.4011,-5.346,-5.3046,-5.2563,-5.1946,-5.1252,-5.0838,-5.0838,-4.9016,-4.7879,-4.7734,-4.5872,-4.4147,-4.262,0.0,0.0,0.0,0.0,0.0,0.0,0.0,0.0,0.0,0.0,0.0,0.0,0.0,0.0,0.0,0.0,0.0,0.0,0.0,0.0,0.0,0.0,0.0,0.0,0.0,0.0,0.0,0.0,0.0,-5.7362,-5.8152,0.0,0.0,0.0,0.0,-5.9454,-5.9249,-5.9467,-6.0236,-5.9588,-5.9905,-6.1374,-6.1447,-6.1851,-6.2597,-6.2633,-6.267,-6.2768,-6.2768,-6.2768,-6.278,-6.2755,-6.2438,-6.1897,-6.1869,-6.1472,-6.0754,-5.9373,-5.7977,-5.6598,-5.5805,-5.5046,-5.4391,-5.4425,-5.4908,-5.5497,-5.5566,-5.5598,-5.5839,-5.7219,-5.6184,-5.4115,-5.2498,-5.1563,0.0,0.0,-5.3184,-5.4638,-5.6023,-5.6782,-5.7157,-5.705,-5.6365,-5.5513,-5.4769,-5.3991,-5.2976,-5.1352,-5.006,-4.9056,-4.8382,0.0,-4.7711,-4.8568,-5.0016,-5.1291,-5.205,-5.2908,-5.3425,-5.3391,-5.2114,-5.1218,-5.1183,-5.0493,-5.008,-5.008,-4.9252,-4.843,-4.7707,-4.6941,-4.5768,-4.4207,-4.2723,0.0,0.0,0.0,0.0,0.0,0.0,0.0,0.0,0.0,0.0,0.0,0.0,0.0,0.0,0.0,0.0,0.0,0.0,0.0,0.0,0.0,0.0,0.0,0.0,0.0,0.0,0.0,0.0,-5.8358,-5.8668,0.0,-5.8499,-5.8426,-5.8743,-5.9526,-6.0005,-6.0514,-6.1129,-6.141,-6.1777,-6.2365,-6.2365,-6.2511,-6.278,-6.278,-6.278,-6.278,-6.278,-6.278,-6.278,-6.278,-6.2679,-6.2464,-6.2464,-6.2112,-6.1492,-6.1042,-5.9769,-5.8078,-5.735,-5.6633,-5.6046,-5.6529,-5.6874,-5.715,-5.7633,-5.7805,-5.7667,-5.6736,-5.5563,-5.4218,-5.2701,-5.239,-5.2632,-5.2908,-5.4046,-5.5324,-5.5811,-5.6367,-5.6645,-5.6132,-5.5553,-5.4907,-5.416,-5.3754,-5.3348,-5.2807,-5.1583,-5.0345,-4.9304,-4.8597,-4.8358,-4.8712,-4.9735,-5.0666,-5.1425,-5.2183,-5.2459,-5.1977,-5.1425,-5.0907,-5.0424,-4.97,-4.9252,-4.9252,-4.8079,-4.7286,-4.701,-4.6224,-4.5354,-4.4311,-4.3276,-4.1757,0.0,0.0,0.0,0.0,0.0,0.0,0.0,0.0,0.0,0.0,0.0,0.0,0.0,0.0,0.0,0.0,0.0,0.0,0.0,0.0,0.0,0.0,0.0,0.0,0.0,-5.9069,-5.9453,-5.8874,-5.9598,-5.9964,-5.9616,-5.9537,-5.9838,-6.0612,-6.1163,-6.1646,-6.1973,-6.2511,-6.278,-6.278,-6.278,-6.278,-6.278,-6.278,-6.278,-6.278,-6.278,-6.278,-6.278,-6.278,-6.278,-6.278,-6.278,-6.242,-6.1766,-6.1579,-6.0411,-5.8769,-5.836,-5.7798,-5.7219,-5.746,-5.7702,-5.7978,-5.8461,-5.8495,-5.7978,-5.6184,-5.5288,-5.4632,-5.336,-5.3356,-5.3839,-5.408,-5.4874,-5.5667,-5.5943,-5.626,-5.6333,-5.5578,-5.5141,-5.4702,-5.3987,-5.3651,-5.3483,-5.3246,-5.2292,-5.1199,-5.0305,-4.9466,-4.9027,-4.9447,-4.9958,-5.0607,-5.136,-5.1671,-5.1636,-5.1149,-5.0907,-5.0424,-4.9666,-4.9085,-4.8672,-4.843,-4.75,-4.6872,-4.6631,-4.6086,-4.5458,-4.4665,-4.369,-4.2171,-4.0077,0.0,0.0,0.0,0.0,0.0,0.0,0.0,0.0,0.0,0.0,0.0,0.0,0.0,0.0,0.0,0.0,0.0,0.0,0.0,0.0,0.0,0.0,0.0,-5.8037,-5.9245,-5.9663,-5.9012,-6.0942,-6.1979,-6.1069,-6.2248,-6.3039,-6.2828,-6.278,-6.278,-6.278,-6.278,-6.278,-6.278,-6.278,-6.278,-6.278,-6.278,-6.2768,-6.2768,-6.2743,-6.2732,-6.2732,-6.2732,-6.2732,-6.2732,-6.2732,-6.2291,-6.1533,-6.0913,-5.9843,-5.8609,-5.8774,-5.8465,-5.7771,-5.7047,-5.7253,-5.7874,-5.7874,-5.7391,-5.6667,-5.5874,-5.5598,-5.546,-5.4736,-5.4494,-5.4667,-5.5391,-5.5598,-5.577,-5.6529,-5.6604,-5.6299,-5.5544,-5.5241,-5.4903,-5.4151,-5.3849,-5.3479,-5.2765,-5.2017,-5.1505,-5.1471,-5.037,-4.9834,-5.0738,-5.0871,0.0,-5.2015,-5.1528,-5.108,-5.108,-5.0424,-4.9666,-4.8844,-4.8775,-4.843,-4.7707,-4.7638,-4.7293,-4.6596,-4.6562,-4.619,-4.5432,-4.394,-4.2447,-4.0963,0.0,0.0,0.0,0.0,0.0,0.0,0.0,0.0,0.0,0.0,0.0,0.0,0.0,0.0,0.0,0.0,0.0,0.0,0.0,0.0,0.0,-5.7015,-5.8146,-5.9068,-6.0069,-6.0902,-6.1424,-6.2474,-6.3037,-6.2607,-6.2897,-6.3039,-6.2828,-6.278,-6.278,-6.278,-6.278,-6.278,-6.278,-6.278,-6.278,-6.278,-6.2218,-6.1924,-6.1924,-6.1337,-6.108,-6.108,-6.108,-6.108,-6.108,-6.108,-6.0933,-6.0701,-6.0139,-5.9403,-5.8574,-5.8174,-5.7663,-5.7081,-5.6874,-5.6943,-5.7116,-5.7116,-5.6978,-5.6667,-5.5874,-5.5598,-5.546,-5.4736,-5.4494,-5.4563,-5.477,-5.5219,-5.5529,-5.5219,-5.5497,-5.5639,-5.4916,-5.4581,-5.4383,-5.4177,-5.4013,-5.3676,-5.2893,-5.2143,-5.1461,-5.0915,-5.018,-4.9777,-5.0199,-5.0263,-5.0331,-5.0568,-5.0424,-5.0321,-5.0321,-5.0114,-4.9666,-4.8844,-4.8293,-4.77,-4.6975,-4.6328,-4.5949,-4.5742,-4.5707,-4.5638,-4.5397,-4.394,-4.3,0.0,0.0,0.0,0.0,0.0,0.0,0.0,0.0,0.0,0.0,0.0,0.0,0.0,0.0,0.0,0.0,0.0,0.0,0.0,0.0,0.0,0.0,-5.7733,-5.9004,-6.048,-6.1208,-6.1944,-6.2822,-6.3511,-6.3815,-6.3645,-6.3554,-6.3314,-6.2853,-6.278,-6.278,-6.278,-6.278,-6.278,-6.278,-6.278,-6.2658,-6.2291,-6.1814,-6.141,-6.108,-6.0639,-6.0419,-6.0419,-6.0419,-6.0419,-6.0419,-6.0419,-6.0236,-5.9858,-5.9267,-5.8502,-5.7611,0.0,0.0,0.0,0.0,-5.6115,-5.5874,-5.6184,-5.6115,-5.577,-5.5288,-5.515,-5.5081,-5.4632,-5.4494,-5.4494,-5.4494,-5.4805,-5.5046,-5.4632,-5.4839,-5.5046,-5.4598,-5.4399,-5.4303,-5.4239,-5.3903,-5.3359,-5.2511,-5.1728,0.0,-5.0317,-4.9898,-4.9649,-4.986,-4.986,-4.9889,-5.0011,-5.0011,-5.0011,-5.0011,-4.97,-4.9154,-4.8396,-4.7638,0.0,0.0,0.0,-4.5397,-4.5397,-4.5397,0.0,0.0,0.0,0.0,0.0,0.0,0.0,0.0,-4.2423,-4.262,0.0,0.0,0.0,0.0,0.0,0.0,0.0,0.0,0.0,0.0,0.0,0.0,0.0,0.0,0.0,0.0,-5.8588,-5.9727,-6.197,-6.2567,-6.296,-6.355,-6.417,-6.4434,-6.4202,-6.4118,-6.3723,-6.2879,-6.278,-6.278,-6.278,-6.278,0.0,0.0,0.0,-6.2401,-6.1594,-6.152,-6.1043,-6.0272,-6.0162,-6.0126,-6.0126,-6.0126,-6.0126,-6.0126,-6.0126,-5.9722,-5.9014,-5.8344,-5.7289,-5.6126,-5.6288,-5.5997,-5.5495,-5.5495,-5.5081,-5.4598,-5.5253,0.0,0.0,-5.4494,-5.4494,-5.4494,-5.4494,-5.4494,-5.4494,-5.4494,-5.4494,-5.4494,-5.4494,-5.4494,-5.4494,-5.4494,-5.446,-5.4328,-5.4134,-5.3516,-5.2729,-5.1788,-5.1107,-5.0484,-4.9845,-4.9619,-4.956,-4.9708,-4.9737,-4.9801,-4.9982,-5.0011,-4.9976,-4.9873,-4.9252,0.0,-4.7638,-4.6975,-4.6259,-4.5466,-4.5397,-4.5397,-4.5397,-4.5397,-4.5397,-4.5397,-4.5397,-4.5397,-4.5397,-4.5397,-4.5397,-4.5363,-4.332,-4.3172,0.0,0.0,0.0,0.0,0.0,0.0,0.0,0.0,0.0,0.0,0.0,0.0,0.0,0.0,0.0,-5.8103,-6.0064,-6.1838,-6.2858,-6.3694,-6.4252,-6.439,-6.4872,-6.491,-6.4259,-6.4118,-6.3723,-6.2879,-6.278,-6.278,-6.278,-6.278,-6.278,-6.278,-6.278,-6.2401,-6.1594,-6.097,-6.0236,-5.9404,-5.8767,0.0,-5.8474,-5.8474,-5.8474,-5.8474,-5.8474,-5.8364,-5.8147,-5.7103,-5.5971,-5.4869,-5.4884,-5.4828,-5.4736,-5.4736,-5.4632,-5.4529,-5.4667,-5.4632,-5.4494,-5.4494,-5.4494,-5.4494,-5.4494,-5.4494,0.0,-5.4494,-5.4494,-5.4494,-5.4494,-5.4494,-5.4494,-5.4494,-5.4046,-5.3598,-5.3535,-5.2915,-5.2157,-5.1369,-5.1098,-5.0784,-5.0056,-4.9801,-4.9742,-4.9889,-4.9918,-4.9982,-5.0011,-5.0011,-4.9769,-4.9085,-4.8879,-4.8258,-4.6941,-4.67,-4.6259,-4.5466,-4.5397,-4.5397,-4.5397,-4.5397,-4.5397,-4.5397,-4.5397,-4.5397,-4.5397,-4.5397,-4.5397,-4.5397,-4.4949,-4.5251,0.0,0.0,0.0,0.0,0.0,0.0,0.0,0.0,0.0,0.0,0.0,-5.6494,-5.7239,0.0,-5.9023,-5.9916,-6.1231,-6.2601,-6.3729,-6.4591,-6.5237,-6.5593,-6.5143,-6.4771,-6.4749,-6.3946,-6.3282,-6.2817,-6.278,-6.278,-6.278,-6.278,-6.278,-6.278,-6.2401,-6.1814,-6.1006,-6.0199,-5.9391,-5.8584,-5.818,-5.7997,-5.7997,-5.7997,-5.7997,-5.796,-5.7556,-5.7409,-5.7304,-5.5713,-5.4409,-5.3356,-5.3356,-5.3839,-5.4494,-5.4494,-5.4494,-5.4494,-5.4494,-5.4253,-5.4011,-5.4391,-5.4253,-5.4011,-5.4391,-5.4494,-5.4494,-5.4494,-5.4494,-5.4425,-5.4046,-5.3942,-5.3873,-5.346,-5.308,-5.2774,-5.2712,-5.2157,-5.1533,-5.103,-5.0745,-5.0424,-5.008,-4.9918,-4.9889,-4.9982,-5.0011,-5.0011,-5.0011,-4.9666,-4.9252,-4.8844,-4.812,-4.7396,-4.6665,-4.6224,-4.5811,-4.5432,-4.5397,-4.5397,-4.5397,-4.5397,-4.5397,-4.5397,-4.5397,-4.5397,-4.5397,-4.5397,-4.5604,-4.5983,-4.5983,-4.6224,0.0,0.0,0.0,0.0,0.0,0.0,0.0,0.0,-5.6528,-5.7103,-5.734,-5.7814,-5.8998,-5.9522,-6.0217,-6.1664,-6.2196,-6.295,-6.4564,-6.527,-6.5868,-6.6577,-6.5327,-6.4621,-6.5249,-6.3796,-6.278,-6.278,-6.278,-6.278,-6.278,-6.278,-6.2732,-6.2585,-6.1924,-6.1153,-6.0199,-5.9515,-5.8804,-5.7997,-5.7997,-5.7997,-5.7997,-5.785,-5.7776,-5.774,-5.6804,-5.6324,-5.6111,-5.443,-5.3134,-5.2188,-5.2188,-5.2946,-5.4046,-5.4046,-5.4046,-5.4046,-5.4046,-5.3667,-5.3253,-5.3873,-5.3667,-5.3287,-5.3873,-5.4046,-5.4046,-5.4046,-5.4046,-5.3942,-5.3322,-5.3184,-5.3011,-5.2326,-5.2084,-5.1951,-5.1859,-5.1305,-5.0784,-5.066,-5.0273,-4.9947,-5.0011,-4.9982,-4.9947,-5.0011,-4.9873,-4.9769,-4.9769,-4.9079,-4.8534,-4.8396,-4.7293,-4.6562,-4.6389,-4.5776,-4.5397,-4.5397,-4.5397,-4.5397,-4.5397,-4.5397,-4.5397,-4.5397,-4.5397,-4.5397,-4.5397,-4.5397,-4.5811,-4.6596,-4.6769,-4.6906,-5.6412,-5.5936,-5.5916,-5.6528,-5.6697,-5.6867,0.0,0.0,-5.866,-5.8761,-5.9268,-5.9776,-5.9945,-6.0744,-6.1476,-6.1835,-6.2641,-6.3719,-6.5267,-6.5558,-6.5843,-6.6445,-6.571,-6.5223,-6.5275,-6.3796,-6.278,-6.278,-6.278,-6.278,-6.278,-6.278,-6.2475,-6.1741,-6.163,-6.086,-5.9331,-5.9221,-5.8804,-5.7997,-5.7997,-5.7997,-5.796,-5.7262,-5.6932,-5.6873,-5.558,-5.4724,-5.4158,-5.3474,-5.2799,-5.2188,-5.2188,-5.2321,-5.2459,-5.2459,-5.2459,-5.2459,-5.2459,-5.2394,-5.2356,-5.2429,-5.2394,-5.2326,-5.2429,-5.2459,-5.2459,-5.2459,-5.2459,-5.2429,-5.236,-5.2326,-5.2291,-5.2222,-5.1671,-5.1222,-5.1222,-5.0513,-4.9904,-5.0056,-4.9928,-4.9801,-4.9982,-4.986,-4.9767,-4.9982,-4.9361,-4.8913,-4.8913,-4.8258,-4.7569,-4.6941,-4.67,-4.6293,-4.5604,-4.5466,-4.5397,-4.5397,-4.5397,-4.5397,-4.5397,-4.5397,-4.5397,-4.5397,-4.5397,-4.5397,-4.5397,-4.5397,-4.5811,-4.6631,-4.7258,-4.7913,-5.7834,-5.7325,0.0,0.0,-5.8084,-5.8287,-5.8998,-5.9438,-5.9641,-5.9641,-6.025,-6.0791,-6.0791,-6.1588,-6.2327,0.0,-6.2946,-6.3677,-6.4838,-6.4977,-6.5146,-6.5775,-6.5128,-6.4604,-6.4604,-6.3503,-6.278,-6.278,-6.278,-6.278,-6.278,-6.278,-6.2438,-6.163,-6.1153,-6.0346,-5.9184,-5.8767,-5.8107,-5.7299,-5.7299,-5.7042,-5.6565,-5.6235,-5.5697,-5.4911,-5.4337,-5.3347,-5.2068,-5.186,-5.1422,-5.0942,-5.0942,-5.0942,-5.1045,-5.1877,-5.2188,-5.2188,-5.2188,-5.1912,-5.1602,-5.205,-5.1912,-5.1666,-5.205,-5.2188,-5.2188,-5.2188,-5.2188,-5.2084,-5.1671,-5.1473,-5.1339,-5.1016,-5.0518,-5.0189,-5.0248,-4.9919,-4.959,-4.9683,-4.9654,-4.959,-4.9713,-4.9335,-4.9085,-4.9177,-4.8902,-4.8552,-4.8224,-4.7527,-4.6741,-4.5983,-4.588,-4.5776,-4.5432,-4.5397,-4.5397,-4.5397,-4.5397,-4.5397,-4.5397,-4.5397,-4.5397,-4.5397,-4.5397,-4.5397,-4.5397,-4.5397,-4.6017,-4.7251,-4.7562,-4.8355,-5.856,0.0,0.0,-5.8896,-5.9167,-5.9438,-5.9979,-6.0283,-6.0419,-6.0419,-6.1061,-6.1603,-6.1603,-6.2159,-6.2693,-6.2962,-6.3114,-6.3496,-6.4182,-6.4356,-6.4486,-6.4744,-6.4373,-6.4016,-6.3759,-6.3172,-6.278,-6.278,-6.278,-6.278,-6.278,-6.2585,-6.2108,-6.13,-6.0493,-5.9685,-5.8877,-5.807,-5.7373,-5.6822,-5.6602,-5.6161,-5.5574,-5.5354,-5.4523,-5.3241,-5.3099,-5.2212,-5.0776,-5.0647,-5.0341,-5.0011,-5.0011,-5.0011,-5.0149,-5.1218,-5.1567,-5.1567,-5.1567,-5.1252,-5.0907,-5.1425,-5.1252,-5.0907,-5.1459,-5.1567,-5.1567,-5.1567,-5.1537,-5.1369,-5.0853,-5.0626,-5.0399,-4.9968,-4.9683,-4.95,-4.9619,-4.953,-4.9411,-4.9471,-4.9441,-4.9372,-4.9231,-4.8778,-4.8351,-4.8026,-4.7929,-4.7786,-4.7465,-4.6769,-4.6052,-4.5466,-4.5397,-4.5397,-4.5397,-4.5397,-4.5397,-4.5397,-4.5397,-4.5397,-4.5397,-4.5397,-4.5397,-4.5397,-4.5397,-4.5397,-4.5397,-4.5397,-4.6086,-4.7396,-4.7603,-4.8424,0.0,0.0,-5.8998,-5.8998,-5.9539,-6.008,-6.008,-6.0689,-6.1264,-6.1264,-6.1839,-6.2347,-6.2347,-6.2381,-6.2537,-6.2962,-6.3,-6.3142,-6.3482,-6.4037,-6.4092,-6.3253,-6.3742,-6.3759,-6.289,-6.2842,-6.278,-6.278,-6.278,-6.278,-6.278,-6.2071,-6.1263,-6.0456,-5.9685,-5.8877,-5.8033,-5.7262,-5.6822,-5.6785,-5.6014,-5.5611,-5.5596,-5.4803,-5.3697,-5.2397,-5.1884,-5.1331,-5.0749,-5.0235,-5.0011,-5.0011,-5.0011,-5.0011,-5.0011,-5.0045,-5.008,-5.008,-5.008,-5.0045,-5.0045,-5.008,-5.0045,-5.0045,-5.008,-5.008,-5.008,-5.008,-4.9928,-4.9777,-4.9742,-4.9624,-4.9535,-4.9535,-4.95,-4.95,-4.95,-4.935,-4.926,-4.9441,-4.935,-4.9022,-4.8519,-4.826,-4.7715,-4.6556,-4.624,-4.6274,-4.6576,-4.5914,-4.5432,-4.5397,-4.5397,-4.5397,-4.5397,-4.5397,-4.5397,-4.5397,-4.5397,-4.5397,-4.5397,-4.5397,-4.5397,-4.5397,-4.5397,-4.5397,-4.5397,-4.5397,-4.5811,-4.6665,-4.7389,-4.8086,0.0,0.0,-5.9268,-6.0283,-6.0723,-6.1028,-6.1501,-6.1839,-6.2009,-6.2009,-6.1839,-6.167,-6.167,-6.1231,-6.1143,-6.1953,-6.2173,-6.2367,-6.257,-6.2853,-6.2868,-6.2475,-6.2566,-6.2652,-6.2792,-6.278,-6.278,-6.278,-6.278,-6.278,-6.278,-6.2034,-6.1227,-6.0419,-5.9625,-5.8804,-5.7997,-5.7189,-5.6528,-5.5978,-5.4656,-5.3995,-5.3974,-5.3338,-5.2638,-5.1824,-5.1296,-5.0749,-5.0263,-5.0063,-5.0011,-5.0011,-5.0011,-5.0011,-5.0011,-5.0011,-5.0011,-5.0011,-5.0011,-5.0011,-5.0011,-5.0011,-5.0011,-5.0011,-5.0011,-4.9889,-4.9801,-4.9801,-4.9679,-4.956,-4.956,-4.9441,-4.932,-4.9471,-4.932,-4.9168,-4.929,-4.9168,-4.8941,-4.8527,-4.8365,-4.8128,-4.7441,-4.7043,-4.6532,-4.5807,-4.5669,-4.5669,-4.5811,-4.5569,-4.5397,-4.5397,-4.5397,-4.5397,-4.5397,-4.5397,-4.5397,-4.5397,-4.5397,-4.5397,-4.5397,-4.5397,-4.5397,-4.5397,-4.5397,-4.5397,-4.5397,-4.5397,-4.5811,-4.6631,-4.6872,-4.7603,-5.8522,-5.9254,-6.008,-6.1061,-6.1501,-6.1806,-6.2279,-6.2381,-6.2313,-6.2042,-6.1637,-6.1231,-6.0926,-6.0452,-6.0427,-6.1469,-6.176,-6.1879,-6.1789,-6.2264,-6.2383,-6.1747,-6.1993,-6.2386,0.0,0.0,0.0,-6.278,-6.278,-6.267,-6.2401,-6.1594,-6.0786,-6.0015,-5.9208,-5.84,-5.7593,-5.6785,-5.5831,-5.473,-5.3702,-5.3203,-5.3203,-5.2649,-5.2126,-5.1551,-5.1044,-5.0509,-5.0011,-5.0011,-5.0011,-4.9976,-4.97,-4.9597,-4.9562,-4.9286,-4.9183,-4.9252,-4.9804,-5.0011,-5.0011,-5.0011,-5.0011,-5.0011,-5.0011,-4.986,-4.9708,-4.9708,-4.956,-4.9381,-4.9381,-4.926,-4.9168,-4.929,-4.9172,-4.9015,-4.9107,-4.8843,-4.8477,-4.7973,-4.7699,-4.7293,-4.6573,-4.6113,-4.5679,-4.5386,-4.5371,-4.5397,-4.5397,-4.5397,-4.5397,-4.5397,-4.5397,-4.5397,-4.5397,-4.5397,-4.5397,-4.5397,-4.5397,-4.5397,-4.5397,-4.5397,-4.5397,-4.5397,-4.5397,-4.5397,-4.5397,-4.5397,-4.5673,-4.6155,-4.6493,-4.7361,-5.8724,-6.003,-6.1298,-6.1366,-6.1873,-6.2381,-6.2381,-6.2347,-6.2144,-6.1434,-6.1231,-6.096,0.0,0.0,-6.0325,-6.1363,-6.1726,-6.1639,-6.1067,-6.2217,-6.2541,0.0,0.0,0.0,0.0,0.0,0.0,-6.278,-6.278,-6.2438,-6.163,-6.086,-6.0052,-5.9221,-5.84,-5.7556,-5.6822,-5.5941,-5.473,-5.3203,-5.3203,-5.3203,-5.3124,-5.259,-5.2042,-5.149,-5.092,-5.0411,-4.9873,-4.9873,-4.9873,-4.9804,-4.9016,-4.8741,-4.8637,-4.7948,-4.7672,-4.7913,-4.939,-4.9907,-4.9942,-4.9942,-4.9976,-5.0011,-5.0011,-4.986,-4.9679,-4.9679,-4.9441,-4.9199,-4.9199,-4.9077,-4.9018,-4.9018,-4.9018,-4.8984,-4.8951,-4.8409,-4.7872,-4.7804,-4.7192,-4.6506,-4.5937,-4.5501,-4.5203,-4.5203,-4.5318,-4.5397,-4.5397,-4.5397,-4.5397,-4.5397,-4.5397,-4.5397,-4.5397,-4.5397,-4.5397,-4.5397,-4.5397,-4.5397,-4.5397,-4.5397,-4.5397,-4.5397,-4.5397,-4.5397,-4.5397,-4.5397,-4.5397,-4.5432,-4.6209,-4.7229,-5.9812,-6.0689,-6.1434,-6.1975,-6.2245,-6.2381,-6.2381,-6.1975,-6.1535,-6.1332,-6.0385,-5.9539,0.0,0.0,0.0,-6.0258,-6.0833,0.0,-6.0782,-6.1361,0.0,-6.0974,0.0,-6.1778,-6.2705,-6.278,0.0,-6.278,-6.278,-6.2438,-6.163,-6.086,-6.0052,-5.9221,-5.785,-5.7005,-5.6822,-5.5427,-5.4216,-5.3203,-5.3203,-5.2995,-5.2604,-5.2078,-5.118,-5.0074,-4.9555,-4.8944,-4.8321,-4.8321,-4.8321,-4.8258,-4.8051,-4.7982,-4.7948,-4.7775,-4.7672,-4.7741,-4.8148,-4.8665,-4.9085,-4.9085,-4.9499,-5.0011,-5.0011,-4.9772,-4.953,-4.953,-4.929,-4.9046,-4.9046,-4.9049,-4.9018,-4.9018,-4.9018,-4.8849,-4.8308,-4.8007,-4.7567,-4.6481,-4.5755,-4.5286,-4.522,-4.5206,-4.523,-4.5344,-4.5371,-4.5397,-4.5397,-4.5397,-4.5397,-4.5397,-4.5397,-4.5397,-4.5397,-4.5397,-4.5397,-4.5397,-4.5397,-4.5397,-4.5397,-4.5397,-4.5397,-4.5397,-4.5397,-4.5397,-4.5397,-4.5397,-4.5397,-4.5397,-4.6012,-4.6586,-6.037,-6.1189,-6.1873,-6.2279,-6.2144,-6.1907,-6.1907,-6.1332,-6.0689,-6.0385,-5.9607,0.0,0.0,0.0,0.0,0.0,0.0,0.0,-6.0196,-6.1051,-6.1465,0.0,-6.1407,0.0,-6.273,-6.278,-6.278,-6.278,-6.278,-6.2291,-6.1153,-6.0639,-5.9869,-5.8731,-5.7446,-5.6455,-5.5757,-5.4509,-5.3521,-5.2828,-5.2828,-5.2545,-5.2018,-5.1475,-5.0637,-4.9583,-4.9056,-4.8361,-4.7672,-4.7672,-4.7672,-4.7672,-4.7327,-4.7217,-4.7155,-4.681,-4.6672,-4.6672,-4.6672,-4.7189,-4.7879,-4.8189,-4.8603,-4.901,-4.901,-4.8747,-4.848,-4.848,-4.8277,-4.8037,-4.8037,-4.8037,-4.8105,-4.8443,-4.8545,-4.8511,-4.8409,-4.8139,-4.7432,-4.6007,-4.5235,-4.4831,-4.4995,-4.5096,-4.523,-4.5371,-4.5397,-4.5397,-4.5397,-4.5397,-4.5397,-4.5397,-4.5397,-4.5397,-4.5397,-4.5397,-4.5397,-4.5397,-4.5397,-4.5397,-4.5397,-4.5397,-4.5397,-4.5397,-4.5397,-4.5397,-4.5397,-4.5397,-4.5397,-4.5423,-4.5955,-4.6565,-6.0705,-6.1559,-6.2341,-6.2381,-6.1839,-6.1298,-6.1298,-6.0622,-5.9776,-5.9133,0.0,-5.8457,-5.707,-5.7408,-5.7881,-5.7881,0.0,-5.9583,-5.9581,-6.0961,-6.1686,-6.0986,-6.1942,-6.2705,-6.278,-6.278,-6.278,-6.278,-6.267,-6.1998,-6.0493,-6.0419,-5.9575,-5.774,-5.7005,-5.5868,-5.4252,-5.3491,-5.285,-5.2408,-5.2338,-5.1994,-5.1475,-5.1017,-5.0258,-4.9336,-4.8862,-4.8155,-4.7396,-4.7396,-4.7396,-4.7327,-4.6672,-4.6458,-4.6389,-4.5638,-4.5397,-4.5397,-4.5397,-4.5914,-4.6734,-4.7327,-4.7603,-4.7707,-4.781,-4.7586,-4.7358,-4.746,-4.7262,-4.709,-4.709,-4.709,-4.7259,-4.7902,-4.8041,-4.8176,-4.8748,-4.8274,-4.7394,-4.6109,-4.5371,-4.4995,-4.5132,-4.5165,-4.5291,-4.5371,-4.5397,-4.5397,-4.5397,-4.5397,-4.5397,-4.5397,-4.5397,-4.5397,-4.5397,-4.5397,-4.5397,-4.5397,-4.5397,-4.5397,-4.5397,-4.5397,-4.5397,-4.5397,-4.5397,-4.5397,-4.5397,-4.5397,-4.5397,-4.5423,-4.5995,-4.6861,-6.1301,-6.181,-6.215,-6.2341,-6.1839,-6.1298,-6.1298,-6.0216,0.0,0.0,-5.8524,-5.7814,-5.6968,-5.7408,-5.7881,-5.7881,0.0,0.0,0.0,0.0,-6.116,0.0,0.0,0.0,-6.2755,-6.278,0.0,0.0,-6.2181,-6.141,-6.0456,-6.0419,-5.9061,-5.6088,-5.5868,-5.5023,-5.3445,-5.2834,-5.2477,-5.2384,-5.1946,-5.1449,-5.0937,-5.083,-4.9796,-4.801,-4.7934,-4.7086,-4.5811,-4.5811,-4.5811,-4.5776,-4.5638,-4.5604,-4.5604,-4.5466,-4.5397,-4.5397,-4.5397,-4.5914,-4.6631,-4.6769,-4.7189,-4.781,-4.8289,-4.8317,-4.828,-4.8745,-4.8734,-4.8612,-4.8612,-4.8612,-4.8646,-4.8781,-4.8815,-4.868,-4.8176,-4.753,-4.6921,-4.665,-4.6238,-4.5862,-4.589,-4.5596,-4.5371,-4.5397,-4.5397,-4.5397,-4.5397,-4.5397,-4.5397,-4.5397,-4.5397,-4.5397,-4.5397,-4.5397,-4.5397,-4.5397,-4.5397,-4.5397,-4.5397,-4.5397,-4.5397,-4.5397,-4.5397,-4.5397,-4.5397,-4.5397,-4.5397,-4.5423,-4.6363,-4.6696,-6.1528,-6.187,-6.2037,-6.2341,-6.1535,-6.0689,-6.0689,0.0,0.0,0.0,-5.7273,-5.6528,-5.5784,0.0,0.0,0.0,0.0,0.0,0.0,0.0,0.0,0.0,0.0,0.0,0.0,-6.2334,-6.2464,-6.278,-6.1454,-6.0576,-6.0432,-5.9612,-5.807,-5.5706,-5.5596,-5.4693,-5.282,-5.2522,-5.2126,-5.1551,-5.1296,-5.091,-5.0369,-5.0369,-4.9396,-4.7672,-4.7672,-4.681,-4.5397,-4.5397,-4.5397,-4.5397,-4.5397,-4.5397,-4.5397,-4.5397,-4.5638,-4.6017,-4.6017,-4.6535,-4.7182,-4.7182,-4.7369,-4.7664,-4.7951,-4.7854,-4.7719,-4.7971,-4.7954,-4.7868,-4.7868,-4.7868,-4.7936,-4.8342,-4.8714,-4.8917,-4.8545,-4.7902,-4.7361,-4.7361,-4.6869,-4.6402,-4.6135,-4.5898,-4.5684,-4.544,-4.5397,-4.5397,-4.5397,-4.5397,-4.5397,-4.5397,-4.5397,-4.5397,-4.5397,-4.5397,-4.5397,-4.5397,-4.5397,-4.5397,-4.5397,-4.5397,-4.5397,-4.5397,-4.5397,-4.5397,-4.5397,-4.5397,-4.5604,-4.6044,-4.706,-4.7595,-6.1554,-6.1756,-6.1997,-6.2229,-6.1192,-6.0114,-6.0114,-5.8389,0.0,0.0,-5.6224,-5.548,-5.4735,0.0,0.0,0.0,0.0,0.0,0.0,0.0,0.0,0.0,0.0,0.0,-6.1668,-6.1668,0.0,-6.235,-6.0627,-5.9645,-5.9944,-5.8721,-5.7217,-5.5477,-5.544,-5.441,-5.2244,-5.209,-5.1626,-5.0803,-5.0667,-5.0397,-5.0011,-5.0011,-4.9183,-4.7672,-4.7672,-4.681,-4.5397,-4.5397,-4.5397,-4.5397,-4.5397,-4.5397,-4.5432,-4.5604,-4.6052,-4.6631,-4.6803,-4.732,-4.7913,-4.7885,-4.7698,-4.7545,-4.7654,-4.746,-4.7262,-4.7369,-4.7348,-4.7259,-4.7259,-4.7259,-4.7428,-4.8003,-4.8578,-4.9018,-4.9018,-4.8545,-4.8142,-4.8142,-4.7623,-4.7029,-4.6647,-4.6355,-4.6083,-4.5715,-4.55,-4.5397,-4.5397,-4.5397,-4.5397,-4.5397,-4.5397,-4.5397,-4.5397,-4.5397,-4.5397,-4.5397,-4.5397,-4.5397,-4.5397,-4.5397,-4.5397,-4.5397,-4.5397,-4.5397,-4.5397,-4.5569,-4.6028,-4.6811,-4.784,-4.8733,-6.1176,-6.1588,-6.179,-6.1997,-6.1042,-6.0114,-6.0114,0.0,0.0,-5.6799,-5.6224,-5.548,-5.4735,-5.5209,0.0,0.0,0.0,0.0,0.0,0.0,0.0,0.0,0.0,0.0,-6.1003,-6.1003,-6.0997,-6.1055,-5.9616,-5.8625,-5.8507,-5.8202,-5.7042,-5.4918,-5.4882,-5.3821,-5.1712,-5.1166,-5.091,-5.0776,-5.032,-5.0068,-5.0011,-5.0011,-4.9183,-4.7672,-4.7672,-4.681,-4.5397,-4.5397,-4.5397,-4.5397,-4.5397,-4.5397,-4.55,-4.6224,-4.6562,-4.67,-4.7389,-4.8086,-4.8706,-4.8564,-4.806,-4.7586,-4.8128,-4.8158,-4.8116,-4.8673,-4.8815,-4.8815,-4.8815,-4.8815,-4.8815,-4.8883,-4.8951,-4.9018,-4.9018,-4.8951,-4.8917,-4.8917,-4.8549,-4.8246,-4.8206,-4.7271,-4.6569,-4.65,-4.5845,-4.5397,-4.5397,-4.5397,-4.5397,-4.5397,-4.5397,-4.5397,-4.5397,-4.5397,-4.5397,-4.5397,-4.5397,-4.5397,-4.5397,-4.5397,-4.5397,-4.5397,-4.5397,-4.5397,-4.5397,-4.6121,-4.6759,-4.7337,-4.8542,-4.9398,-6.061,-6.1132,-6.1487,-6.1379,-6.0622,-5.9861,-5.9502,0.0,-5.6156,-5.6156,-5.5209,-5.4296,-5.3991,-5.4194,-5.4431,0.0,-5.4873,-5.5451,0.0,0.0,0.0,0.0,0.0,0.0,0.0,0.0,-5.9831,-5.8545,-5.8119,-5.7532,-5.6573,-5.6795,-5.614,-5.4317,-5.4281,-5.3248,-5.1149,-5.091,-5.0647,-5.032,-5.0092,-5.0011,-5.0011,-5.0011,-4.9183,-4.7672,-4.7672,-4.681,-4.5397,-4.5397,-4.5397,-4.5397,-4.5397,-4.5707,-4.6155,-4.6493,-4.7128,-4.787,-4.8145,-4.8673,-4.9203,-4.9145,-4.8851,-4.8562,-4.8809,-4.8757,-4.8673,-4.8917,-4.9018,-4.9018,-4.9018,-4.9018,-4.9018,-4.9018,-4.9018,-4.9018,-4.9018,-4.9018,-4.9018,-4.9018,-4.8873,-4.8651,-4.8416,-4.8014,-4.7442,-4.6707,-4.6707,-4.6603,-4.6155,-4.65,-4.6603,-4.6155,-4.5673,-4.5397,-4.5397,-4.5397,-4.5397,-4.5397,-4.5397,-4.5397,-4.5397,-4.5397,-4.5397,-4.5397,-4.5397,-4.5638,-4.6121,-4.6458,-4.7153,-4.829,-4.9387,-5.0295,-5.9997,-6.061,-6.0998,-6.0857,-6.0303,-5.9679,0.0,-5.7306,-5.5681,-5.5681,-5.4532,-5.3518,-5.3518,-5.3518,-5.3687,0.0,-5.4093,-5.4499,-5.603,0.0,0.0,0.0,0.0,-5.912,0.0,-5.9364,-5.8646,-5.6942,-5.6895,-5.6417,-5.5169,-5.5549,-5.5122,-5.3718,-5.3647,-5.2669,-5.0564,-5.0564,-5.0369,-5.0011,-5.0011,-5.0011,-5.0011,-5.0011,-4.9183,-4.7672,-4.7672,-4.681,-4.5397,-4.5397,-4.5397,-4.5397,-4.5397,-4.5853,-4.6549,-4.6756,-4.7567,-4.8586,-4.8792,-4.9115,-4.9471,-4.9411,-4.932,-4.9199,-4.9138,-4.9077,-4.9018,-4.9018,-4.9018,-4.9018,-4.9018,-4.9018,-4.9018,-4.9018,-4.9018,-4.9018,-4.9018,-4.9018,-4.9018,-4.9018,-4.9015,-4.8972,-4.8669,-4.8519,-4.8123,-4.7313,-4.7444,-4.7472,-4.6983,-4.7389,-4.75,-4.6975,-4.6397,-4.588,-4.5432,-4.5397,-4.5397,-4.5397,-4.5397,-4.5397,-4.5397,-4.5638,-4.5742,-4.5742,-4.5949,-4.6362,-4.6941,-4.7121,-4.7934,-4.9296,-5.0287,-5.1238,-5.9396,-6.0156,-6.0365,-6.0565,-6.0225,-5.9679,0.0,-5.7306,-5.5681,-5.5681,-5.4532,-5.3518,-5.3518,-5.3518,-5.3518,-5.3518,-5.4126,-5.4974,-5.6133,0.0,0.0,0.0,0.0,-5.7116,-5.784,-5.7909,-5.7598,-5.6874,-5.6081,-5.5288,-5.4563,-5.4529,-5.4079,-5.3148,-5.3106,-5.2094,-5.0011,-5.0011,-5.0011,-5.0011,-5.0011,-5.0011,-5.0011,-5.0011,-4.9183,-4.7672,-4.7672,-4.681,-4.5397,-4.5397,-4.5397,-4.5397,-4.5397,-4.5765,-4.6385,-4.7202,-4.7872,-4.8509,-4.9261,-4.95,-4.9471,-4.926,-4.9199,-4.9168,-4.9015,-4.9018,-4.9018,-4.9018,-4.9018,-4.9018,-4.9018,-4.9018,-4.9018,-4.9018,-4.9018,-4.9018,-4.9018,-4.9018,-4.9018,-4.9018,-4.9107,-4.9199,-4.9199,-4.8737,-4.8436,-4.8546,-4.7957,-4.7567,-4.7672,-4.7672,-4.7672,-4.77,-4.7672,-4.7052,-4.5535,-4.5397,-4.5397,-4.5397,-4.5397,-4.5397,-4.5397,-4.6155,-4.6596,-4.6596,-4.732,-4.7672,-4.77,-4.8396,-4.9342,-5.0388,-5.1208,-5.2137,-5.7541,-5.8183,-5.8534,-5.8385,-5.783,-5.7338,-5.7471,-5.619,-5.4938,-5.4938,-5.4194,-5.3518,-5.3518,-5.3518,-5.3687,-5.416,-5.4431,0.0,0.0,0.0,0.0,0.0,-5.815,-5.8392,0.0,0.0,-5.7047,-5.6805,-5.5598,-5.477,-5.4529,-5.4011,-5.3345,-5.2518,-5.2483,-5.1667,-5.0011,-5.0011,-5.0011,-5.0011,-5.0011,-5.0011,-5.0011,-5.0011,-4.9183,-4.7672,-4.7672,-4.681,-4.5397,-4.5397,-4.5397,-4.5397,-4.5318,-4.5711,-4.6378,-4.7055,-4.7665,-4.8298,-4.9018,-4.8889,-4.8385,-4.8321,-4.7999,-4.7539,-4.7505,-4.8226,-4.9018,-4.9018,-4.9018,-4.9018,-4.9018,-4.9018,-4.9018,-4.9018,-4.9018,-4.9018,-4.9018,-4.9018,-4.9018,-4.9018,-4.9015,-4.9077,-4.9199,-4.9056,-4.8869,-4.862,-4.885,-4.8873,-4.8499,-4.843,-4.8258,-4.7741,-4.7672,-4.75,-4.7017,-4.6948,-4.6948,-4.6948,-4.6948,-4.6948,-4.6948,-4.7217,-4.7327,-4.7327,-4.7569,-4.7948,-4.843,-4.8672,-4.9622,-5.1244,-5.1862,-5.2522,0.0,-5.6652,-5.7028,-5.7356,-5.6791,-5.6328,-5.6691,-5.5649,-5.46,-5.46,-5.4025,-5.3518,-5.3518,-5.3518,-5.3653,-5.4093,-5.416,0.0,0.0,0.0,0.0,-5.7427,0.0,0.0,0.0,-5.7495,-5.6805,-5.6805,-5.5357,-5.4494,-5.4494,-5.3804,-5.3046,-5.2222,-5.1912,-5.1218,-5.0011,-5.0011,-5.0011,-5.0011,-5.0011,-5.0011,-5.0011,-4.97,-4.8844,-4.7672,-4.7424,-4.6569,0.0,-4.5397,-4.5371,-4.5318,-4.523,-4.5603,-4.6219,-4.6564,-4.7102,-4.7692,-4.815,-4.7967,-4.7473,-4.7473,-4.7171,-4.6828,-4.6828,-4.7638,-4.8576,-4.8576,-4.8798,-4.9018,-4.9018,-4.9018,-4.9018,-4.9018,-4.9018,-4.9018,-4.9018,-4.9018,-4.9018,-4.9018,-4.9018,-4.9049,-4.9107,-4.9107,-4.9093,-4.8944,-4.9345,-4.9507,-4.9263,-4.9223,-4.9079,-4.8631,-4.8596,-4.8596,-4.8596,-4.8045,-4.7672,-4.7672,-4.7672,-4.7672,-4.7672,-4.7948,-4.812,-4.812,-4.8396,-4.8775,-4.9252,-4.9667,-5.0471,-5.1601,-5.2361,-5.2872,0.0,-5.5501,-5.5733,-5.7033,-5.663,-5.6057,-5.6523,-5.5547,0.0,-5.4499,-5.3991,-5.3518,-5.3518,-5.345,-5.345,-5.3551,-5.3551,0.0,0.0,0.0,0.0,0.0,-5.7564,0.0,-5.7978,-5.7253,-5.6805,-5.6805,-5.5357,-5.4494,-5.4494,-5.377,-5.2977,-5.2222,-5.1459,-5.07,-5.0011,-5.0011,-5.0011,-5.0011,-4.9942,-4.9907,-4.9907,-4.9085,-4.8327,-4.7569,-4.6906,-4.6121,-4.5397,-4.5397,-4.5318,-4.5203,-4.5177,-4.5467,-4.5914,-4.5882,-4.6242,-4.6812,-4.6807,-4.6793,-4.6724,-4.6689,-4.6655,-4.6655,-4.6655,-4.7204,-4.7901,-4.7901,-4.845,-4.9018,-4.9018,-4.9018,-4.9018,-4.9018,-4.9018,-4.9018,-4.9018,-4.9018,-4.9018,-4.9018,-4.9018,-4.9018,-4.9018,-4.9018,-4.9107,-4.9411,-4.9471,-4.9624,-4.9952,-4.9913,-4.9907,-4.9907,-4.9907,-4.9907,-4.9907,-4.8665,-4.7844,-4.7844,-4.7844,-4.7844,-4.7844,-4.8499,-4.8879,-4.8879,-4.9631,-5.0011,-5.0011,-5.1044,-5.1551,-5.1626,-5.2672,-5.3146,-5.2387,0.0,-5.4074,-5.4675,-5.4245,-5.3946,0.0,-5.4397,0.0,0.0,0.0,-5.3518,-5.3518,-5.301,-5.2976,-5.416,-5.3856,-5.4093,-5.5826,0.0,0.0,-5.8358,-5.8633,-5.8737,-5.8737,-5.7564,-5.6805,-5.6805,-5.5357,-5.4494,-5.4494,-5.3218,-5.2394,-5.2188,-5.0942,-5.0183,-5.0011,-5.0011,-5.0011,-5.0011,-4.939,-4.9085,-4.9051,-4.8293,-4.7562,-4.6872,-4.67,-4.6121,-4.5397,-4.5291,-4.523,-4.5177,-4.4995,-4.5307,-4.5886,-4.5757,-4.6179,-4.6812,-4.6807,-4.6445,-4.5877,-4.5326,-4.5104,-4.5104,-4.5104,-4.6413,-4.7901,-4.7901,-4.845,-4.9018,-4.9018,-4.9018,-4.9018,-4.9018,-4.9018,-4.9018,-4.9018,-4.9018,-4.9018,-4.9018,-4.9018,-4.9018,-4.9018,-4.9018,-4.9046,-4.9229,-4.9381,-4.956,-4.9737,-4.9372,-4.9085,-4.9085,-4.9085,-4.9085,-4.9085,-4.9321,-4.9459,-4.9459,-4.9459,-4.9459,-4.9459,-4.9631,-4.9735,-4.9735,-4.9907,-5.0011,-5.0011,-5.064,-5.1192,-5.1601,-5.2291,-5.2806,-5.0953,-5.1914,-5.3111,-5.3837,-5.3707,-5.3609,-5.4291,0.0,0.0,0.0,0.0,0.0,-5.2435,-5.2367,0.0,-5.3416,-5.3788,0.0,0.0,0.0,-5.8393,-5.8944,-5.9012,-5.9012,-5.9012,-5.7667,-5.6805,-5.6805,-5.5357,-5.4494,-5.4494,-5.3015,-5.2188,-5.2188,-5.0769,-5.0011,-5.0011,-5.0011,-5.0011,-5.0011,-4.9562,-4.9327,-4.9292,-4.8189,-4.7465,-4.7079,-4.6389,-4.5776,-4.5397,-4.5264,-4.515,-4.5042,-4.4547,-4.4731,-4.5236,-4.4884,-4.5177,-4.5788,-4.5801,-4.5515,-4.5142,-4.4723,-4.461,-4.461,-4.461,-4.5697,-4.6967,-4.7305,-4.7934,-4.8576,-4.8892,-4.9018,-4.9018,-4.9018,-4.9018,-4.9018,-4.9018,-4.9018,-4.9018,-4.9018,-4.9018,-4.9018,-4.9018,-4.9018,-4.908,-4.9168,-4.929,-4.9441,-4.9679,-4.9423,-4.9269,-4.9327,-4.9327,-4.9327,-4.9327,-4.9769,-5.0011,-5.0011,-5.0011,-5.0011,-5.0011,-5.0011,-5.0011,-5.0011,-5.0011,-5.0011,-5.0011,-5.0537,-5.1096,-5.1601,-5.2173,-5.2694,-5.0485,-5.1347,-5.258,-5.3469,-5.374,-5.3842,0.0,0.0,0.0,0.0,0.0,0.0,0.0,0.0,0.0,0.0,0.0,0.0,-5.7157,-5.8083,-5.8668,-5.8978,-5.9012,0.0,-5.9012,-5.7667,-5.6805,-5.6805,-5.5357,-5.4494,-5.4494,-5.3015,-5.2188,-5.2188,-5.0769,-5.0011,-5.0011,-5.0011,-5.0011,-5.0011,-4.9873,-4.9769,-4.9597,-4.8183,-4.7493,-4.7258,-4.5983,-4.5397,-4.5371,-4.5203,-4.5015,-4.4742,-4.4164,-4.4188,-4.4547,-4.3992,-4.4173,-4.476,-4.462,-4.461,-4.461,-4.461,-4.461,-4.461,-4.461,-4.503,-4.5697,-4.6585,-4.7305,-4.8064,-4.8798,-4.9018,-4.9018,-4.9018,-4.9018,-4.9018,-4.9018,-4.9018,-4.9018,-4.9018,-4.9018,-4.9018,-4.9018,-4.9018,-4.9015,-4.9138,-4.9199,-4.932,-4.9619,-4.9679,-4.9801,-4.9982,-5.0011,-5.0011,-5.0011,-5.0011,-5.0011,-5.0011,-5.0011,-5.0011,-5.0011,-5.0011,-5.0011,-5.0011,-5.0011,-5.0011,-5.0011,-5.0453,-5.0964,-5.1475,-5.2054,-5.2581,-5.0817,-5.1744,-5.2348,-5.2198,-5.2602,-5.2972,0.0,0.0,0.0,0.0,0.0,0.0,0.0,0.0,0.0,0.0,0.0,-5.5992,0.0,0.0,-5.7946,-5.8909,0.0,-5.9012,-5.9012,-5.7667,-5.6805,-5.6805,-5.5357,-5.4494,-5.4494,-5.3015,-5.2188,-5.2188,-5.0769,-5.0011,-5.0011,-5.0011,-5.0011,-5.0011,-4.9321,-4.8637,-4.8017,-4.7182,-4.6397,-4.5742,-4.55,-4.5344,-4.5203,-4.5103,-4.4631,-4.4039,-4.4378,-4.458,-4.4691,-4.4519,-4.4934,-4.5462,-4.4843,-4.461,-4.461,-4.461,-4.461,-4.461,-4.461,-4.4685,-4.5067,-4.6445,-4.7305,-4.8064,-4.8798,-4.9018,-4.9018,-4.9018,-4.9018,-4.9018,-4.9018,-4.9018,-4.9018,-4.9018,-4.9018,-4.9018,-4.9018,-4.9018,-4.9018,-4.9015,-4.9107,-4.929,-4.95,-4.9619,-4.9801,-4.9982,-5.0011,-5.0011,-5.0011,-5.0011,-5.0011,-5.0011,-5.0011,-5.0011,-5.0011,-5.0011,-5.0011,-5.0011,-5.0011,-5.0011,-5.0011,-5.0063,-5.0397,-5.0937,-5.1449,-5.1994,-4.9425,-5.0353,-5.1284,-5.1593,-5.2866,-5.3842,0.0,0.0,0.0,0.0,0.0,0.0,0.0,0.0,0.0,0.0,0.0,-5.6669,-5.7699,-5.7907,-5.8219,0.0,-5.8944,-5.884,-5.8461,-5.7426,-5.6633,-5.6184,-5.515,-5.4494,-5.4494,-5.3015,-5.2188,-5.2188,-5.0769,-5.0011,-5.0011,-5.0011,-5.0011,-5.0011,-4.9631,-4.9286,-4.8907,-4.7734,-4.6983,-4.6603,-4.5688,-4.5257,-4.515,-4.4569,-4.4351,-4.4278,-4.3715,-4.3973,-4.4657,-4.4606,-4.4818,-4.5067,-4.4723,-4.461,-4.461,-4.461,-4.461,-4.461,-4.461,-4.4874,-4.5405,-4.6515,-4.7035,-4.7572,-4.8704,-4.9018,-4.9018,-4.9018,-4.9018,-4.9018,-4.9018,-4.9018,-4.9018,-4.9018,-4.9018,-4.9018,-4.9018,-4.9018,-4.9018,-4.9018,-4.9046,-4.9168,-4.9441,-4.953,-4.9713,-4.9982,-5.0011,-5.0011,-5.0011,-5.0011,-5.0011,-5.0011,-5.0011,-5.0011,-5.0011,-5.0011,-5.0011,-5.0011,-5.0011,-5.0011,-5.0011,-5.0011,-5.0291,-5.0803,-5.1347,-5.1873,-4.8829,-4.9458,-5.042,-5.1255,0.0,0.0,0.0,0.0,0.0,0.0,0.0,0.0,0.0,0.0,0.0,-5.6765,-5.707,-5.7345,-5.8103,-5.8348,-5.8525,-5.8771,-5.8909,-5.8668,-5.7978,-5.7219,-5.646,-5.5667,-5.4943,-5.4425,-5.4253,-5.2912,-5.2119,-5.1946,-5.07,-5.0011,-5.0011,-5.0011,-4.9982,-4.9918,-4.9918,-4.9717,-4.9309,-4.8139,-4.7382,-4.7004,-4.5692,-4.5042,-4.4818,-4.4117,-4.3989,-4.4191,-4.3194,-4.3532,-4.4606,-4.4613,-4.461,-4.461,-4.461,-4.461,-4.461,-4.461,-4.461,-4.461,-4.461,-4.5104,-4.5841,-4.6588,-4.6898,-4.7372,-4.8673,-4.9018,-4.9018,-4.9018,-4.9018,-4.9018,-4.9018,-4.9018,-4.9018,-4.9018,-4.9018,-4.9018,-4.9018,-4.9018,-4.9018,-4.9018,-4.9018,-4.9077,-4.9381,-4.9471,-4.9624,-4.9889,-4.9982,-5.0011,-5.0011,-5.0011,-5.008,-5.0252,-5.0114,-5.0011,-5.0011,-5.0011,-5.0011,-5.0011,-5.0011,-5.0011,-5.0011,-5.0011,-5.0206,-5.0647,-5.127,-5.1932,-5.0684,-5.0618,-5.0386,-5.1149,0.0,0.0,0.0,0.0,0.0,0.0,0.0,0.0,0.0,0.0,0.0,-5.7679,-5.7814,-5.7887,-5.8171,0.0,-5.8384,-5.8736,-5.884,-5.8565,-5.7944,-5.7219,-5.646,-5.5667,-5.4943,-5.4218,-5.3529,-5.2666,-5.1877,-5.1218,-5.0424,-5.0011,-5.0011,-5.0011,-4.9889,-4.9708,-4.9708,-4.8929,-4.7415,-4.7313,-4.6492,-4.5186,-4.5056,-4.4569,-4.3914,-4.3856,-4.3381,-4.2798,-4.3327,-4.397,-4.4586,-4.461,-4.461,-4.461,-4.461,-4.461,-4.461,-4.461,-4.461,-4.461,-4.461,-4.5104,-4.5841,-4.6588,-4.7272,-4.7999,-4.8798,-4.9018,-4.9018,-4.9018,-4.9018,-4.9018,-4.9018,-4.9018,-4.9018,-4.9018,-4.9018,-4.9018,-4.9018,-4.9018,-4.9018,-4.9018,-4.9018,-4.9046,-4.9199,-4.9381,-4.956,-4.9708,-4.9889,-5.0011,-5.0011,-5.0011,-5.0287,-5.0976,-5.039,-5.0011,-5.0011,-5.0011,-5.0011,-5.0011,-5.0011,-5.0011,-5.0011,-5.0011,-5.004,-5.0063,-5.1123,-5.2019,-4.979,-4.9678,-4.9728,-5.0977,0.0,0.0,0.0,0.0,0.0,0.0,0.0,0.0,0.0,0.0,-5.7577,-5.7848,-5.7881,-5.7918,-5.7991,-5.8099,-5.8277,-5.8419,-5.8525,-5.8186,-5.7122,-5.6777,-5.6122,-5.498,-5.4667,-5.4184,-5.3425,-5.2666,-5.1843,-5.1149,-5.039,-4.9918,-4.983,-4.983,-4.9649,-4.9381,-4.959,-4.9311,-4.8582,-4.766,-4.6674,-4.5689,-4.4692,-4.3823,-4.3171,-4.3102,-4.31,-4.3286,-4.3956,-4.4372,-4.461,-4.461,-4.461,-4.461,-4.461,-4.461,-4.461,-4.461,-4.461,-4.461,-4.461,-4.5442,-4.6445,-4.6724,-4.7671,-4.8639,-4.8923,-4.9018,-4.9018,-4.9018,-4.9018,-4.9018,-4.9018,-4.9018,-4.9018,-4.9018,-4.9018,-4.9018,-4.9018,-4.9018,-4.9018,-4.9018,-4.9018,-4.9046,-4.9199,-4.9381,-4.953,-4.9679,-5.0302,-5.0873,-5.1356,-5.136,-5.1494,-5.177,-5.1114,-5.07,-5.07,-5.1149,-5.0942,-5.0011,-5.128,-5.128,-5.0011,-5.0828,-5.0828,-5.004,-5.1609,-5.2519,-4.9084,-4.8624,-4.855,0.0,0.0,0.0,0.0,0.0,0.0,0.0,0.0,0.0,0.0,0.0,0.0,0.0,-5.7881,-5.7881,-5.7881,-5.8027,-5.8099,-5.8171,-5.8144,-5.7636,-5.6541,-5.6164,-5.558,-5.4502,-5.4193,-5.3742,-5.308,-5.2226,-5.1438,-5.0681,-5.0135,-4.9772,-4.9649,-4.9619,-4.95,-4.9199,-4.9441,-4.9368,-4.8946,-4.7446,-4.6376,-4.5621,-4.4059,-4.3148,-4.2751,-4.2644,-4.2997,-4.3658,-4.4366,-4.461,-4.461,-4.461,-4.461,-4.461,-4.461,-4.461,-4.461,-4.461,-4.461,-4.461,-4.461,-4.5624,-4.6828,-4.6828,-4.7869,-4.9018,-4.9018,-4.9018,-4.9018,-4.9018,-4.9018,-4.9018,-4.9018,-4.9018,-4.9018,-4.9018,-4.9018,-4.9018,-4.9018,-4.9018,-4.9018,-4.9018,-4.9018,-4.9015,-4.9107,-4.929,-4.9471,-4.9679,-5.0543,-5.1321,-5.1808,-5.205,-5.2321,-5.2563,-5.2114,-5.1735,-5.1459,-5.1912,-5.1735,-5.0735,-5.2276,-5.2389,-5.0985,-5.1899,-5.1976,-5.1263,-5.2573,-5.3407,-4.9091,-4.7801,0.0,0.0,0.0,0.0,0.0,0.0,0.0,0.0,0.0,0.0,0.0,0.0,0.0,-5.7881,-5.7881,-5.7881,-5.7881,-5.7881,-5.7954,-5.8171,-5.7559,-5.6881,-5.6269,-5.5518,-5.4832,-5.4242,-5.3518,-5.2826,-5.2222,-5.1378,-5.0532,-4.9742,-4.956,-4.95,-4.95,-4.95,-4.9381,-4.9199,-4.9199,-4.8734,-4.7841,-4.6455,-4.5415,-4.4624,-4.3159,-4.2558,-4.2597,-4.2597,-4.3001,-4.3685,-4.4363,-4.461,-4.461,-4.461,-4.461,-4.461,-4.461,-4.461,-4.461,-4.461,-4.461,-4.461,-4.461,-4.5624,-4.6828,-4.6828,-4.7869,-4.9018,-4.9018,-4.9018,-4.9018,-4.9018,-4.9018,-4.9018,-4.9018,-4.9018,-4.9018,-4.9018,-4.9018,-4.9018,-4.9018,-4.9018,-4.9018,-4.9018,-4.9018,-4.9018,-4.9018,-4.9107,-4.932,-4.9679,-5.0543,-5.1114,-5.1114,-5.1804,-5.2532,-5.3356,-5.3425,-5.3046,-5.2222,-5.2222,-5.2222,-5.2188,-5.2799,-5.3141,-5.3078,-5.3106,-5.3411,-5.3999,-5.3947,-5.4661,-4.7637,0.0,0.0,0.0,0.0,0.0,0.0,0.0,0.0,0.0,0.0,0.0,-5.7881,0.0,0.0,-5.7881,-5.7881,-5.7881,-5.7881,-5.7881,-5.7918,-5.7991,-5.7311,-5.667,-5.6132,-5.5349,-5.4666,-5.4114,-5.3393,-5.264,-5.1884,-5.11,-5.0347,-4.9594,-4.95,-4.9411,-4.929,-4.929,-4.8951,-4.8289,-4.8289,-4.8157,-4.786,-4.6937,-4.5865,-4.4643,-4.3669,-4.3031,-4.2647,-4.3082,-4.3685,-4.4332,-4.4548,-4.461,-4.461,-4.461,-4.461,-4.461,-4.461,-4.461,-4.461,-4.461,-4.461,-4.461,-4.461,-4.5624,-4.6828,-4.6828,-4.7869,-4.9018,-4.9018,-4.9018,-4.9018,-4.9018,-4.9018,-4.9018,-4.9018,-4.939,-4.9627,-4.9086,-4.9424,-4.9763,-4.9763,-4.9763,-4.9763,-4.9763,-4.9763,-4.9625,-4.9206,-4.9168,-4.9555,-5.0433,-5.0798,-5.1202,-5.1808,-5.2597,-5.3149,-5.3391,-5.3908,-5.3839,-5.308,-5.3563,-5.3322,-5.2222,-5.4281,-5.4618,-5.3078,-5.4052,-5.4314,-5.3999,-5.4509,-5.5189,-4.7051,0.0,0.0,0.0,0.0,0.0,0.0,0.0,0.0,0.0,0.0,0.0,-5.7881,-5.7881,0.0,-5.7881,-5.7881,-5.7881,-5.7881,-5.7881,-5.7881,-5.7881,-5.7002,-5.6225,-5.589,-5.4907,-5.416,-5.3916,-5.2927,-5.2175,-5.1694,-5.0639,-4.9858,-4.9415,-4.932,-4.9229,-4.9107,-4.8588,-4.8013,-4.7503,-4.6946,-4.6651,-4.6613,-4.6189,-4.5522,-4.4689,-4.3925,-4.334,-4.3033,-4.3747,-4.424,-4.461,-4.461,-4.461,-4.461,-4.461,-4.461,-4.461,-4.461,-4.461,-4.461,-4.461,-4.461,-4.4648,-4.4955,-4.5877,-4.6862,-4.7137,-4.8064,-4.9018,-4.9018,-4.9018,-4.9018,-4.9018,-4.9221,-4.9424,-4.9424,-5.0033,-5.0405,-4.9965,-5.0236,-5.0439,-5.0135,-5.0338,-5.0338,-4.9729,-4.9661,-4.9523,-4.9175,-4.9168,-4.946,-5.015,-5.0643,-5.1107,-5.1645,-5.2463,-5.308,-5.3391,-5.3839,-5.4011,-5.3839,-5.4253,-5.408,-5.3118,-5.5228,-5.5675,-5.4358,-5.5419,-5.5811,-5.5605,-5.5785,-5.6216,0.0,0.0,0.0,0.0,0.0,0.0,0.0,0.0,0.0,0.0,0.0,-5.7881,-5.7881,-5.7881,-5.7881,-5.7881,-5.7881,-5.7881,-5.7881,-5.7881,-5.7881,-5.7814,-5.6562,-5.5683,-5.5615,-5.4329,-5.3551,-5.3684,-5.2291,-5.1537,-5.1663,-5.0076,-4.9168,-4.9168,-4.8984,-4.8892,-4.8892,-4.7558,-4.6842,-4.6679,-4.5375,-4.4741,-4.4583,-4.4654,-4.4717,-4.4642,-4.3981,-4.3685,-4.3747,-4.4363,-4.461,-4.461,-4.461,-4.461,-4.461,-4.461,-4.461,-4.461,-4.461,-4.461,-4.461,-4.461,-4.4648,-4.4836,-4.5478,-4.6269,-4.7035,-4.7704,-4.845,-4.9018,-4.9018,-4.9052,-4.9086,-4.9086,-4.956,-4.9999,-5.0067,-5.0676,-5.1185,-5.1185,-5.1219,-5.1116,-5.0405,-5.0879,-5.0845,-4.9424,-4.9086,-4.9018,-4.9018,-4.9107,-4.9199,-4.9199,-5.015,-5.0742,-5.0772,-5.158,-5.2394,-5.3149,-5.3253,-5.3632,-5.4391,-5.446,-5.4494,-5.4494,-5.5687,-5.6303,-5.6303,-5.6861,-5.7425,-5.7997,-5.7401,-5.7425,0.0,0.0,0.0,0.0,0.0,0.0,0.0,0.0,0.0,0.0,-5.7881,-5.7881,-5.7881,-5.7881,-5.7881,-5.7881,-5.7881,-5.7881,-5.7881,-5.7881,-5.7679,-5.7103,-5.6258,-5.548,-5.4905,-5.4025,-5.3484,-5.3517,-5.213,-5.1282,-5.1314,-4.9859,-4.9015,-4.9015,-4.845,-4.8129,-4.8129,-4.7275,-4.6275,-4.5179,-4.4881,-4.4421,-4.3851,-4.4436,-4.4683,-4.462,-4.4469,-4.4394,-4.4425,-4.4548,-4.461,-4.461,-4.461,-4.461,-4.461,-4.461,-4.461,-4.461,-4.461,-4.461,-4.461,-4.461,-4.4993,-4.5478,-4.566,-4.6622,-4.7671,-4.7869,-4.845,-4.9018,-4.9018,-4.9424,-4.9864,-4.9864,-4.9526,-4.939,-4.9965,-5.0676,-5.1185,-5.1185,-5.1691,-5.2029,-5.186,-5.1961,-5.1758,-5.0879,-4.9763,-4.9018,-4.9018,-4.9049,-4.9077,-4.9199,-4.9396,-4.9649,-4.9919,-5.0699,-5.1305,-5.1567,-5.2149,-5.2839,-5.3598,-5.4184,-5.4494,-5.4494,-5.5687,-5.6303,-5.6303,-5.6861,-5.7425,-5.7997,-5.7401,-5.7425,0.0,0.0,0.0,0.0,0.0,0.0,0.0,0.0,0.0,0.0,-5.7222,-5.7881,-5.7881,-5.7881,-5.7881,-5.7881,-5.7881,-5.7881,-5.7881,-5.7881,-5.7611,-5.69,-5.6156,-5.5412,-5.4668,-5.3923,-5.3348,-5.2942,-5.186,-5.1048,-5.071,-4.9244,-4.8482,-4.8482,-4.777,-4.7372,-4.7372,-4.6011,-4.5107,-4.4689,-4.3361,-4.2843,-4.3162,-4.4184,-4.4614,-4.461,-4.461,-4.461,-4.461,-4.461,-4.461,-4.461,-4.461,-4.461,-4.461,-4.461,-4.4825,-4.5003,-4.4733,-4.4825,-4.5079,-4.5117,-4.54,-4.5841,-4.6553,-4.7305,-4.7999,-4.8354,-4.8971,-4.9526,-4.9526,-5.0067,-5.0642,-5.0642,-5.0608,-5.0676,-5.1082,-5.1758,-5.23,-5.23,-5.2604,-5.2739,-5.2367,-5.2029,-5.1522,-5.0777,-5.0033,-4.939,-4.9052,-4.9018,-4.9215,-4.9709,-4.9835,-4.9987,-5.0227,-5.0695,-5.1025,-5.1085,-5.1429,-5.2046,-5.2804,-5.3218,-5.377,-5.4494,-5.5687,-5.6303,-5.6303,-5.7116,-5.7703,-5.7997,-5.7679,-5.7703,0.0,0.0,0.0,0.0,0.0,0.0,0.0,0.0,0.0,0.0,-5.6159,-5.7443,-5.7443,-5.7554,-5.7698,-5.7698,-5.7698,-5.7735,-5.7881,-5.7671,-5.7263,-5.6662,-5.5953,-5.5243,-5.4465,-5.3856,-5.3179,-5.2367,-5.1623,-5.0815,-4.9976,-4.8625,-4.7836,-4.7704,-4.6967,-4.662,-4.662,-4.477,-4.4071,-4.4476,-4.2151,-4.1648,-4.2817,-4.4018,-4.461,-4.461,-4.461,-4.461,-4.461,-4.461,-4.461,-4.461,-4.461,-4.461,-4.4641,-4.4733,-4.5095,-4.5495,-4.4979,-4.5126,-4.5619,-4.5693,-4.5805,-4.6163,-4.7473,-4.7999,-4.8258,-4.8964,-4.9627,-5.0135,-5.0236,-5.0845,-5.1386,-5.1386,-5.2063,-5.2604,-5.2367,-5.2841,-5.3382,-5.3653,-5.3788,-5.3653,-5.2841,-5.2198,-5.1589,-5.0947,-5.0642,-5.0236,-4.9661,-4.9458,-4.969,-5.0459,-5.0649,-5.0769,-5.102,-5.1142,-5.1227,-5.1291,-5.1183,-5.1459,-5.2153,-5.205,-5.2701,-5.408,-5.5325,-5.5996,-5.6138,-5.7302,-5.7821,-5.7844,-5.795,-5.7997,0.0,0.0,0.0,0.0,0.0,0.0,0.0,0.0,0.0,0.0,-5.4787,-5.5676,-5.5676,-5.627,-5.6768,-5.6768,-5.6768,-5.7067,-5.7808,-5.6687,-5.5833,-5.5813,-5.5209,-5.4465,-5.3721,-5.3551,-5.3179,-5.2367,-5.1623,-5.0621,-4.9194,-4.8365,-4.7605,-4.6999,-4.6202,-4.5841,-4.5841,-4.4917,-4.4236,-4.3741,-4.3353,-4.3285,-4.3501,-4.4271,-4.461,-4.461,-4.461,-4.461,-4.461,-4.461,-4.461,-4.461,-4.461,-4.461,-4.4702,-4.5249,-4.5495,-4.5588,-4.5495,-4.5526,-4.5619,-4.5693,-4.6127,-4.6795,-4.7638,-4.8354,-4.8996,-4.9731,-4.9999,-5.0236,-5.0913,-5.1623,-5.2164,-5.2164,-5.3247,-5.3923,-5.2604,-5.2367,-5.2875,-5.4194,-5.4972,-5.5175,-5.4431,-5.4194,-5.4093,-5.3991,-5.2841,-5.1961,-5.186,-5.1319,-5.0947,-5.108,-5.1114,-5.1274,-5.1589,-5.162,-5.171,-5.205,-5.1459,-5.1459,-5.2153,-5.1567,-5.1666,-5.2463,-5.3801,-5.4809,-5.5513,-5.6642,-5.7216,-5.7216,-5.775,-5.7997,0.0,0.0,0.0,0.0,0.0,0.0,0.0,0.0,0.0,-5.2471,-5.3064,-5.3976,-5.5076,-5.5636,-5.5876,-5.5876,-5.5876,-5.5903,-5.5897,-5.5265,-5.4558,-5.3849,-5.382,-5.3636,-5.2901,-5.3246,-5.301,-5.1792,-5.0993,-4.9959,-4.8464,-4.7266,-4.6518,-4.6198,-4.5442,-4.5067,-4.5067,-4.439,-4.3716,-4.3033,-4.3809,-4.3963,-4.3624,-4.4302,-4.461,-4.461,-4.461,-4.461,-4.461,-4.461,-4.461,-4.461,-4.461,-4.461,-4.4641,-4.4949,-4.5495,-4.6049,-4.528,-4.5526,-4.6191,-4.6298,-4.655,-4.7033,-4.8161,-4.8767,-4.9154,-4.9898,-5.0405,-5.0879,-5.1623,-5.2401,-5.3078,-5.3484,-5.3788,-5.3923,-5.3653,-5.3923,-5.4431,-5.5074,-5.548,-5.548,-5.4735,-5.4938,-5.4938,-5.4126,-5.3416,-5.2807,-5.2367,-5.1657,-5.1419,-5.1922,-5.199,-5.2053,-5.2309,-5.2435,-5.2358,-5.21,-5.1847,-5.1843,-5.2188,-5.223,-5.2433,-5.2873,-5.3748,-5.455,-5.5241,-5.6479,-5.7266,-5.7594,-5.7867,-5.7997,0.0,0.0,0.0,0.0,0.0,0.0,0.0,0.0,-5.1618,0.0,-5.2033,-5.2771,-5.4359,-5.4819,-5.4985,-5.4985,-5.4824,-5.4615,-5.4348,-5.38,-5.314,-5.2307,-5.2543,-5.2617,-5.2053,-5.252,-5.2267,-5.0727,-5.0089,-4.9052,-4.7404,-4.6308,-4.5624,-4.5437,-4.488,-4.461,-4.461,-4.4117,-4.3587,-4.3125,-4.411,-4.4363,-4.387,-4.4394,-4.461,-4.461,-4.461,-4.461,-4.461,-4.461,-4.461,-4.461,-4.461,-4.461,-4.4641,-4.4795,-4.5588,-4.6419,-4.5249,-4.5618,-4.6632,-4.6753,-4.6828,-4.7101,-4.8545,-4.912,-4.9424,-5.0168,-5.0913,-5.1657,-5.2401,-5.3179,-5.3856,-5.4228,-5.4194,-5.4126,-5.4262,-5.4905,-5.5378,-5.5209,-5.5411,-5.548,-5.4735,-5.5209,-5.5344,-5.4228,-5.389,-5.3551,-5.2976,-5.2232,-5.2062,-5.2735,-5.2836,-5.2901,-5.303,-5.319,-5.3046,-5.2592,-5.2509,-5.2433,-5.2498,-5.2875,-5.3165,-5.332,-5.3906,-5.443,-5.4874,-5.6041,-5.6901,-5.7481,-5.784,-5.7997,0.0,0.0,0.0,0.0,0.0,0.0,0.0,0.0,0.0,-5.1956,-5.2155,-5.2397,-5.2788,-5.3521,-5.4062,-5.4062,-5.3524,-5.3414,-5.4204,-5.2437,-5.1335,-5.2133,-5.1631,-5.1215,-5.1182,-5.122,-5.0603,-4.9138,-4.8972,-4.8035,-4.5941,-4.5733,-4.54,-4.4685,-4.461,-4.461,-4.461,-4.4579,-4.4548,-4.4517,-4.4579,-4.461,-4.4579,-4.461,-4.461,-4.461,-4.461,-4.461,-4.461,-4.461,-4.461,-4.461,-4.461,-4.461,-4.4702,-4.5311,-4.5988,-4.648,-4.5772,-4.5988,-4.6632,-4.6753,-4.6828,-4.7101,-4.8545,-4.9492,-5.0202,-5.0947,-5.1691,-5.2435,-5.3247,-5.3991,-5.4363,-5.3721,-5.46,-5.5209,-5.3856,-5.4126,-5.4431,-5.3754,-5.4735,-5.548,-5.4735,-5.5209,-5.5683,-5.5615,-5.5006,-5.4532,-5.4465,-5.3822,-5.3416,-5.345,-5.345,-5.3483,-5.3649,-5.3649,-5.378,-5.407,-5.345,-5.3132,-5.3356,-5.3189,-5.3113,-5.312,-5.3822,-5.4208,-5.4244,-5.4882,-5.5502,-5.6042,-5.7384,-5.7997,0.0,0.0,0.0,0.0,0.0,0.0,0.0,0.0,-5.1369,-5.1463,-5.1834,-5.2155,-5.2231,-5.2757,-5.3157,-5.3157,-5.2611,-5.2149,-5.202,-5.0923,-5.005,-4.9878,-5.0153,-5.0338,-5.0338,-5.0805,-5.0649,-4.9641,-4.8684,-4.7675,-4.6424,-4.5472,-4.4843,-4.461,-4.461,-4.461,-4.461,-4.461,-4.461,-4.461,-4.461,-4.461,-4.461,-4.461,-4.461,-4.461,-4.461,-4.461,-4.461,-4.461,-4.461,-4.461,-4.461,-4.461,-4.4702,-4.5341,-4.6018,-4.648,-4.5834,-4.6018,-4.6632,-4.6753,-4.6828,-4.7167,-4.9115,-4.9898,-5.0338,-5.1589,-5.2097,-5.2604,-5.3856,-5.4397,-5.4532,-5.4262,-5.46,-5.4735,-5.3721,-5.4465,-5.5243,-5.4972,-5.5344,-5.5649,-5.5344,-5.5547,-5.5681,-5.5681,-5.5074,-5.46,-5.46,-5.3957,-5.3518,-5.3518,-5.3518,-5.3517,-5.3584,-5.3651,-5.375,-5.3882,-5.3836,-5.3827,-5.3891,-5.47,-5.4952,-5.4588,-5.5097,-5.5362,-5.5336,-5.5178,-5.5821,-5.7264,-5.7244,-5.7519,-4.1025,0.0,0.0,0.0,0.0,0.0,0.0,0.0,-5.069,-5.1233,-5.1602,-5.1926,-5.2063,-5.2382,-5.2608,-5.2698,-5.2144,-5.1467,-5.079,-5.0112,-4.9435,-4.8696,-4.9138,-4.947,-4.947,-4.9955,-4.9981,-4.9171,-4.8054,-4.7087,-4.6391,-4.5215,-4.461,-4.461,-4.461,-4.461,-4.461,-4.461,-4.461,-4.461,-4.461,-4.461,-4.461,-4.461,-4.461,-4.461,-4.461,-4.461,-4.461,-4.461,-4.461,-4.461,-4.461,-4.461,-4.4702,-4.5341,-4.6018,-4.648,-4.5834,-4.6214,-4.6951,-4.6859,-4.6999,-4.757,-4.9513,-5.027,-5.071,-5.1961,-5.2672,-5.3315,-5.4329,-5.46,-5.4668,-5.4905,-5.46,-5.4093,-5.3619,-5.4262,-5.4972,-5.4972,-5.4972,-5.4972,-5.4972,-5.4972,-5.4972,-5.4972,-5.4532,-5.4228,-5.4228,-5.3788,-5.3518,-5.3518,-5.3518,-5.3518,-5.3518,-5.3584,-5.3651,-5.3717,-5.3915,-5.4078,-5.4207,-5.5513,-5.6019,-5.5716,-5.6113,-5.6479,-5.6685,-5.5815,-5.6172,-5.7593,-5.7336,-5.7483,0.0,0.0,0.0,0.0,0.0,0.0,0.0,0.0,-4.9614,-5.1194,-5.1512,-5.1697,-5.2185,-5.2306,-5.2397,-5.2653,-5.2144,-5.1467,-5.079,-5.0112,-4.9435,-4.8696,-4.8604,-4.8604,-4.8604,-4.8604,-4.8327,-4.7681,-4.7004,-4.6326,-4.5649,-4.501,-4.461,-4.461,-4.461,-4.461,-4.461,-4.461,-4.461,-4.461,-4.461,-4.461,-4.461,-4.461,-4.461,-4.461,-4.461,-4.461,-4.461,-4.461,-4.461,-4.461,-4.461,-4.4641,-4.4733,-4.5372,-4.6049,-4.6542,-4.5904,-4.6562,-4.7605,-4.7036,-4.7338,-4.8198,-4.9675,-5.0642,-5.1386,-5.2164,-5.345,-5.46,-5.4634,-5.4668,-5.4837,-5.5581,-5.4634,-5.3551,-5.3551,-5.3518,-5.3518,-5.3518,-5.3518,-5.3518,-5.3518,-5.3518,-5.3518,-5.3518,-5.3518,-5.3518,-5.3518,-5.3518,-5.3518,-5.3518,-5.3518,-5.3518,-5.3518,-5.3518,-5.3551,-5.3684,-5.3717,-5.3849,-5.4175,-5.5361,-5.6103,-5.6303,-5.6861,-5.7425,-5.7997,-5.6648,-5.6284,-5.6859,-5.7629,-5.7997,-3.9373,0.0,0.0,0.0,0.0,0.0,0.0,0.0,-4.7083,-4.9479,-4.9704,-4.9974,-5.1744,-5.217,-5.2306,-5.2397,-5.201,-5.1467,-5.079,-5.0112,-4.9435,-4.8696,-4.8604,-4.8604,-4.8604,-4.8604,-4.8543,-4.8358,-4.7711,-4.7034,-4.6357,-4.5218,-4.461,-4.461,-4.461,-4.461,-4.461,-4.461,-4.461,-4.461,-4.461,-4.461,-4.461,-4.461,-4.461,-4.461,-4.461,-4.461,-4.461,-4.461,-4.461,-4.461,-4.461,-4.4918,-4.5372,-4.608,-4.6757,-4.7299,-4.7177,-4.7397,-4.768,-4.7593,-4.8068,-4.8962,-5.0451,-5.142,-5.2266,-5.3585,-5.4262,-5.4837,-5.5919,-5.619,-5.6224,-5.6461,-5.5378,-5.4296,-5.4296,-5.389,-5.3518,-5.3518,-5.3518,-5.3518,-5.3518,-5.3518,-5.3518,-5.3518,-5.3518,-5.3518,-5.3518,-5.3518,-5.3518,-5.3518,-5.3518,-5.3518,-5.3518,-5.3518,-5.3551,-5.3551,-5.3651,-5.3816,-5.4045,-5.5302,-5.6103,-5.6303,-5.7277,-5.7821,-5.7997,-5.6624,-5.6515,-5.7666,-5.7886,-5.7997,-3.9373,0.0,0.0,0.0,0.0,0.0,-4.4945,-4.5424,-4.6052,0.0,-4.9089,-4.9313,-5.0759,-5.1076,-5.1303,-5.1667,-5.1558,-5.1203,-5.0629,-5.0199,-4.9585,-4.8686,-4.8604,-4.8604,-4.8604,-4.8604,-4.8604,-4.8604,-4.7989,-4.7188,-4.6234,-4.5157,-4.4572,-4.4458,-4.4458,-4.4419,-4.4343,-4.4419,-4.4458,-4.4458,-4.4572,-4.461,-4.461,-4.461,-4.461,-4.461,-4.461,-4.461,-4.461,-4.461,-4.461,-4.461,-4.461,-4.5003,-4.568,-4.6357,-4.7243,-4.8066,-4.7774,-4.8126,-4.8566,-4.81,-4.8396,-4.9287,-5.075,-5.1725,-5.2604,-5.416,-5.504,-5.5784,-5.6968,-5.7036,-5.6799,-5.6799,-5.5919,-5.4972,-5.4668,-5.4262,-5.3856,-5.3551,-5.3518,-5.3518,-5.3518,-5.3518,-5.3518,-5.3518,-5.3518,-5.3518,-5.3518,-5.3518,-5.3518,-5.3518,-5.3518,-5.3518,-5.3518,-5.3518,-5.3518,-5.3518,-5.3584,-5.3684,-5.3882,-5.5149,-5.5956,-5.6158,-5.7376,-5.7997,-5.7997,-5.7204,-5.7204,-5.7997,-5.7997,-5.7997,0.0,0.0,0.0,-4.1662,-4.1265,0.0,-4.5603,-4.5603,-4.5484,0.0,-4.858,-4.8655,-4.9086,-4.9221,-4.9551,-5.0318,-5.0591,-5.062,-5.0293,-5.0289,-4.9886,-4.8675,-4.8563,-4.8604,-4.8604,-4.8604,-4.8563,-4.8563,-4.7845,-4.6893,-4.5733,-4.4964,-4.4458,-4.4297,-4.4297,-4.4181,-4.3988,-4.4181,-4.4297,-4.4297,-4.4458,-4.4572,-4.461,-4.461,-4.461,-4.461,-4.461,-4.461,-4.461,-4.461,-4.461,-4.4641,-4.4664,-4.5095,-4.5811,-4.6568,-4.7668,-4.8706,-4.8155,-4.8796,-4.9689,-4.8431,-4.8549,-4.9357,-5.071,-5.1725,-5.2773,-5.4397,-5.5852,-5.707,-5.7712,-5.7408,-5.6934,-5.6934,-5.6359,-5.5649,-5.4972,-5.4769,-5.4499,-5.3788,-5.3551,-5.3518,-5.3518,-5.3518,-5.3518,-5.3518,-5.3585,-5.3619,-5.3619,-5.3619,-5.3619,-5.3619,-5.3551,-5.3518,-5.3518,-5.3518,-5.3518,-5.3518,-5.3518,-5.3551,-5.3717,-5.4999,-5.578,-5.5984,-5.7315,-5.7997,-5.7997,-5.7997,-5.7997,-5.7997,-5.7997,-5.7997,-3.9559,-3.9798,-4.0187,-4.0038,-4.0606,0.0,-4.1654,-4.1534,-4.1953,0.0,-4.4077,-4.4318,-4.6147,-4.6912,-4.7154,-4.6773,-4.8071,-4.9293,-4.9982,-5.0188,-4.9843,-4.8496,-4.848,-4.8604,-4.8604,-4.8604,-4.8521,-4.8385,-4.7088,-4.6214,-4.594,-4.4782,-4.4104,-4.4065,-4.4065,-4.4026,-4.3988,-4.4026,-4.4143,-4.4297,-4.4374,-4.4419,-4.461,-4.461,-4.461,-4.461,-4.461,-4.461,-4.461,-4.461,-4.461,-4.4671,-4.5187,-4.5803,-4.6559,-4.7887,-4.8513,-4.8814,-4.9339,-4.935,-4.9094,-4.8879,-4.9297,-4.9932,-5.0236,-5.1691,-5.3687,-5.5784,-5.7002,-5.7712,-5.7848,-5.778,-5.7679,-5.7679,-5.7137,-5.6562,-5.6393,-5.5919,-5.5277,-5.4532,-5.3923,-5.3518,-5.3518,-5.3518,-5.3518,-5.3518,-5.4025,-5.4397,-5.4397,-5.4397,-5.4397,-5.4397,-5.3856,-5.3518,-5.3518,-5.3518,-5.3518,-5.3518,-5.3518,-5.3551,-5.3717,-5.4999,-5.578,-5.5984,-5.7315,-5.7997,-5.7997,-5.7997,-5.7997,-5.7997,-5.7997,-5.7997,-3.9553,-3.9679,-3.9918,-3.9918,-4.0157,0.0,0.0,-4.1115,-4.1354,-4.303,-4.309,-4.3189,-4.4298,-4.4779,-4.5109,-4.544,-4.6611,-4.7645,-4.8106,-4.8927,-4.9174,-4.8424,-4.8385,-4.848,-4.8563,-4.8604,-4.8521,-4.8343,-4.6884,-4.6001,-4.6001,-4.4756,-4.3949,-4.3832,-4.3832,-4.3793,-4.3645,-4.391,-4.4065,-4.4143,-4.4343,-4.4496,-4.461,-4.461,-4.4425,-4.4148,-4.4456,-4.4425,-4.4148,-4.4787,-4.5095,-4.5126,-4.5464,-4.6447,-4.7809,-4.8551,-4.926,-4.9908,-4.9974,-4.9759,-4.9453,-4.9097,-4.9255,-4.9627,-4.9965,-5.1928,-5.4499,-5.6731,-5.7611,-5.7881,-5.7881,-5.7881,-5.7881,-5.7881,-5.7611,-5.7239,-5.6867,-5.6528,-5.6055,-5.5277,-5.4871,-5.4499,-5.4126,-5.4059,-5.416,-5.4532,-5.4905,-5.5141,-5.5141,-5.5141,-5.5006,-5.4634,-5.4262,-5.389,-5.3551,-5.3518,-5.3518,-5.3518,-5.3518,-5.3517,-5.3618,-5.4878,-5.6004,-5.6876,-5.7594,-5.7997,-5.7997,-5.7997,-5.7997,-5.7997,-5.7997,-5.7997,-4.0008,-3.9941,-4.0217,-4.0367,-4.0277,-4.0457,0.0,0.0,0.0,-4.2432,-4.2611,-4.2542,0.0,0.0,0.0,-4.4018,0.0,0.0,0.0,-4.6689,0.0,-4.7768,-4.8107,-4.8324,-4.8285,-4.8131,-4.8048,-4.7962,-4.6507,-4.5657,-4.5657,-4.4628,-4.3914,-4.3636,-4.3596,-4.3518,-4.329,-4.3675,-4.391,-4.3949,-4.4335,-4.4496,-4.4534,-4.4449,-4.4209,-4.384,-4.424,-4.4271,-4.4086,-4.5126,-4.5741,-4.6027,-4.6152,-4.7239,-4.8871,-4.9305,-5.0075,-5.085,-5.0389,-5.0057,-4.9796,-4.9187,-4.9187,-4.9593,-5.0473,-5.2638,-5.5243,-5.7306,-5.7881,-5.7881,-5.7881,-5.7881,-5.7881,-5.7881,-5.7881,-5.7712,-5.7137,-5.7002,-5.6799,-5.6055,-5.5919,-5.5683,-5.4938,-5.4803,-5.5006,-5.5615,-5.5817,-5.5919,-5.5919,-5.5818,-5.548,-5.4871,-5.4566,-5.416,-5.3551,-5.3618,-5.3651,-5.3651,-5.3783,-5.3849,-5.3849,-5.5034,-5.634,-5.775,-5.7904,-5.7973,-5.7997,-5.7997,-5.7997,-5.7997,-5.7997,-5.7997,-4.1504,-4.2013,-4.2453,-4.0816,-4.1654,-4.2303,-4.0247,0.0,-4.0397,-3.9978,0.0,-3.9822,0.0,0.0,0.0,0.0,0.0,0.0,-4.286,-4.3449,-4.4438,-4.5837,-4.7361,-4.8015,-4.7269,-4.6455,-4.6241,-4.6743,-4.5361,-4.4518,-4.4518,-4.4368,-4.3968,-4.3359,-4.3329,-4.3329,-4.329,-4.3329,-4.3518,-4.3714,-4.3949,-4.4181,-4.4343,-4.3881,-4.4024,-4.4486,-4.3963,-4.4363,-4.5372,-4.5526,-4.6296,-4.7454,-4.8185,-4.8597,-4.905,-5.112,-5.1138,-5.0221,-5.0859,-5.024,-4.912,-4.9018,-4.9898,-5.1219,-5.2672,-5.4262,-5.5919,-5.7442,-5.7881,-5.7881,-5.7881,-5.7881,-5.7881,-5.7881,-5.7881,-5.7881,-5.778,-5.778,-5.7543,-5.6833,-5.6697,-5.6461,-5.5716,-5.5581,-5.5615,-5.5716,-5.6258,-5.6697,-5.6697,-5.6122,-5.5683,-5.5546,-5.4431,-5.3585,-5.3518,-5.4011,-5.4296,-5.4296,-5.4861,-5.5194,-5.5194,-5.5971,-5.6809,-5.7786,-5.7834,-5.7881,-5.7997,-5.7997,-5.7997,-5.7997,-5.7997,-5.7997,-4.1662,-4.2073,-4.2491,-4.1265,-4.1594,-4.1803,-4.0337,-3.9918,-3.9738,-3.9433,0.0,0.0,0.0,0.0,0.0,0.0,-4.0995,0.0,0.0,0.0,-4.3768,-4.4971,0.0,-4.5688,-4.5849,-4.5768,-4.5826,-4.6067,-4.4618,-4.4077,-4.4855,-4.4167,-4.3768,-4.3898,-4.3499,-4.329,-4.329,-4.3478,-4.3636,-4.3871,-4.4065,-4.4297,-4.4458,-4.3895,-4.3963,-4.4579,-4.3901,-4.4363,-4.5618,-4.6018,-4.6726,-4.7741,-4.9469,-5.0127,-5.0273,-5.1234,-5.1241,-5.0759,-5.1088,-5.0236,-4.9018,-4.9018,-4.9999,-5.1488,-5.3044,-5.4532,-5.6021,-5.7476,-5.7881,-5.7881,-5.7881,-5.7881,-5.7881,-5.7881,-5.7881,-5.7881,-5.7881,-5.7881,-5.7814,-5.7476,-5.7442,-5.734,-5.7036,-5.663,-5.6494,-5.69,-5.7239,-5.7442,-5.7442,-5.7171,-5.6664,-5.5818,-5.5175,-5.4431,-5.3585,-5.4042,-5.4391,-5.4391,-5.5009,-5.5578,-5.5922,-5.6276,-5.6845,-5.7534,-5.7739,-5.7834,-5.7881,-5.7973,-5.7997,-5.7997,-5.7997,-5.7997,-4.2192,-4.2521,-4.292,-4.1722,-4.1542,-4.1422,-4.0367,-4.0038,-3.9918,-3.9738,-3.9978,0.0,0.0,0.0,0.0,0.0,0.0,-4.1115,0.0,-4.1773,0.0,0.0,0.0,0.0,-4.5092,-4.4961,-4.4961,-4.5281,-4.3888,-4.3569,-4.4706,-4.4018,-4.3708,-4.4047,-4.3529,-4.329,-4.329,-4.3518,-4.3675,-4.3832,-4.4104,-4.4266,-4.4419,-4.4042,-4.424,-4.4856,-4.4363,-4.488,-4.6172,-4.6665,-4.741,-4.8382,-5.0115,-5.1032,-5.1443,-5.1663,-5.1521,-5.1185,-5.1185,-5.0236,-4.9052,-4.9255,-5.0439,-5.2097,-5.3416,-5.4972,-5.6528,-5.7577,-5.7881,-5.7881,-5.7881,-5.7881,-5.7881,-5.7881,-5.7881,-5.7881,-5.7881,-5.7881,-5.7881,-5.7881,-5.7881,-5.7881,-5.7881,-5.7442,-5.7273,-5.7814,-5.7881,-5.7881,-5.7881,-5.7543,-5.69,-5.5818,-5.5344,-5.4668,-5.3585,-5.4203,-5.4826,-5.5154,-5.5629,-5.6118,-5.6528,-5.6635,-5.6897,-5.7388,-5.7607,-5.775,-5.781,-5.795,-5.7997,-5.7997,-5.7997,-5.7997,-4.3768,-4.4227,-4.4586,-4.2013,-4.1901,-4.1871,-3.9888,-4.0427,-4.1145,-4.0487,-4.1422,-4.2111,-4.1482,-4.1324,0.0,0.0,0.0,0.0,0.0,0.0,0.0,0.0,0.0,0.0,0.0,-4.3728,-4.301,-4.4257,-4.312,-4.2671,-4.3319,-4.3958,-4.3988,-4.3349,-4.329,-4.329,-4.329,-4.329,-4.3329,-4.3329,-4.3793,-4.4026,-4.4026,-4.4419,-4.491,-4.5557,-4.5526,-4.6296,-4.7558,-4.7558,-4.8484,-4.9837,-4.9908,-5.0914,-5.2343,-5.3144,-5.2503,-5.1185,-5.1185,-5.0236,-4.912,-4.983,-5.1589,-5.3585,-5.4329,-5.6089,-5.7814,-5.7881,-5.7881,-5.7881,-5.7881,-5.7881,-5.7881,-5.7881,-5.7881,-5.7881,-5.7881,-5.7881,-5.7881,-5.7881,-5.7881,-5.7881,-5.7881,-5.7881,-5.7848,-5.7881,-5.7881,-5.7881,-5.7881,-5.6664,-5.5749,-5.5716,-5.4431,-5.3551,-5.3518,-5.4645,-5.5858,-5.7036,-5.7138,-5.7138,-5.7163,-5.7163,-5.7239,-5.7388,-5.7534,-5.7655,-5.781,-5.795,-5.7997,-5.7997,-5.7997,-5.7997,-4.4825,-4.5304,-4.5454,-4.324,-4.2851,-4.2491,-4.0516,-4.0756,-4.1205,-4.0546,-4.1482,-4.2201,-4.1542,-4.1422,0.0,0.0,0.0,0.0,0.0,0.0,0.0,0.0,0.0,0.0,0.0,0.0,-4.3,-4.303,-4.265,-4.289,-4.3928,-4.3738,-4.3958,-4.4616,-4.3738,-4.3499,-4.3947,-4.3499,-4.3369,-4.3557,-4.3714,-4.4113,-4.4664,-4.448,-4.5239,-4.668,-4.5948,-4.6603,-4.8276,-4.8386,-4.9001,-4.9986,-5.1065,-5.1806,-5.2277,-5.2024,-5.1598,-5.105,-5.0101,-4.9729,-4.9763,-4.9999,-5.1623,-5.3653,-5.4363,-5.5784,-5.7273,-5.7746,-5.7881,-5.7881,-5.7881,-5.7881,-5.7881,-5.7881,-5.7881,-5.7881,-5.7881,-5.7881,-5.7881,-5.7881,-5.7881,-5.7881,-5.7881,-5.7881,-5.7881,-5.7881,-5.7881,-5.7881,-5.7881,-5.7036,-5.6258,-5.5749,-5.4837,-5.4025,-5.3551,-5.4645,-5.5915,-5.7112,-5.7188,-5.7188,-5.7188,-5.7188,-5.7213,-5.7264,-5.7388,-5.7486,-5.7534,-5.7786,-5.7881,-5.7881,-5.7973,-5.7997,-4.5424,-4.5813,-4.5861,-4.4097,-4.3648,-4.32,-4.1504,-4.1773,-4.2252,-4.1594,-4.2312,-4.3,-4.2791,-4.2192,0.0,0.0,0.0,0.0,0.0,-3.9373,0.0,0.0,0.0,0.0,0.0,0.0,-4.2402,-4.2671,-4.2321,0.0,0.0,-4.3738,-4.4077,-4.4915,-4.4347,-4.4107,-4.4317,-4.3858,-4.3609,-4.3557,-4.3877,-4.4327,-4.4879,-4.5218,-4.607,-4.7303,-4.6862,-4.7565,-4.9075,-4.9166,-4.9815,-5.0876,-5.1878,-5.2283,-5.2228,-5.1728,-5.1229,-5.0676,-4.9729,-4.9695,-5.0236,-5.1048,-5.2469,-5.4093,-5.5074,-5.6224,-5.7273,-5.7746,-5.7881,-5.7881,-5.7881,-5.7881,-5.7881,-5.7881,-5.7881,-5.7881,-5.7881,-5.7881,-5.7881,-5.7881,-5.7881,-5.7881,-5.7881,-5.7881,-5.7881,-5.7881,-5.7881,-5.7881,-5.7881,-5.7036,-5.6258,-5.5749,-5.4803,-5.4194,-5.4177,-5.4922,-5.5915,-5.7112,-5.7188,-5.7188,-5.7188,-5.7188,-5.7188,-5.7188,-5.7313,-5.7388,-5.7388,-5.7655,-5.781,-5.781,-5.7904,-5.795]},{"header":{"parameterUnit":"m.s-1","parameterCategory":1,"la1":30.6,"la2":29.2853,"lo1":-89.7004,"lo2":-87.6739,"dy":0.0162,"dx":0.0183,"nx":112,"ny":82,"refTime":"2025-03-15T18:00:00:Z","depth":0,"parameterNumber":3,"parameterNumberName":"V-component_of_WINDS"},"data":[0.0,0.0,0.0,0.0,0.0,0.0,0.0,0.0,0.0,0.0,0.0,0.0,0.0,0.0,0.0,0.0,0.0,0.0,0.0,0.0,0.0,0.0,0.0,0.0,0.0,0.0,0.0,0.0,0.0,0.0,0.0,0.0,0.0,0.0,0.0,0.0,0.0,0.0,0.0,0.0,0.0,0.0,0.0,0.0,0.0,0.0,0.0,0.0,0.0,0.0,0.0,0.0,0.0,0.0,0.0,0.0,0.0,0.0,0.0,0.0,0.0,0.0,0.0,0.0,0.0,0.0,0.0,0.0,0.0,0.0,0.0,0.0,0.0,0.0,0.0,0.0,0.0,0.0,0.0,0.0,0.0,0.0,0.0,0.0,0.0,0.0,0.0,0.0,0.0,0.0,-2.939,-2.8216,-2.8828,-2.9467,-2.9909,-3.0793,-3.0626,-2.9085,0.0,0.0,0.0,0.0,0.0,0.0,0.0,0.0,0.0,0.0,0.0,0.0,0.0,0.0,0.0,0.0,0.0,0.0,0.0,0.0,0.0,0.0,0.0,0.0,0.0,0.0,0.0,0.0,0.0,0.0,0.0,0.0,0.0,0.0,0.0,0.0,0.0,0.0,0.0,0.0,0.0,0.0,0.0,0.0,0.0,0.0,0.0,0.0,0.0,0.0,0.0,0.0,0.0,0.0,0.0,0.0,0.0,0.0,0.0,0.0,0.0,0.0,0.0,0.0,0.0,0.0,0.0,0.0,0.0,0.0,0.0,0.0,0.0,0.0,0.0,0.0,0.0,0.0,0.0,0.0,0.0,0.0,0.0,0.0,0.0,0.0,0.0,0.0,0.0,0.0,0.0,0.0,0.0,0.0,0.0,0.0,0.0,0.0,0.0,0.0,0.0,0.0,0.0,0.0,-2.8842,-3.0629,-2.9895,-2.9822,-3.1063,-3.0975,-3.0332,-2.9067,0.0,0.0,0.0,0.0,0.0,0.0,0.0,0.0,0.0,0.0,0.0,0.0,0.0,0.0,0.0,0.0,0.0,0.0,0.0,0.0,0.0,0.0,0.0,0.0,0.0,0.0,0.0,0.0,0.0,0.0,0.0,0.0,0.0,0.0,0.0,0.0,0.0,0.0,0.0,0.0,0.0,0.0,0.0,0.0,0.0,0.0,0.0,0.0,0.0,0.0,0.0,0.0,0.0,0.0,0.0,0.0,0.0,0.0,0.0,0.0,0.0,0.0,0.0,0.0,0.0,0.0,0.0,0.0,0.0,0.0,0.0,0.0,0.0,0.0,0.0,0.0,0.0,0.0,0.0,0.0,0.0,0.0,0.0,0.0,0.0,0.0,0.0,0.0,0.0,0.0,0.0,0.0,0.0,0.0,0.0,0.0,0.0,0.0,0.0,0.0,0.0,0.0,0.0,-2.8612,-2.9177,-3.1157,-3.0843,-3.0714,-3.1377,-3.1212,-3.0497,-2.9067,-2.8407,0.0,0.0,0.0,0.0,0.0,0.0,0.0,0.0,0.0,0.0,0.0,0.0,0.0,0.0,0.0,0.0,0.0,0.0,0.0,0.0,0.0,0.0,0.0,0.0,0.0,0.0,0.0,0.0,0.0,0.0,0.0,0.0,0.0,0.0,0.0,0.0,0.0,0.0,0.0,0.0,0.0,0.0,0.0,0.0,0.0,0.0,0.0,0.0,0.0,0.0,0.0,0.0,0.0,0.0,0.0,0.0,0.0,0.0,0.0,0.0,0.0,0.0,0.0,0.0,0.0,0.0,0.0,0.0,0.0,0.0,0.0,0.0,0.0,0.0,0.0,0.0,0.0,0.0,0.0,0.0,0.0,0.0,0.0,0.0,0.0,0.0,0.0,0.0,0.0,0.0,0.0,0.0,0.0,0.0,0.0,0.0,0.0,0.0,0.0,0.0,0.0,0.0,-2.9379,-3.002,-3.1249,-3.1377,-3.1377,-3.1377,-3.1121,-3.0351,-2.8938,-2.795,0.0,0.0,0.0,0.0,0.0,0.0,0.0,0.0,0.0,0.0,0.0,0.0,0.0,0.0,0.0,0.0,0.0,0.0,0.0,0.0,0.0,0.0,0.0,0.0,0.0,0.0,0.0,0.0,0.0,0.0,0.0,0.0,0.0,0.0,0.0,0.0,0.0,0.0,0.0,0.0,0.0,0.0,0.0,0.0,0.0,0.0,0.0,0.0,0.0,0.0,0.0,0.0,0.0,0.0,0.0,0.0,0.0,0.0,0.0,0.0,0.0,0.0,0.0,0.0,0.0,0.0,0.0,0.0,0.0,0.0,0.0,0.0,0.0,0.0,0.0,0.0,0.0,0.0,0.0,0.0,0.0,0.0,0.0,0.0,0.0,0.0,0.0,0.0,0.0,0.0,0.0,0.0,0.0,0.0,0.0,0.0,0.0,0.0,0.0,0.0,0.0,0.0,-2.9837,-3.1249,-3.1359,-3.1377,-3.1377,-3.1377,-3.0351,-2.9342,-2.8498,-2.7013,0.0,0.0,0.0,0.0,0.0,0.0,0.0,0.0,0.0,0.0,0.0,0.0,0.0,0.0,0.0,0.0,0.0,0.0,0.0,0.0,0.0,0.0,0.0,0.0,0.0,0.0,0.0,0.0,0.0,0.0,0.0,0.0,0.0,0.0,0.0,0.0,0.0,0.0,0.0,0.0,0.0,0.0,0.0,0.0,0.0,0.0,0.0,0.0,0.0,0.0,0.0,0.0,0.0,0.0,0.0,0.0,0.0,0.0,0.0,0.0,0.0,0.0,0.0,0.0,0.0,0.0,0.0,0.0,0.0,0.0,0.0,0.0,0.0,0.0,0.0,0.0,0.0,0.0,0.0,0.0,0.0,0.0,0.0,0.0,0.0,0.0,0.0,0.0,0.0,0.0,0.0,0.0,0.0,0.0,0.0,0.0,0.0,0.0,0.0,0.0,0.0,0.0,-2.9214,-3.0534,-3.1304,-3.1377,-3.1377,-3.1377,-3.0736,-2.9782,-2.848,0.0,0.0,0.0,0.0,0.0,0.0,0.0,0.0,0.0,0.0,0.0,0.0,0.0,0.0,0.0,0.0,0.0,0.0,0.0,0.0,0.0,0.0,0.0,0.0,0.0,0.0,0.0,0.0,0.0,0.0,0.0,0.0,0.0,0.0,0.0,0.0,0.0,0.0,0.0,0.0,0.0,0.0,0.0,0.0,0.0,0.0,0.0,0.0,0.0,0.0,0.0,0.0,0.0,0.0,0.0,0.0,0.0,0.0,0.0,0.0,0.0,0.0,0.0,0.0,0.0,0.0,0.0,0.0,0.0,0.0,0.0,0.0,0.0,0.0,0.0,0.0,0.0,0.0,0.0,0.0,0.0,0.0,0.0,0.0,0.0,0.0,0.0,0.0,0.0,0.0,0.0,0.0,0.0,0.0,0.0,0.0,0.0,0.0,0.0,0.0,0.0,0.0,-2.7711,-2.9218,-3.0461,-3.1286,-3.1377,-3.1377,-3.1377,-3.0662,-2.9635,-2.8278,0.0,0.0,0.0,0.0,0.0,0.0,0.0,0.0,0.0,0.0,0.0,0.0,0.0,0.0,0.0,0.0,0.0,0.0,0.0,0.0,0.0,0.0,0.0,0.0,0.0,0.0,0.0,0.0,0.0,0.0,0.0,0.0,0.0,0.0,0.0,0.0,0.0,0.0,0.0,0.0,0.0,0.0,0.0,0.0,0.0,0.0,0.0,0.0,0.0,0.0,0.0,0.0,0.0,0.0,0.0,0.0,0.0,0.0,0.0,0.0,0.0,0.0,0.0,0.0,0.0,0.0,0.0,0.0,0.0,0.0,0.0,0.0,0.0,0.0,0.0,0.0,0.0,0.0,0.0,0.0,0.0,0.0,0.0,0.0,0.0,0.0,0.0,0.0,0.0,0.0,0.0,0.0,0.0,0.0,0.0,0.0,0.0,0.0,0.0,0.0,0.0,0.0,-2.7822,-2.9874,-3.1377,-3.1377,-3.1377,-3.1377,-3.1377,-2.991,-2.8645,0.0,0.0,0.0,0.0,0.0,0.0,0.0,0.0,0.0,0.0,0.0,0.0,0.0,0.0,0.0,0.0,0.0,0.0,0.0,0.0,0.0,0.0,0.0,0.0,0.0,0.0,0.0,0.0,0.0,0.0,0.0,0.0,0.0,0.0,0.0,0.0,0.0,0.0,0.0,0.0,0.0,0.0,0.0,0.0,0.0,0.0,0.0,0.0,0.0,0.0,0.0,0.0,0.0,0.0,0.0,0.0,0.0,0.0,0.0,0.0,0.0,0.0,0.0,0.0,0.0,0.0,0.0,0.0,0.0,0.0,0.0,0.0,0.0,0.0,0.0,0.0,0.0,0.0,0.0,0.0,0.0,0.0,0.0,0.0,0.0,0.0,0.0,0.0,0.0,0.0,0.0,0.0,0.0,0.0,0.0,0.0,0.0,0.0,0.0,0.0,0.0,0.0,0.0,-2.7785,-2.9635,-3.1066,-3.1341,-3.1377,-3.1267,-3.0992,-3.0002,-2.881,-2.7435,0.0,0.0,0.0,0.0,0.0,0.0,0.0,0.0,0.0,0.0,0.0,0.0,0.0,0.0,0.0,0.0,0.0,0.0,0.0,0.0,0.0,0.0,0.0,0.0,0.0,0.0,0.0,0.0,0.0,0.0,0.0,0.0,0.0,0.0,0.0,0.0,0.0,0.0,0.0,0.0,0.0,0.0,0.0,0.0,0.0,0.0,0.0,0.0,0.0,0.0,0.0,0.0,0.0,0.0,0.0,0.0,0.0,0.0,0.0,0.0,0.0,0.0,0.0,0.0,0.0,0.0,0.0,0.0,0.0,0.0,0.0,0.0,0.0,0.0,0.0,0.0,0.0,0.0,0.0,0.0,0.0,0.0,0.0,0.0,0.0,0.0,0.0,0.0,0.0,0.0,0.0,0.0,0.0,0.0,0.0,0.0,0.0,0.0,0.0,0.0,0.0,0.0,-2.7767,-2.9544,-3.0937,-3.1341,-3.1231,-3.1047,-3.0809,-2.9892,-2.8718,-2.727,0.0,0.0,0.0,0.0,0.0,0.0,0.0,0.0,0.0,0.0,0.0,0.0,0.0,0.0,0.0,0.0,0.0,0.0,0.0,0.0,0.0,0.0,0.0,0.0,0.0,0.0,0.0,0.0,0.0,0.0,0.0,0.0,0.0,0.0,0.0,0.0,0.0,0.0,0.0,0.0,0.0,0.0,0.0,0.0,0.0,0.0,0.0,0.0,0.0,0.0,0.0,0.0,0.0,0.0,0.0,0.0,0.0,0.0,0.0,0.0,0.0,0.0,0.0,0.0,0.0,0.0,0.0,0.0,0.0,0.0,0.0,0.0,0.0,0.0,0.0,0.0,0.0,0.0,0.0,0.0,0.0,0.0,0.0,0.0,0.0,0.0,0.0,0.0,0.0,0.0,0.0,0.0,0.0,0.0,0.0,0.0,0.0,0.0,0.0,0.0,0.0,0.0,-2.7767,-2.9507,-3.0882,-3.1286,-3.1011,-3.0754,-3.0681,-2.9599,-2.8407,-2.7196,0.0,0.0,0.0,0.0,0.0,0.0,0.0,0.0,0.0,0.0,0.0,0.0,0.0,0.0,0.0,0.0,0.0,0.0,0.0,0.0,0.0,0.0,0.0,0.0,0.0,0.0,0.0,0.0,0.0,0.0,0.0,0.0,0.0,0.0,0.0,0.0,0.0,0.0,0.0,0.0,0.0,0.0,0.0,0.0,0.0,0.0,0.0,0.0,0.0,0.0,0.0,0.0,0.0,0.0,0.0,0.0,0.0,0.0,0.0,0.0,-2.5861,-2.5907,0.0,0.0,0.0,0.0,0.0,0.0,0.0,0.0,0.0,0.0,0.0,0.0,0.0,0.0,0.0,0.0,0.0,0.0,0.0,0.0,0.0,0.0,0.0,0.0,0.0,0.0,0.0,0.0,0.0,0.0,0.0,0.0,0.0,0.0,0.0,0.0,0.0,0.0,0.0,0.0,-2.773,-2.9269,-3.0479,-3.0882,-3.0846,-3.0534,-2.9892,-2.903,-2.8003,-2.6793,-2.5323,0.0,0.0,0.0,0.0,0.0,0.0,0.0,0.0,0.0,0.0,0.0,0.0,0.0,0.0,0.0,0.0,0.0,0.0,0.0,0.0,0.0,0.0,0.0,0.0,0.0,0.0,0.0,0.0,0.0,0.0,0.0,0.0,0.0,0.0,0.0,0.0,0.0,0.0,0.0,0.0,0.0,0.0,0.0,0.0,0.0,0.0,0.0,0.0,0.0,0.0,0.0,0.0,0.0,0.0,0.0,0.0,0.0,0.0,0.0,-2.5533,-2.6354,0.0,0.0,0.0,0.0,0.0,0.0,0.0,0.0,0.0,0.0,0.0,0.0,0.0,0.0,0.0,0.0,0.0,0.0,0.0,0.0,0.0,0.0,0.0,0.0,0.0,0.0,0.0,0.0,0.0,0.0,0.0,0.0,0.0,0.0,0.0,0.0,0.0,0.0,0.0,0.0,-2.7398,-2.8902,-3.0057,-3.0461,-3.0332,-3.0039,-2.9678,-2.8663,-2.7746,-2.6921,-2.5396,0.0,0.0,0.0,0.0,0.0,0.0,0.0,0.0,0.0,0.0,0.0,0.0,0.0,0.0,0.0,0.0,0.0,0.0,0.0,0.0,0.0,0.0,0.0,0.0,0.0,0.0,0.0,0.0,0.0,0.0,0.0,0.0,0.0,0.0,0.0,0.0,0.0,0.0,0.0,0.0,0.0,0.0,0.0,0.0,0.0,0.0,0.0,0.0,0.0,0.0,0.0,0.0,0.0,-2.0628,-2.0913,-2.1638,-2.2826,-2.4158,-2.5636,-2.5759,-2.718,-2.9355,-2.7575,0.0,0.0,0.0,0.0,0.0,0.0,0.0,0.0,0.0,0.0,0.0,0.0,0.0,0.0,0.0,0.0,0.0,0.0,0.0,0.0,0.0,0.0,-2.9082,-2.9241,-2.9531,-2.9277,-2.7363,0.0,0.0,0.0,0.0,0.0,0.0,0.0,0.0,0.0,0.0,0.0,-2.7123,-2.8572,-2.9709,-3.0057,-2.9727,-2.9452,-2.9379,-2.8373,-2.749,-2.7105,-2.5637,-2.4643,0.0,0.0,0.0,0.0,0.0,0.0,0.0,0.0,0.0,0.0,0.0,0.0,0.0,0.0,0.0,0.0,0.0,0.0,0.0,0.0,0.0,0.0,0.0,0.0,0.0,0.0,0.0,0.0,0.0,0.0,0.0,0.0,-3.3292,-3.2975,0.0,0.0,0.0,0.0,0.0,0.0,0.0,0.0,0.0,0.0,0.0,0.0,0.0,-2.0762,-2.0935,-2.1189,-2.1427,-2.1507,-2.1657,-2.2442,-2.3616,-2.381,-2.5494,-2.8239,-2.8239,0.0,-2.9048,-2.876,0.0,0.0,0.0,0.0,0.0,0.0,0.0,0.0,0.0,0.0,0.0,0.0,0.0,0.0,0.0,0.0,0.0,0.0,0.0,0.0,0.0,0.0,-3.1144,-3.0742,-3.0684,-3.043,-2.9375,-2.8359,-2.75,-2.6953,-2.6388,-2.5791,0.0,0.0,0.0,0.0,0.0,0.0,-2.7123,-2.8572,-2.9599,-2.9654,-2.9305,-2.892,-2.8572,-2.7746,-2.7086,-2.6683,-2.5472,-2.4643,-2.422,-2.3026,0.0,0.0,0.0,0.0,0.0,0.0,0.0,0.0,0.0,0.0,0.0,0.0,0.0,0.0,0.0,0.0,0.0,0.0,0.0,0.0,0.0,0.0,0.0,0.0,0.0,0.0,0.0,0.0,0.0,-3.3228,-3.2961,-3.2604,-3.2125,-3.1502,0.0,0.0,0.0,0.0,0.0,0.0,0.0,0.0,0.0,-2.1109,-2.1149,-2.1229,-2.1363,-2.1643,-2.1884,-2.2044,-2.2164,-2.2645,-2.3412,-2.4199,-2.5336,-2.665,-2.7441,-2.8348,-2.9216,-2.9531,-2.9177,-2.8407,0.0,0.0,0.0,0.0,-2.771,-2.7893,-2.8168,-2.826,-2.8223,-2.7948,0.0,0.0,0.0,0.0,0.0,0.0,0.0,-2.7845,-2.8689,-2.996,-3.1095,-3.1281,-3.1482,-3.1445,-3.0801,-2.9824,-2.875,-2.7598,-2.7513,-2.713,-2.5572,-2.5182,0.0,0.0,0.0,-2.6738,-2.7123,-2.8388,-2.9159,-2.8938,-2.8755,-2.848,-2.8077,-2.7508,-2.7105,-2.694,-2.5784,-2.5084,-2.49,-2.3657,-2.2657,0.0,0.0,0.0,0.0,0.0,0.0,0.0,0.0,0.0,0.0,0.0,0.0,0.0,0.0,0.0,0.0,0.0,0.0,0.0,0.0,0.0,0.0,0.0,0.0,0.0,0.0,0.0,0.0,-3.3102,-3.2694,-3.221,-3.1766,-3.0939,0.0,0.0,0.0,0.0,0.0,0.0,-2.1464,-2.147,-2.1523,-2.1443,-2.1657,-2.1882,-2.1949,-2.2098,-2.2311,-2.2539,-2.2539,-2.2645,-2.2928,-2.4006,-2.467,-2.5075,-2.6121,-2.7387,-2.8821,-2.9535,-2.9621,-2.925,-2.8847,-2.8443,-2.8113,-2.8425,-2.8608,-2.8773,-2.936,-2.9562,-2.9567,-2.9122,-2.859,-2.7932,-2.6811,0.0,0.0,0.0,0.0,-2.8008,-2.9409,-3.0366,-3.1066,-3.1635,-3.2002,-3.2051,-3.1621,-3.0918,-2.9941,-2.8437,-2.8423,-2.8052,-2.6218,-2.5743,0.0,-2.5172,-2.6023,-2.6885,-2.727,-2.8205,-2.8718,-2.8425,-2.8205,-2.7948,-2.7693,-2.7251,-2.7031,-2.7031,-2.6131,-2.5525,-2.5381,-2.439,-2.3474,-2.2602,0.0,0.0,0.0,0.0,0.0,0.0,0.0,0.0,0.0,0.0,0.0,0.0,0.0,0.0,0.0,0.0,0.0,0.0,0.0,0.0,0.0,0.0,0.0,0.0,0.0,0.0,0.0,0.0,0.0,-3.1878,-3.1821,0.0,0.0,0.0,0.0,-2.4172,-2.2669,-2.1865,-2.1924,-2.1762,-2.1804,-2.2338,-2.2365,-2.2512,-2.2861,-2.2874,-2.2887,-2.2846,-2.2846,-2.2846,-2.2928,-2.2996,-2.3734,-2.5008,-2.5075,-2.5935,-2.7288,-2.8319,-2.9302,-3.0094,-2.9672,-2.9269,-2.892,-2.8938,-2.9195,-2.9586,-2.9623,-2.9562,-2.969,-3.0424,-2.9874,-2.8773,-2.7987,-2.7416,0.0,0.0,-2.8278,-2.9204,-3.0339,-3.1151,-3.1846,-3.2195,-3.2215,-3.2051,-3.1621,-3.1172,-3.0586,-2.9648,-2.8684,-2.7684,-2.6888,0.0,-2.5838,-2.5892,-2.6664,-2.7344,-2.7748,-2.8132,-2.8407,-2.8388,-2.771,-2.7233,-2.7215,-2.6848,-2.6628,-2.6628,-2.6188,-2.5819,-2.5433,-2.4959,-2.4335,-2.3444,-2.2657,0.0,0.0,0.0,0.0,0.0,0.0,0.0,0.0,0.0,0.0,0.0,0.0,0.0,0.0,0.0,0.0,0.0,0.0,0.0,0.0,0.0,0.0,0.0,0.0,0.0,0.0,0.0,0.0,-3.1933,-3.1689,0.0,-2.869,-2.7946,-2.6616,-2.4201,-2.3636,-2.3078,-2.2325,-2.2352,-2.2485,-2.2699,-2.2699,-2.2752,-2.2928,-2.2928,-2.2928,-2.2928,-2.2928,-2.2928,-2.2928,-2.2928,-2.3201,-2.3665,-2.3665,-2.4467,-2.5786,-2.6147,-2.7475,-2.9274,-3.0093,-3.0112,-2.98,-3.0057,-3.0241,-3.0387,-3.0644,-3.0736,-3.0662,-3.0167,-2.9544,-2.8828,-2.8022,-2.7856,-2.7985,-2.8132,-2.8737,-2.9494,-2.991,-3.0525,-3.1076,-3.0955,-3.1191,-3.1302,-3.0877,-3.0879,-3.0801,-3.0488,-2.9482,-2.8339,-2.74,-2.6661,-2.612,-2.6037,-2.6444,-2.694,-2.7343,-2.7746,-2.7893,-2.7636,-2.7343,-2.7068,-2.6811,-2.6426,-2.6188,-2.6188,-2.5564,-2.5142,-2.4996,-2.4643,-2.4115,-2.3499,-2.295,-2.2144,0.0,0.0,0.0,0.0,0.0,0.0,0.0,0.0,0.0,0.0,0.0,0.0,0.0,0.0,0.0,0.0,0.0,0.0,0.0,0.0,0.0,0.0,0.0,0.0,0.0,-3.2827,-3.2617,-3.1966,-3.1356,-3.0306,-2.8355,-2.7604,-2.6174,-2.3799,-2.3785,-2.3509,-2.2633,-2.2752,-2.2928,-2.2928,-2.2928,-2.2928,-2.2928,-2.2928,-2.2928,-2.2928,-2.2928,-2.2928,-2.2928,-2.2928,-2.2928,-2.2928,-2.2928,-2.3338,-2.4175,-2.4646,-2.6033,-2.7953,-2.9496,-3.0248,-3.0424,-3.0552,-3.0681,-3.0827,-3.1084,-3.1102,-3.0827,-2.9874,-2.9397,-2.9048,-2.8447,-2.837,-2.8627,-2.8755,-2.9177,-2.9599,-2.9745,-3.023,-3.0587,-3.0176,-3.0487,-3.0713,-3.0311,-3.0509,-3.0723,-3.0587,-2.9736,-2.8893,-2.8172,-2.7349,-2.6689,-2.6569,-2.6773,-2.705,-2.7381,-2.7546,-2.7528,-2.7196,-2.7068,-2.6811,-2.6408,-2.6168,-2.5947,-2.5819,-2.5323,-2.4922,-2.4794,-2.4569,-2.417,-2.3749,-2.3169,-2.2364,-2.131,0.0,0.0,0.0,0.0,0.0,0.0,0.0,0.0,0.0,0.0,0.0,0.0,0.0,0.0,0.0,0.0,0.0,0.0,0.0,0.0,0.0,0.0,0.0,-3.2752,-3.2671,-3.2395,-3.1957,-3.0968,-2.948,-2.735,-2.6103,-2.4673,-2.3023,-2.2928,-2.2928,-2.2928,-2.2928,-2.2928,-2.2928,-2.2928,-2.2928,-2.2928,-2.2928,-2.2846,-2.2846,-2.2914,-2.2832,-2.2832,-2.2832,-2.2832,-2.2832,-2.2832,-2.2672,-2.2472,-2.3994,-2.5171,-2.6248,-2.8034,-2.9549,-3.0717,-3.0332,-3.0442,-3.0772,-3.0772,-3.0516,-3.013,-2.9709,-2.9562,-2.9489,-2.9104,-2.8975,-2.9067,-2.9452,-2.9562,-2.9654,-3.0057,-3.0414,-3.0568,-3.0158,-3.0306,-3.0433,-3.0016,-3.0157,-3.0257,-2.9853,-2.943,-2.9066,-2.9047,-2.8136,-2.7411,-2.7548,-2.7549,0.0,-2.773,-2.7398,-2.716,-2.716,-2.6811,-2.6408,-2.6039,-2.6002,-2.5819,-2.5433,-2.5396,-2.5212,-2.4776,-2.4757,-2.4624,-2.422,-2.3363,-2.251,-2.1723,0.0,0.0,0.0,0.0,0.0,0.0,0.0,0.0,0.0,0.0,0.0,0.0,0.0,0.0,0.0,0.0,0.0,0.0,0.0,0.0,0.0,-3.2258,-3.2397,-3.291,-3.2955,-3.2895,-3.2832,-3.1575,-2.9983,-2.812,-2.6375,-2.4673,-2.3023,-2.2928,-2.2928,-2.2928,-2.2928,-2.2928,-2.2928,-2.2928,-2.2928,-2.2928,-2.2645,-2.2539,-2.2539,-2.2325,-2.2231,-2.2231,-2.2231,-2.2231,-2.2231,-2.2231,-2.2178,-2.2243,-2.3614,-2.491,-2.6232,-2.7748,-2.9143,-3.0351,-3.0241,-3.0277,-3.0369,-3.0369,-3.0296,-3.013,-2.9709,-2.9562,-2.9489,-2.9104,-2.8975,-2.9012,-2.9122,-2.936,-2.9525,-2.936,-2.9586,-2.9818,-2.943,-2.9558,-2.9758,-2.9646,-2.9863,-2.9906,-2.9546,-2.9127,-2.8746,-2.8441,-2.7672,-2.7027,-2.6902,-2.6866,-2.6903,-2.6958,-2.6811,-2.6756,-2.6756,-2.6646,-2.6408,-2.6039,-2.5745,-2.5362,-2.4977,-2.4698,-2.4496,-2.4385,-2.4367,-2.433,-2.4202,-2.3363,-2.2803,0.0,0.0,0.0,0.0,0.0,0.0,0.0,0.0,0.0,0.0,0.0,0.0,0.0,0.0,0.0,0.0,0.0,0.0,0.0,0.0,0.0,0.0,-3.2415,-3.2622,-3.3181,-3.3233,-3.2936,-3.2269,-3.0891,-2.9335,-2.7509,-2.5597,-2.4067,-2.2954,-2.2928,-2.2928,-2.2928,-2.2928,-2.2928,-2.2928,-2.2928,-2.2806,-2.2672,-2.2498,-2.2352,-2.2231,-2.2071,-2.1991,-2.1991,-2.1991,-2.1991,-2.1991,-2.1991,-2.1924,-2.1934,-2.3271,-2.4532,-2.5801,0.0,0.0,0.0,0.0,-2.9837,-2.9709,-2.9874,-2.9837,-2.9654,-2.9397,-2.9324,-2.9287,-2.9048,-2.8975,-2.8975,-2.8975,-2.914,-2.9269,-2.9048,-2.9159,-2.9269,-2.903,-2.9153,-2.9331,-2.945,-2.9496,-2.935,-2.9107,-2.8747,0.0,-2.7748,-2.7375,-2.7098,-2.6791,-2.6791,-2.6736,-2.6591,-2.6591,-2.6591,-2.6591,-2.6426,-2.6205,-2.58,-2.5396,0.0,0.0,0.0,-2.4202,-2.4202,-2.4202,0.0,0.0,0.0,0.0,0.0,0.0,0.0,0.0,-2.2557,-2.2602,0.0,0.0,0.0,0.0,0.0,0.0,0.0,0.0,0.0,0.0,0.0,0.0,0.0,0.0,0.0,0.0,-3.2727,-3.2767,-3.3385,-3.318,-3.2513,-3.1167,-2.9498,-2.785,-2.6184,-2.4372,-2.3193,-2.2886,-2.2928,-2.2928,-2.2928,-2.2928,0.0,0.0,0.0,-2.2712,-2.2418,-2.2392,-2.2218,-2.1937,-2.1897,-2.1884,-2.1884,-2.1884,-2.1884,-2.1884,-2.1884,-2.1737,-2.1625,-2.3056,-2.4392,-2.5578,-2.7074,-2.8455,-2.9507,-2.9507,-2.9287,-2.903,-2.9379,0.0,0.0,-2.8975,-2.8975,-2.8975,-2.8975,-2.8975,-2.8975,-2.8975,-2.8975,-2.8975,-2.8975,-2.8975,-2.8975,-2.8975,-2.8957,-2.9039,-2.9316,-2.8981,-2.8629,-2.8559,-2.8256,-2.7768,-2.7064,-2.7152,-2.726,-2.6989,-2.6935,-2.6899,-2.6646,-2.6591,-2.6573,-2.6518,-2.6188,0.0,-2.5396,-2.4977,-2.4661,-2.4238,-2.4202,-2.4202,-2.4202,-2.4202,-2.4202,-2.4202,-2.4202,-2.4202,-2.4202,-2.4202,-2.4202,-2.4183,-2.3033,-2.2895,0.0,0.0,0.0,0.0,0.0,0.0,0.0,0.0,0.0,0.0,0.0,0.0,0.0,0.0,0.0,-3.2873,-3.3208,-3.3053,-3.2028,-3.1844,-3.1686,-3.1405,-2.8798,-2.6721,-2.6044,-2.4372,-2.3193,-2.2886,-2.2928,-2.2928,-2.2928,-2.2928,-2.2928,-2.2928,-2.2928,-2.2712,-2.2418,-2.2191,-2.1924,-2.1695,-2.139,0.0,-2.1283,-2.1283,-2.1283,-2.1283,-2.1283,-2.1243,-2.138,-2.3726,-2.61,-2.8259,-2.8571,-2.8846,-2.9104,-2.9104,-2.9048,-2.8993,-2.9067,-2.9048,-2.8975,-2.8975,-2.8975,-2.8975,-2.8975,-2.8975,0.0,-2.8975,-2.8975,-2.8975,-2.8975,-2.8975,-2.8975,-2.8975,-2.8737,-2.8498,-2.8615,-2.8284,-2.7879,-2.753,-2.7456,-2.7216,-2.6755,-2.6899,-2.7008,-2.6736,-2.6682,-2.6646,-2.6591,-2.6591,-2.6463,-2.6168,-2.6058,-2.5727,-2.4959,-2.4831,-2.4661,-2.4238,-2.4202,-2.4202,-2.4202,-2.4202,-2.4202,-2.4202,-2.4202,-2.4202,-2.4202,-2.4202,-2.4202,-2.4202,-2.3963,-2.406,0.0,0.0,0.0,0.0,0.0,0.0,0.0,0.0,0.0,0.0,0.0,-3.2617,-3.3047,0.0,-3.3309,-3.3554,-3.368,-3.3198,-3.1687,-3.0808,-3.0075,-2.929,-2.7484,-2.5923,-2.5017,-2.3829,-2.3033,-2.2941,-2.2928,-2.2928,-2.2928,-2.2928,-2.2928,-2.2928,-2.2712,-2.2498,-2.2205,-2.1911,-2.1617,-2.1323,-2.1176,-2.1109,-2.1109,-2.1109,-2.1109,-2.1096,-2.0949,-2.0895,-2.107,-2.3505,-2.6025,-2.837,-2.837,-2.8627,-2.8975,-2.8975,-2.8975,-2.8975,-2.8975,-2.8847,-2.8718,-2.892,-2.8847,-2.8718,-2.892,-2.8975,-2.8975,-2.8975,-2.8975,-2.8938,-2.8737,-2.8682,-2.8645,-2.8425,-2.8223,-2.8134,-2.8249,-2.7879,-2.7473,-2.7419,-2.7124,-2.6811,-2.6628,-2.6682,-2.6736,-2.6646,-2.6591,-2.6591,-2.6591,-2.6408,-2.6188,-2.6039,-2.5653,-2.5267,-2.4812,-2.4643,-2.4422,-2.422,-2.4202,-2.4202,-2.4202,-2.4202,-2.4202,-2.4202,-2.4202,-2.4202,-2.4202,-2.4202,-2.4312,-2.4514,-2.4514,-2.4643,0.0,0.0,0.0,0.0,0.0,0.0,0.0,0.0,-3.2637,-3.2969,-3.3105,-3.3379,-3.4062,-3.3934,-3.3896,-3.4269,-3.4033,-3.3207,-3.1316,-3.0004,-2.847,-2.6561,-2.5898,-2.513,-2.391,-2.322,-2.2928,-2.2928,-2.2928,-2.2928,-2.2928,-2.2928,-2.2832,-2.2779,-2.2539,-2.2258,-2.1911,-2.1735,-2.1403,-2.1109,-2.1109,-2.1109,-2.1109,-2.1056,-2.1029,-2.1015,-2.0956,-2.1129,-2.1469,-2.3526,-2.57,-2.7822,-2.7822,-2.8226,-2.8737,-2.8737,-2.8737,-2.8737,-2.8737,-2.8535,-2.8315,-2.8645,-2.8535,-2.8333,-2.8645,-2.8737,-2.8737,-2.8737,-2.8737,-2.8682,-2.8352,-2.8278,-2.8187,-2.7895,-2.7767,-2.7768,-2.7938,-2.7567,-2.7216,-2.7363,-2.7012,-2.6627,-2.6591,-2.6646,-2.6627,-2.6591,-2.6518,-2.6463,-2.6463,-2.6096,-2.5874,-2.58,-2.5212,-2.4757,-2.4666,-2.4404,-2.4202,-2.4202,-2.4202,-2.4202,-2.4202,-2.4202,-2.4202,-2.4202,-2.4202,-2.4202,-2.4202,-2.4202,-2.4422,-2.4776,-2.4867,-2.4941,-3.4063,-3.3031,-3.2446,-3.2637,-3.2734,-3.2832,0.0,0.0,-3.3867,-3.3926,-3.4219,-3.4512,-3.4609,-3.463,-3.4605,-3.4364,-3.4277,-3.317,-2.9916,-2.9274,-2.8033,-2.4843,-2.4242,-2.3981,-2.3839,-2.322,-2.2928,-2.2928,-2.2928,-2.2928,-2.2928,-2.2928,-2.2739,-2.2472,-2.2432,-2.2151,-2.1668,-2.1628,-2.1403,-2.1109,-2.1109,-2.1109,-2.1096,-2.0842,-2.0722,-2.077,-2.1544,-2.2528,-2.376,-2.5078,-2.6469,-2.7822,-2.7822,-2.782,-2.7893,-2.7893,-2.7893,-2.7893,-2.7893,-2.7932,-2.7838,-2.795,-2.7932,-2.7895,-2.795,-2.7893,-2.7893,-2.7893,-2.7893,-2.795,-2.7914,-2.7895,-2.7877,-2.784,-2.7546,-2.7307,-2.7307,-2.7142,-2.6955,-2.6755,-2.6828,-2.6899,-2.6646,-2.6791,-2.6881,-2.6646,-2.6315,-2.6076,-2.6076,-2.5727,-2.5359,-2.4959,-2.4831,-2.4679,-2.4312,-2.4238,-2.4202,-2.4202,-2.4202,-2.4202,-2.4202,-2.4202,-2.4202,-2.4202,-2.4202,-2.4202,-2.4202,-2.4202,-2.4422,-2.4794,-2.5194,-2.5543,-3.4579,-3.3598,0.0,0.0,-3.3535,-3.3652,-3.4062,-3.4316,-3.4434,-3.4434,-3.4785,-3.5098,-3.5098,-3.52,-3.5084,0.0,-3.4533,-3.3502,-3.0926,-2.9612,-2.8073,-2.5827,-2.435,-2.3514,-2.3514,-2.3113,-2.2928,-2.2928,-2.2928,-2.2928,-2.2928,-2.2928,-2.2726,-2.2432,-2.2258,-2.1964,-2.1614,-2.139,-2.1149,-2.0855,-2.0855,-2.0762,-2.0588,-2.0468,-2.0686,-2.1216,-2.161,-2.2782,-2.4488,-2.5014,-2.5989,-2.7086,-2.7086,-2.7086,-2.7141,-2.7656,-2.7822,-2.7822,-2.7822,-2.7675,-2.7509,-2.7748,-2.7675,-2.7471,-2.7748,-2.7822,-2.7822,-2.7822,-2.7822,-2.7767,-2.7546,-2.7585,-2.7586,-2.7197,-2.7215,-2.725,-2.7141,-2.7174,-2.7206,-2.7116,-2.7171,-2.7206,-2.7062,-2.6857,-2.6582,-2.6493,-2.6345,-2.6088,-2.5708,-2.5271,-2.4918,-2.4514,-2.4459,-2.4404,-2.422,-2.4202,-2.4202,-2.4202,-2.4202,-2.4202,-2.4202,-2.4202,-2.4202,-2.4202,-2.4202,-2.4202,-2.4202,-2.4202,-2.4532,-2.5124,-2.5289,-2.5711,-3.458,0.0,0.0,-3.4004,-3.416,-3.4316,-3.4629,-3.4805,-3.4883,-3.4883,-3.5254,-3.5566,-3.5566,-3.5617,-3.547,-3.499,-3.4715,-3.3762,-3.1651,-2.9839,-2.8123,-2.6405,-2.4469,-2.33,-2.3207,-2.2993,-2.2928,-2.2928,-2.2928,-2.2928,-2.2928,-2.2779,-2.2605,-2.2311,-2.2017,-2.1724,-2.143,-2.1136,-2.0882,-2.0681,-2.0601,-2.0441,-2.0227,-2.0147,-2.0589,-2.1511,-2.1859,-2.3042,-2.4834,-2.5183,-2.5789,-2.6591,-2.6591,-2.6591,-2.6664,-2.7233,-2.7491,-2.7491,-2.7491,-2.7251,-2.7068,-2.7343,-2.7251,-2.7068,-2.7361,-2.7491,-2.7491,-2.7491,-2.7547,-2.753,-2.7253,-2.7345,-2.7436,-2.6919,-2.7116,-2.7368,-2.7152,-2.7314,-2.753,-2.7422,-2.7476,-2.7438,-2.7289,-2.6899,-2.6458,-2.6076,-2.6091,-2.5945,-2.5304,-2.4867,-2.4551,-2.4238,-2.4202,-2.4202,-2.4202,-2.4202,-2.4202,-2.4202,-2.4202,-2.4202,-2.4202,-2.4202,-2.4202,-2.4202,-2.4202,-2.4202,-2.4202,-2.4202,-2.4569,-2.5267,-2.5378,-2.5748,0.0,0.0,-3.4062,-3.4062,-3.4375,-3.4687,-3.4687,-3.5039,-3.5371,-3.5371,-3.5703,-3.5996,-3.5996,-3.6016,-3.5743,-3.499,-3.4921,-3.3927,-3.1306,-2.9691,-2.7951,-2.5717,-2.415,-2.3207,-2.2968,-2.2873,-2.2928,-2.2928,-2.2928,-2.2928,-2.2928,-2.2592,-2.2298,-2.2004,-2.1724,-2.143,-2.1122,-2.0842,-2.0681,-2.0668,-2.0388,-2.0241,-2.0167,-1.9947,-2.0344,-2.1303,-2.2425,-2.3664,-2.4889,-2.6081,-2.6591,-2.6591,-2.6591,-2.6591,-2.6591,-2.6609,-2.6628,-2.6628,-2.6628,-2.6609,-2.6609,-2.6628,-2.6609,-2.6609,-2.6628,-2.6628,-2.6628,-2.6628,-2.6828,-2.7027,-2.7008,-2.7225,-2.7387,-2.7387,-2.7368,-2.7368,-2.7368,-2.7638,-2.7799,-2.7476,-2.7638,-2.7665,-2.6964,-2.7027,-2.6721,-2.5344,-2.5434,-2.5453,-2.4896,-2.4477,-2.422,-2.4202,-2.4202,-2.4202,-2.4202,-2.4202,-2.4202,-2.4202,-2.4202,-2.4202,-2.4202,-2.4202,-2.4202,-2.4202,-2.4202,-2.4202,-2.4202,-2.4202,-2.4422,-2.4812,-2.5197,-2.5635,0.0,0.0,-3.4219,-3.4805,-3.5059,-3.5234,-3.5508,-3.5703,-3.5801,-3.5801,-3.5703,-3.5605,-3.5605,-3.5351,-3.5034,-3.4873,-3.464,-3.4127,-3.3007,-3.1166,-2.9149,-2.7165,-2.5437,-2.405,-2.301,-2.2928,-2.2928,-2.2928,-2.2928,-2.2928,-2.2928,-2.2579,-2.2285,-2.1991,-2.1775,-2.1403,-2.1109,-2.0815,-2.0575,-2.0374,-1.9893,-1.9653,-1.9712,-2.0408,-2.1334,-2.2467,-2.3648,-2.4889,-2.6026,-2.6409,-2.6591,-2.6591,-2.6591,-2.6591,-2.6591,-2.6591,-2.6591,-2.6591,-2.6591,-2.6591,-2.6591,-2.6591,-2.6591,-2.6591,-2.6591,-2.6736,-2.6899,-2.6899,-2.7043,-2.726,-2.726,-2.7476,-2.7691,-2.7422,-2.7691,-2.796,-2.7745,-2.796,-2.8043,-2.7665,-2.7713,-2.7577,-2.7046,-2.6481,-2.5793,-2.4677,-2.4603,-2.4603,-2.4422,-2.4293,-2.4202,-2.4202,-2.4202,-2.4202,-2.4202,-2.4202,-2.4202,-2.4202,-2.4202,-2.4202,-2.4202,-2.4202,-2.4202,-2.4202,-2.4202,-2.4202,-2.4202,-2.4202,-2.4422,-2.4794,-2.4922,-2.5378,-3.4644,-3.4556,-3.4687,-3.5254,-3.5508,-3.5684,-3.5957,-3.6016,-3.5976,-3.582,-3.5586,-3.5351,-3.5176,-3.4902,-3.4712,-3.4777,-3.4499,-3.4124,-3.3636,-3.1384,-2.9173,-2.7653,-2.5599,-2.387,0.0,0.0,0.0,-2.2928,-2.2928,-2.2887,-2.2712,-2.2418,-2.2124,-2.1844,-2.155,-2.1256,-2.0962,-2.0668,-2.0321,-1.992,-1.9546,-1.943,-1.943,-2.0673,-2.1858,-2.3087,-2.4278,-2.5459,-2.6591,-2.6591,-2.6591,-2.6573,-2.6426,-2.6371,-2.6353,-2.6206,-2.6151,-2.6188,-2.6481,-2.6591,-2.6591,-2.6591,-2.6591,-2.6591,-2.6591,-2.6791,-2.6989,-2.6989,-2.726,-2.7584,-2.7584,-2.7799,-2.796,-2.7745,-2.8033,-2.8228,-2.8067,-2.8058,-2.7988,-2.7767,-2.7539,-2.7305,-2.6754,-2.5824,-2.4995,-2.4387,-2.4251,-2.4202,-2.4202,-2.4202,-2.4202,-2.4202,-2.4202,-2.4202,-2.4202,-2.4202,-2.4202,-2.4202,-2.4202,-2.4202,-2.4202,-2.4202,-2.4202,-2.4202,-2.4202,-2.4202,-2.4202,-2.4202,-2.4349,-2.4606,-2.4721,-2.4918,-3.4764,-3.5008,-3.5391,-3.543,-3.5723,-3.6016,-3.6016,-3.5996,-3.5879,-3.5469,-3.5351,-3.5195,0.0,0.0,-3.4654,-3.4806,-3.448,-3.3992,-3.3329,-3.0513,-2.8173,0.0,0.0,0.0,0.0,0.0,0.0,-2.2928,-2.2928,-2.2726,-2.2432,-2.2151,-2.1857,-2.1628,-2.1256,-2.0949,-2.0681,-2.0361,-1.992,-1.943,-1.943,-1.943,-1.9533,-2.0716,-2.1957,-2.3127,-2.4356,-2.5478,-2.6518,-2.6518,-2.6518,-2.6481,-2.6131,-2.5984,-2.5929,-2.5561,-2.5414,-2.5543,-2.6261,-2.6536,-2.6554,-2.6554,-2.6573,-2.6591,-2.6591,-2.6791,-2.7043,-2.7043,-2.7476,-2.7906,-2.7906,-2.8121,-2.8301,-2.8301,-2.8301,-2.8281,-2.8262,-2.7949,-2.7708,-2.7669,-2.7246,-2.6715,-2.6056,-2.5157,-2.448,-2.448,-2.435,-2.4202,-2.4202,-2.4202,-2.4202,-2.4202,-2.4202,-2.4202,-2.4202,-2.4202,-2.4202,-2.4202,-2.4202,-2.4202,-2.4202,-2.4202,-2.4202,-2.4202,-2.4202,-2.4202,-2.4202,-2.4202,-2.4202,-2.422,-2.4505,-2.4324,-3.5761,-3.566,-3.5469,-3.5781,-3.5937,-3.6016,-3.6016,-3.5781,-3.5527,-3.541,-3.4863,-3.4375,0.0,0.0,0.0,-3.4615,-3.4155,0.0,-3.3605,-3.2369,0.0,-2.7467,0.0,-2.5196,-2.3133,-2.2928,0.0,-2.2928,-2.2928,-2.2726,-2.2432,-2.2151,-2.1857,-2.1628,-2.1056,-2.0748,-2.0681,-2.0174,-1.9733,-1.943,-1.943,-1.988,-2.0788,-2.1972,-2.3055,-2.3951,-2.5181,-2.5683,-2.5693,-2.5693,-2.5693,-2.5727,-2.5617,-2.558,-2.5561,-2.547,-2.5414,-2.5451,-2.5601,-2.5876,-2.6168,-2.6168,-2.6388,-2.6591,-2.6591,-2.6954,-2.7314,-2.7314,-2.7745,-2.8174,-2.8174,-2.8247,-2.8301,-2.8301,-2.8301,-2.8203,-2.7891,-2.7787,-2.7532,-2.6836,-2.6218,-2.5621,-2.526,-2.4801,-2.443,-2.4301,-2.4251,-2.4202,-2.4202,-2.4202,-2.4202,-2.4202,-2.4202,-2.4202,-2.4202,-2.4202,-2.4202,-2.4202,-2.4202,-2.4202,-2.4202,-2.4202,-2.4202,-2.4202,-2.4202,-2.4202,-2.4202,-2.4202,-2.4202,-2.4202,-2.3444,-2.3609,-3.6274,-3.6043,-3.5723,-3.5957,-3.5879,-3.5742,-3.5742,-3.541,-3.5039,-3.4863,-3.4414,0.0,0.0,0.0,0.0,0.0,0.0,0.0,-3.3453,-3.1697,-2.9647,0.0,-2.5987,0.0,-2.3065,-2.2928,-2.2928,-2.2928,-2.2928,-2.2672,-2.2258,-2.2071,-2.179,-2.1376,-2.0909,-2.0548,-2.0294,-1.984,-1.9811,-2.0213,-2.0213,-2.0831,-2.2013,-2.3255,-2.395,-2.425,-2.5469,-2.5782,-2.5414,-2.5414,-2.5414,-2.5414,-2.5231,-2.5106,-2.5139,-2.4955,-2.4882,-2.4882,-2.4882,-2.5157,-2.5525,-2.569,-2.5911,-2.6059,-2.6059,-2.6467,-2.6873,-2.6873,-2.7314,-2.7734,-2.7734,-2.7734,-2.7773,-2.7969,-2.8027,-2.8008,-2.7949,-2.7793,-2.7454,-2.6562,-2.5789,-2.5235,-2.4941,-2.4677,-2.443,-2.4251,-2.4202,-2.4202,-2.4202,-2.4202,-2.4202,-2.4202,-2.4202,-2.4202,-2.4202,-2.4202,-2.4202,-2.4202,-2.4202,-2.4202,-2.4202,-2.4202,-2.4202,-2.4202,-2.4202,-2.4202,-2.4202,-2.4202,-2.4202,-2.4152,-2.3038,-2.2774,-3.6475,-3.6261,-3.6084,-3.6016,-3.5703,-3.5391,-3.5391,-3.5,-3.4512,-3.4141,0.0,-3.375,-3.2949,-3.3144,-3.3418,-3.3418,0.0,-3.3028,-3.3112,-3.0146,-2.7788,-2.7153,-2.4791,-2.3133,-2.2928,-2.2928,-2.2928,-2.2928,-2.2887,-2.2565,-2.2017,-2.1991,-2.1683,-2.1015,-2.0748,-2.0334,-1.9746,-1.9668,-2.0155,-2.1174,-2.1345,-2.207,-2.3255,-2.4334,-2.4648,-2.4397,-2.5504,-2.5672,-2.5267,-2.5267,-2.5267,-2.5231,-2.4882,-2.4702,-2.4666,-2.433,-2.4202,-2.4202,-2.4202,-2.4477,-2.4849,-2.5231,-2.5378,-2.5433,-2.5488,-2.5904,-2.6318,-2.6375,-2.6808,-2.7187,-2.7187,-2.7187,-2.7285,-2.7656,-2.7806,-2.7885,-2.8144,-2.7871,-2.7363,-2.6621,-2.5866,-2.5263,-2.5017,-2.4714,-2.4399,-2.4251,-2.4202,-2.4202,-2.4202,-2.4202,-2.4202,-2.4202,-2.4202,-2.4202,-2.4202,-2.4202,-2.4202,-2.4202,-2.4202,-2.4202,-2.4202,-2.4202,-2.4202,-2.4202,-2.4202,-2.4202,-2.4202,-2.4202,-2.4202,-2.4152,-2.287,-2.1976,-3.6924,-3.6682,-3.6336,-3.6084,-3.5703,-3.5391,-3.5391,-3.4766,0.0,0.0,-3.3789,-3.3379,-3.2891,-3.3144,-3.3418,-3.3418,0.0,0.0,0.0,0.0,-2.8927,0.0,0.0,0.0,-2.2996,-2.2928,0.0,0.0,-2.2632,-2.2352,-2.2004,-2.1991,-2.1496,-2.0414,-2.0334,-2.0027,-1.9452,-2.0413,-2.1002,-2.1231,-2.2184,-2.3311,-2.4501,-2.4723,-2.4963,-2.5193,-2.542,-2.5102,-2.4422,-2.4422,-2.4422,-2.4404,-2.433,-2.4312,-2.4312,-2.4238,-2.4202,-2.4202,-2.4202,-2.4477,-2.4794,-2.4867,-2.5157,-2.5488,-2.6082,-2.6439,-2.6831,-2.7439,-2.7854,-2.8066,-2.8066,-2.8066,-2.8086,-2.8164,-2.8184,-2.8105,-2.7885,-2.7441,-2.709,-2.6934,-2.616,-2.5553,-2.5503,-2.4821,-2.4251,-2.4202,-2.4202,-2.4202,-2.4202,-2.4202,-2.4202,-2.4202,-2.4202,-2.4202,-2.4202,-2.4202,-2.4202,-2.4202,-2.4202,-2.4202,-2.4202,-2.4202,-2.4202,-2.4202,-2.4202,-2.4202,-2.4202,-2.4202,-2.4202,-2.4152,-2.2114,-2.1589,-3.7153,-3.6809,-3.6451,-3.6084,-3.5527,-3.5039,-3.5039,0.0,0.0,0.0,-3.3066,-3.2637,-3.2207,0.0,0.0,0.0,0.0,0.0,0.0,0.0,0.0,0.0,0.0,0.0,0.0,-2.4006,-2.3665,-2.2928,-2.3898,-2.3785,-2.207,-2.1697,-2.1136,-2.0207,-2.0167,-2.0245,-2.0342,-2.0888,-2.1858,-2.3087,-2.3648,-2.4556,-2.5734,-2.5734,-2.5577,-2.5414,-2.5414,-2.4955,-2.4202,-2.4202,-2.4202,-2.4202,-2.4202,-2.4202,-2.4202,-2.4202,-2.433,-2.4532,-2.4532,-2.4808,-2.5087,-2.5087,-2.5319,-2.5678,-2.5968,-2.639,-2.6793,-2.7141,-2.7408,-2.7637,-2.7637,-2.7637,-2.7676,-2.791,-2.8125,-2.8242,-2.8027,-2.7656,-2.7344,-2.7344,-2.6788,-2.6186,-2.5705,-2.5246,-2.474,-2.4288,-2.4202,-2.4202,-2.4202,-2.4202,-2.4202,-2.4202,-2.4202,-2.4202,-2.4202,-2.4202,-2.4202,-2.4202,-2.4202,-2.4202,-2.4202,-2.4202,-2.4202,-2.4202,-2.4202,-2.4202,-2.4202,-2.4202,-2.4312,-2.4482,-2.2195,-2.1502,-3.726,-3.6924,-3.6519,-3.62,-3.5418,-3.4707,-3.4707,-3.3711,0.0,0.0,-3.2461,-3.2031,-3.1601,0.0,0.0,0.0,0.0,0.0,0.0,0.0,0.0,0.0,0.0,0.0,-2.5465,-2.5465,0.0,-2.3856,-2.5423,-2.5241,-2.2487,-2.1518,-2.0967,-2.0604,-2.0591,-2.0886,-2.1574,-2.1843,-2.2918,-2.4778,-2.5055,-2.5679,-2.6591,-2.6591,-2.6151,-2.5414,-2.5414,-2.4955,-2.4202,-2.4202,-2.4202,-2.4202,-2.4202,-2.4202,-2.422,-2.4312,-2.4551,-2.4794,-2.4886,-2.5161,-2.5543,-2.5595,-2.5696,-2.5815,-2.5942,-2.6375,-2.6808,-2.6937,-2.713,-2.7285,-2.7285,-2.7285,-2.7383,-2.7715,-2.8047,-2.8301,-2.8301,-2.8027,-2.7865,-2.7865,-2.7357,-2.6743,-2.599,-2.5629,-2.5151,-2.4435,-2.4257,-2.4202,-2.4202,-2.4202,-2.4202,-2.4202,-2.4202,-2.4202,-2.4202,-2.4202,-2.4202,-2.4202,-2.4202,-2.4202,-2.4202,-2.4202,-2.4202,-2.4202,-2.4202,-2.4202,-2.4202,-2.4293,-2.4345,-2.4368,-2.2372,-2.1443,-3.758,-3.728,-3.6944,-3.6519,-3.5599,-3.4707,-3.4707,0.0,0.0,-3.2793,-3.2461,-3.2031,-3.1601,-3.1875,0.0,0.0,0.0,0.0,0.0,0.0,0.0,0.0,0.0,0.0,-2.6922,-2.6922,-2.6839,-2.6706,-2.6387,-2.5339,-2.349,-2.1905,-2.1327,-2.1841,-2.1826,-2.2156,-2.2821,-2.3927,-2.4556,-2.4834,-2.5916,-2.6482,-2.6591,-2.6591,-2.6151,-2.5414,-2.5414,-2.4955,-2.4202,-2.4202,-2.4202,-2.4202,-2.4202,-2.4202,-2.4257,-2.4643,-2.4757,-2.4831,-2.5197,-2.5635,-2.5966,-2.6231,-2.6095,-2.5904,-2.6541,-2.697,-2.7361,-2.796,-2.8184,-2.8184,-2.8184,-2.8184,-2.8184,-2.8223,-2.8262,-2.8301,-2.8301,-2.8262,-2.8242,-2.8242,-2.7468,-2.6812,-2.6721,-2.5666,-2.4826,-2.479,-2.444,-2.4202,-2.4202,-2.4202,-2.4202,-2.4202,-2.4202,-2.4202,-2.4202,-2.4202,-2.4202,-2.4202,-2.4202,-2.4202,-2.4202,-2.4202,-2.4202,-2.4202,-2.4202,-2.4202,-2.4202,-2.4587,-2.4212,-2.3152,-2.225,-2.1287,-3.7233,-3.7278,-3.722,-3.6336,-3.562,-3.491,-3.444,0.0,-3.2422,-3.2422,-3.1875,-3.1348,-3.1172,-3.1289,-3.1426,0.0,-3.1283,-3.1213,0.0,0.0,0.0,0.0,0.0,0.0,0.0,0.0,-2.8538,-2.8951,-2.6947,-2.569,-2.5633,-2.4255,-2.3397,-2.3196,-2.3181,-2.3499,-2.4055,-2.4556,-2.5183,-2.5916,-2.6354,-2.6591,-2.6591,-2.6591,-2.6151,-2.5414,-2.5414,-2.4955,-2.4202,-2.4202,-2.4202,-2.4202,-2.4202,-2.4367,-2.4606,-2.4721,-2.519,-2.5789,-2.5937,-2.6358,-2.6854,-2.6962,-2.7009,-2.7127,-2.7405,-2.7656,-2.796,-2.8242,-2.8301,-2.8301,-2.8301,-2.8301,-2.8301,-2.8301,-2.8301,-2.8301,-2.8301,-2.8301,-2.8301,-2.8301,-2.8004,-2.7526,-2.6907,-2.6342,-2.5759,-2.49,-2.49,-2.4845,-2.4606,-2.479,-2.4845,-2.4606,-2.4349,-2.4202,-2.4202,-2.4202,-2.4202,-2.4202,-2.4202,-2.4202,-2.4202,-2.4202,-2.4202,-2.4202,-2.4202,-2.433,-2.4587,-2.4702,-2.4808,-2.4738,-2.3029,-2.2065,-3.7037,-3.7233,-3.7197,-3.6296,-3.5699,-3.5066,0.0,-3.3086,-3.2229,-3.2229,-3.1484,-3.0898,-3.0898,-3.0898,-3.0996,0.0,-3.0995,-3.0834,-3.1138,0.0,0.0,0.0,0.0,-2.9637,0.0,-2.976,-2.9882,-3.0197,-2.8058,-2.6985,-2.7581,-2.6719,-2.5704,-2.4551,-2.4519,-2.477,-2.5348,-2.5348,-2.5734,-2.6591,-2.6591,-2.6591,-2.6591,-2.6591,-2.6151,-2.5414,-2.5414,-2.4955,-2.4202,-2.4202,-2.4202,-2.4202,-2.4202,-2.4509,-2.4946,-2.5057,-2.5693,-2.6517,-2.663,-2.7015,-2.7422,-2.753,-2.7691,-2.7906,-2.8014,-2.8121,-2.8301,-2.8301,-2.8301,-2.8301,-2.8301,-2.8301,-2.8301,-2.8301,-2.8301,-2.8301,-2.8301,-2.8301,-2.8301,-2.8301,-2.8228,-2.799,-2.7256,-2.6964,-2.6469,-2.5422,-2.5426,-2.5374,-2.5047,-2.5197,-2.5323,-2.4977,-2.4735,-2.4459,-2.422,-2.4202,-2.4202,-2.4202,-2.4202,-2.4202,-2.4202,-2.433,-2.4385,-2.4385,-2.4496,-2.4716,-2.4959,-2.512,-2.5086,-2.4915,-2.3316,-2.2345,-3.7115,-3.7225,-3.6811,-3.6481,-3.583,-3.5066,0.0,-3.3086,-3.2229,-3.2229,-3.1484,-3.0898,-3.0898,-3.0898,-3.0898,-3.0898,-3.125,-3.1421,-3.1115,0.0,0.0,0.0,0.0,-3.0369,-3.0754,-3.0791,-3.0626,-3.0241,-2.9819,-2.9397,-2.9012,-2.8993,-2.8002,-2.585,-2.5758,-2.6044,-2.6591,-2.6591,-2.6591,-2.6591,-2.6591,-2.6591,-2.6591,-2.6591,-2.6151,-2.5414,-2.5414,-2.4955,-2.4202,-2.4202,-2.4202,-2.4202,-2.4202,-2.459,-2.5251,-2.5629,-2.6195,-2.682,-2.7236,-2.7368,-2.7422,-2.7799,-2.7906,-2.796,-2.8228,-2.8301,-2.8301,-2.8301,-2.8301,-2.8301,-2.8301,-2.8301,-2.8301,-2.8301,-2.8301,-2.8301,-2.8301,-2.8301,-2.8301,-2.8301,-2.8067,-2.7906,-2.7906,-2.7294,-2.671,-2.6427,-2.6039,-2.5693,-2.5414,-2.5414,-2.5414,-2.5362,-2.5414,-2.5084,-2.4275,-2.4202,-2.4202,-2.4202,-2.4202,-2.4202,-2.4202,-2.4606,-2.4776,-2.4776,-2.5161,-2.5414,-2.5362,-2.58,-2.4736,-2.2434,-2.2799,-2.1729,-3.5956,-3.6181,-3.6134,-3.5255,-3.4662,-3.4113,-3.3348,-3.2441,-3.1719,-3.1719,-3.1289,-3.0898,-3.0898,-3.0898,-3.0996,-3.1269,-3.1426,0.0,0.0,0.0,0.0,0.0,-3.0919,-3.1047,0.0,0.0,-3.0332,-3.0204,-2.9562,-2.9122,-2.8993,-2.8718,-2.8141,-2.7194,-2.7176,-2.6968,-2.6591,-2.6591,-2.6591,-2.6591,-2.6591,-2.6591,-2.6591,-2.6591,-2.6151,-2.5414,-2.5414,-2.4955,-2.4202,-2.4202,-2.4202,-2.4202,-2.435,-2.469,-2.5181,-2.5816,-2.6489,-2.7118,-2.7592,-2.8368,-2.9144,-2.925,-2.9775,-3.0432,-3.0557,-2.9481,-2.8301,-2.8301,-2.8301,-2.8301,-2.8301,-2.8301,-2.8301,-2.8301,-2.8301,-2.8301,-2.8301,-2.8301,-2.8301,-2.8301,-2.8228,-2.8121,-2.7906,-2.7684,-2.7298,-2.6536,-2.6523,-2.6398,-2.5855,-2.5819,-2.5727,-2.5451,-2.5414,-2.5323,-2.5065,-2.5029,-2.5029,-2.5029,-2.5029,-2.5029,-2.5029,-2.5106,-2.5231,-2.5231,-2.5359,-2.5561,-2.5819,-2.5947,-2.4876,-2.2815,-2.2081,-2.0888,0.0,-3.5314,-3.5376,-3.4463,-3.4039,-3.3595,-3.2979,-3.2129,-3.1523,-3.1523,-3.1191,-3.0898,-3.0898,-3.0898,-3.0976,-3.123,-3.1269,0.0,0.0,0.0,0.0,-3.0615,0.0,0.0,0.0,-3.0571,-3.0204,-3.0204,-2.9434,-2.8975,-2.8975,-2.8608,-2.8205,-2.784,-2.7675,-2.7233,-2.6591,-2.6591,-2.6591,-2.6591,-2.6591,-2.6591,-2.6591,-2.6426,-2.6039,-2.5414,-2.5216,-2.4826,0.0,-2.4202,-2.4251,-2.435,-2.443,-2.4889,-2.5554,-2.6613,-2.74,-2.8093,-2.9003,-2.9828,-3.0535,-3.0535,-3.1,-3.1586,-3.1586,-3.0349,-2.89,-2.89,-2.8601,-2.8301,-2.8301,-2.8301,-2.8301,-2.8301,-2.8301,-2.8301,-2.8301,-2.8301,-2.8301,-2.8301,-2.8301,-2.8247,-2.8067,-2.8067,-2.7776,-2.6921,-2.7002,-2.695,-2.6332,-2.6241,-2.6096,-2.5858,-2.5839,-2.5839,-2.5839,-2.5546,-2.5414,-2.5414,-2.5414,-2.5414,-2.5414,-2.5561,-2.5653,-2.5653,-2.58,-2.6002,-2.6188,-2.5306,-2.4209,-2.2974,-2.1288,-2.0097,0.0,-3.4429,-3.4573,-3.4015,-3.3775,-3.3516,-3.288,-3.207,0.0,-3.1465,-3.1172,-3.0898,-3.0898,-3.0859,-3.0859,-3.0918,-3.0918,0.0,0.0,0.0,0.0,0.0,-3.0607,0.0,-3.0827,-3.0442,-3.0204,-3.0204,-2.9434,-2.8975,-2.8975,-2.859,-2.8168,-2.784,-2.7361,-2.6958,-2.6591,-2.6591,-2.6591,-2.6591,-2.6554,-2.6536,-2.6536,-2.6168,-2.5764,-2.5359,-2.4941,-2.4587,-2.4202,-2.4202,-2.435,-2.448,-2.4529,-2.5138,-2.6176,-2.7773,-2.8755,-2.9536,-3.1054,-3.1637,-3.1739,-3.179,-3.1841,-3.1841,-3.1841,-3.0949,-2.9932,-2.9932,-2.9112,-2.8301,-2.8301,-2.8301,-2.8301,-2.8301,-2.8301,-2.8301,-2.8301,-2.8301,-2.8301,-2.8301,-2.8301,-2.8301,-2.8301,-2.8301,-2.8067,-2.753,-2.7422,-2.7225,-2.67,-2.6609,-2.6536,-2.6536,-2.6536,-2.6536,-2.6536,-2.5876,-2.5506,-2.5506,-2.5506,-2.5506,-2.5506,-2.5855,-2.6058,-2.6058,-2.6389,-2.6591,-2.6591,-2.4278,-2.3087,-2.2918,-2.0615,-1.9475,-3.226,0.0,-3.3543,-3.2934,-3.2513,-3.2174,0.0,-3.1406,0.0,0.0,0.0,-3.0898,-3.0898,-3.0605,-3.0586,-3.1269,-3.1094,-3.1073,-3.1424,0.0,0.0,-3.1111,-3.1176,-3.1231,-3.1231,-3.0607,-3.0204,-3.0204,-2.9434,-2.8975,-2.8975,-2.8297,-2.7932,-2.7822,-2.7086,-2.6683,-2.6591,-2.6591,-2.6591,-2.6591,-2.6261,-2.6168,-2.6149,-2.5745,-2.5289,-2.4922,-2.4831,-2.4587,-2.4202,-2.4399,-2.443,-2.4529,-2.4941,-2.5503,-2.6226,-2.7903,-2.8856,-2.9536,-3.1054,-3.2145,-3.2951,-3.377,-3.4066,-3.4066,-3.4066,-3.2123,-2.9932,-2.9932,-2.9112,-2.8301,-2.8301,-2.8301,-2.8301,-2.8301,-2.8301,-2.8301,-2.8301,-2.8301,-2.8301,-2.8301,-2.8301,-2.8301,-2.8301,-2.8301,-2.8174,-2.7853,-2.7584,-2.726,-2.6935,-2.6459,-2.6168,-2.6168,-2.6168,-2.6168,-2.6168,-2.6224,-2.6298,-2.6298,-2.6298,-2.6298,-2.6298,-2.6389,-2.6444,-2.6444,-2.6536,-2.6591,-2.6591,-2.511,-2.3871,-2.2974,-2.146,-2.027,-3.1608,-3.2282,-3.2946,-3.2509,-3.227,-3.2053,-3.1821,0.0,0.0,0.0,0.0,0.0,-3.0273,-3.0234,0.0,-3.084,-3.1055,0.0,0.0,0.0,-3.154,-3.1423,-3.1377,-3.1377,-3.1377,-3.0662,-3.0204,-3.0204,-2.9434,-2.8975,-2.8975,-2.8263,-2.7822,-2.7822,-2.6995,-2.6591,-2.6591,-2.6591,-2.6591,-2.6591,-2.6353,-2.6296,-2.6278,-2.569,-2.5304,-2.5032,-2.4666,-2.4404,-2.4202,-2.4449,-2.4578,-2.4775,-2.5654,-2.6348,-2.718,-2.9287,-3.04,-3.103,-3.2519,-3.3449,-3.4017,-3.4628,-3.4775,-3.4775,-3.4775,-3.3201,-3.1308,-3.0794,-2.988,-2.89,-2.8441,-2.8301,-2.8301,-2.8301,-2.8301,-2.8301,-2.8301,-2.8301,-2.8301,-2.8301,-2.8301,-2.8301,-2.8301,-2.8301,-2.8194,-2.796,-2.7745,-2.7476,-2.7043,-2.6695,-2.6404,-2.6296,-2.6296,-2.6296,-2.6296,-2.6463,-2.6591,-2.6591,-2.6591,-2.6591,-2.6591,-2.6591,-2.6591,-2.6591,-2.6591,-2.6591,-2.6591,-2.5404,-2.4167,-2.2974,-2.1744,-2.0558,-3.1547,-3.2085,-3.2617,-3.2286,-3.229,-3.2272,0.0,0.0,0.0,0.0,0.0,0.0,0.0,0.0,0.0,0.0,0.0,0.0,-3.1764,-3.1865,-3.1771,-3.1442,-3.1377,0.0,-3.1377,-3.0662,-3.0204,-3.0204,-2.9434,-2.8975,-2.8975,-2.8263,-2.7822,-2.7822,-2.6995,-2.6591,-2.6591,-2.6591,-2.6591,-2.6591,-2.6518,-2.6463,-2.6371,-2.5619,-2.5252,-2.5194,-2.4514,-2.4202,-2.4251,-2.448,-2.4824,-2.5314,-2.6536,-2.7545,-2.8585,-3.1019,-3.2241,-3.2894,-3.4315,-3.4775,-3.4775,-3.4775,-3.4775,-3.4775,-3.4775,-3.4164,-3.3201,-3.1942,-3.0794,-2.967,-2.8601,-2.8301,-2.8301,-2.8301,-2.8301,-2.8301,-2.8301,-2.8301,-2.8301,-2.8301,-2.8301,-2.8301,-2.8301,-2.8301,-2.8228,-2.8014,-2.7906,-2.7691,-2.7152,-2.7043,-2.6899,-2.6646,-2.6591,-2.6591,-2.6591,-2.6591,-2.6591,-2.6591,-2.6591,-2.6591,-2.6591,-2.6591,-2.6591,-2.6591,-2.6591,-2.6591,-2.6591,-2.5569,-2.4445,-2.3255,-2.2029,-2.0845,-3.1754,-3.2333,-3.2473,-3.1519,-3.1606,-3.1672,0.0,0.0,0.0,0.0,0.0,0.0,0.0,0.0,0.0,0.0,0.0,-3.2002,0.0,0.0,-3.1708,-3.1405,0.0,-3.1377,-3.1377,-3.0662,-3.0204,-3.0204,-2.9434,-2.8975,-2.8975,-2.8263,-2.7822,-2.7822,-2.6995,-2.6591,-2.6591,-2.6591,-2.6591,-2.6591,-2.6224,-2.5929,-2.5598,-2.5087,-2.4735,-2.4385,-2.4257,-2.4301,-2.448,-2.4745,-2.5509,-2.6592,-2.7462,-2.8606,-3.0003,-3.1828,-3.2722,-3.3258,-3.4409,-3.4775,-3.4775,-3.4775,-3.4775,-3.4775,-3.4775,-3.4677,-3.4115,-3.2145,-3.0794,-2.967,-2.8601,-2.8301,-2.8301,-2.8301,-2.8301,-2.8301,-2.8301,-2.8301,-2.8301,-2.8301,-2.8301,-2.8301,-2.8301,-2.8301,-2.8301,-2.8228,-2.8067,-2.7745,-2.7368,-2.7152,-2.6899,-2.6646,-2.6591,-2.6591,-2.6591,-2.6591,-2.6591,-2.6591,-2.6591,-2.6591,-2.6591,-2.6591,-2.6591,-2.6591,-2.6591,-2.6591,-2.6591,-2.6409,-2.5679,-2.4501,-2.3311,-2.207,-3.0884,-3.1464,-3.189,-3.1462,-3.2001,-3.2272,0.0,0.0,0.0,0.0,0.0,0.0,0.0,0.0,0.0,0.0,0.0,-3.2471,-3.2396,-3.2264,-3.2023,0.0,-3.1506,-3.1286,-3.1084,-3.0534,-3.0112,-2.9874,-2.9324,-2.8975,-2.8975,-2.8263,-2.7822,-2.7822,-2.6995,-2.6591,-2.6591,-2.6591,-2.6591,-2.6591,-2.6389,-2.6206,-2.6004,-2.5381,-2.5047,-2.4845,-2.4485,-2.4381,-2.4578,-2.5538,-2.6452,-2.74,-2.9003,-3.0363,-3.1634,-3.3233,-3.3926,-3.4115,-3.4628,-3.4775,-3.4775,-3.4775,-3.4775,-3.4775,-3.4775,-3.4433,-3.3598,-3.2044,-3.1206,-3.0453,-2.8761,-2.8301,-2.8301,-2.8301,-2.8301,-2.8301,-2.8301,-2.8301,-2.8301,-2.8301,-2.8301,-2.8301,-2.8301,-2.8301,-2.8301,-2.8301,-2.8174,-2.796,-2.7476,-2.7314,-2.7062,-2.6646,-2.6591,-2.6591,-2.6591,-2.6591,-2.6591,-2.6591,-2.6591,-2.6591,-2.6591,-2.6591,-2.6591,-2.6591,-2.6591,-2.6591,-2.6591,-2.6591,-2.5971,-2.4778,-2.3536,-2.2353,-3.0512,-3.0905,-3.143,-3.164,0.0,0.0,0.0,0.0,0.0,0.0,0.0,0.0,0.0,0.0,0.0,-3.2773,-3.2949,-3.2941,-3.2873,-3.2676,-3.2358,-3.191,-3.1653,-3.1359,-3.0827,-3.0424,-3.002,-2.9599,-2.9214,-2.8938,-2.8847,-2.8208,-2.7785,-2.7693,-2.6958,-2.6591,-2.6591,-2.6591,-2.6646,-2.6682,-2.6682,-2.6644,-2.6495,-2.5866,-2.5459,-2.5256,-2.4808,-2.4775,-2.5099,-2.6312,-2.7421,-2.8561,-3.0456,-3.1992,-3.3233,-3.4388,-3.4775,-3.4775,-3.4775,-3.4775,-3.4775,-3.4775,-3.4775,-3.4775,-3.4775,-3.4066,-3.3001,-3.1869,-3.141,-3.0764,-2.8814,-2.8301,-2.8301,-2.8301,-2.8301,-2.8301,-2.8301,-2.8301,-2.8301,-2.8301,-2.8301,-2.8301,-2.8301,-2.8301,-2.8301,-2.8301,-2.8301,-2.8121,-2.7584,-2.7422,-2.7225,-2.6736,-2.6646,-2.6591,-2.6591,-2.6591,-2.6628,-2.6719,-2.6646,-2.6591,-2.6591,-2.6591,-2.6591,-2.6591,-2.6591,-2.6591,-2.6591,-2.6591,-2.6136,-2.5183,-2.3704,-2.2513,-3.1671,-3.1629,-3.1485,-3.1884,0.0,0.0,0.0,0.0,0.0,0.0,0.0,0.0,0.0,0.0,0.0,-3.3301,-3.3379,-3.3253,-3.2912,0.0,-3.2613,-3.1974,-3.1864,-3.1551,-3.0891,-3.0424,-3.002,-2.9599,-2.9214,-2.8828,-2.8462,-2.8003,-2.7656,-2.7233,-2.6811,-2.6591,-2.6591,-2.6591,-2.6736,-2.6989,-2.6989,-2.6705,-2.6215,-2.6158,-2.5705,-2.4918,-2.4911,-2.5538,-2.6648,-2.6744,-2.8374,-3.081,-3.1479,-3.2909,-3.4678,-3.4775,-3.4775,-3.4775,-3.4775,-3.4775,-3.4775,-3.4775,-3.4775,-3.4775,-3.4775,-3.4066,-3.3001,-3.1869,-3.0845,-2.9775,-2.8601,-2.8301,-2.8301,-2.8301,-2.8301,-2.8301,-2.8301,-2.8301,-2.8301,-2.8301,-2.8301,-2.8301,-2.8301,-2.8301,-2.8301,-2.8301,-2.8301,-2.8174,-2.7906,-2.7584,-2.726,-2.6989,-2.6736,-2.6591,-2.6591,-2.6591,-2.6738,-2.7105,-2.6793,-2.6591,-2.6591,-2.6591,-2.6591,-2.6591,-2.6591,-2.6591,-2.6591,-2.6591,-2.6537,-2.6409,-2.4111,-2.3092,-3.1112,-3.1801,-3.2371,-3.2086,0.0,0.0,0.0,0.0,0.0,0.0,0.0,0.0,0.0,0.0,-3.3242,-3.3398,-3.3418,-3.3355,-3.3228,-3.3038,-3.2804,-3.2549,-3.2358,-3.184,-3.0853,-3.0587,-3.0156,-2.931,-2.9067,-2.881,-2.8407,-2.8003,-2.7638,-2.7196,-2.6793,-2.6682,-2.6845,-2.6845,-2.7098,-2.7584,-2.7206,-2.6983,-2.693,-2.6418,-2.634,-2.6645,-2.626,-2.6723,-2.7835,-2.8936,-3.0249,-3.1666,-3.3123,-3.4125,-3.4775,-3.4775,-3.4775,-3.4775,-3.4775,-3.4775,-3.4775,-3.4775,-3.4775,-3.4775,-3.4775,-3.3549,-3.2145,-3.1739,-3.0297,-2.8794,-2.8388,-2.8301,-2.8301,-2.8301,-2.8301,-2.8301,-2.8301,-2.8301,-2.8301,-2.8301,-2.8301,-2.8301,-2.8301,-2.8301,-2.8301,-2.8301,-2.8301,-2.8174,-2.7906,-2.7584,-2.7314,-2.7043,-2.6958,-2.705,-2.7306,-2.7381,-2.738,-2.7526,-2.7178,-2.6958,-2.6958,-2.7196,-2.7086,-2.6591,-2.627,-2.627,-2.6591,-2.6038,-2.6038,-2.6537,-2.4271,-2.3314,-3.1496,-3.2413,-3.329,0.0,0.0,0.0,0.0,0.0,0.0,0.0,0.0,0.0,0.0,0.0,0.0,0.0,-3.3418,-3.3418,-3.3418,-3.3165,-3.3038,-3.2912,-3.2562,-3.1948,-3.0939,-3.0733,-3.0256,-2.9209,-2.9043,-2.8726,-2.8223,-2.7915,-2.7566,-2.7161,-2.6938,-2.6954,-2.7098,-2.7152,-2.7368,-2.7906,-2.7476,-2.7365,-2.7481,-2.7117,-2.7249,-2.7751,-2.7531,-2.8087,-2.9245,-3.0488,-3.1599,-3.2675,-3.4197,-3.4775,-3.4775,-3.4775,-3.4775,-3.4775,-3.4775,-3.4775,-3.4775,-3.4775,-3.4775,-3.4775,-3.4775,-3.33,-3.1586,-3.1586,-2.9984,-2.8301,-2.8301,-2.8301,-2.8301,-2.8301,-2.8301,-2.8301,-2.8301,-2.8301,-2.8301,-2.8301,-2.8301,-2.8301,-2.8301,-2.8301,-2.8301,-2.8301,-2.8301,-2.8228,-2.8067,-2.7745,-2.7422,-2.7043,-2.7087,-2.7288,-2.762,-2.7748,-2.782,-2.7948,-2.771,-2.7508,-2.7361,-2.7675,-2.7508,-2.6976,-2.6206,-2.5978,-2.633,-2.5735,-2.5491,-2.5698,-2.4236,-2.343,-3.319,-3.3548,0.0,0.0,0.0,0.0,0.0,0.0,0.0,0.0,0.0,0.0,0.0,0.0,0.0,-3.3418,-3.3418,-3.3418,-3.3418,-3.3418,-3.3292,-3.2912,-3.2565,-3.2018,-3.1271,-3.0774,-3.0238,-2.9527,-2.9058,-2.8533,-2.784,-2.7679,-2.7437,-2.7008,-2.726,-2.7368,-2.7368,-2.7368,-2.7584,-2.7906,-2.7906,-2.7854,-2.7761,-2.8259,-2.8309,-2.7952,-2.8498,-2.9593,-3.102,-3.102,-3.2183,-3.4054,-3.4583,-3.4775,-3.4775,-3.4775,-3.4775,-3.4775,-3.4775,-3.4775,-3.4775,-3.4775,-3.4775,-3.4775,-3.4775,-3.33,-3.1586,-3.1586,-2.9984,-2.8301,-2.8301,-2.8301,-2.8301,-2.8301,-2.8301,-2.8301,-2.8301,-2.8301,-2.8301,-2.8301,-2.8301,-2.8301,-2.8301,-2.8301,-2.8301,-2.8301,-2.8301,-2.8301,-2.8301,-2.8067,-2.7691,-2.7043,-2.7087,-2.7178,-2.7178,-2.7545,-2.8005,-2.837,-2.8407,-2.8205,-2.784,-2.784,-2.784,-2.7822,-2.6469,-2.5775,-2.5816,-2.5758,-2.5119,-2.383,-2.3948,-2.3484,-3.2132,0.0,0.0,0.0,0.0,0.0,0.0,0.0,0.0,0.0,0.0,0.0,-3.3418,0.0,0.0,-3.3418,-3.3418,-3.3418,-3.3418,-3.3418,-3.3355,-3.3228,-3.2922,-3.239,-3.1597,-3.1156,-3.0536,-2.9842,-2.9368,-2.8954,-2.8465,-2.8107,-2.7693,-2.7279,-2.7368,-2.753,-2.7745,-2.7745,-2.8262,-2.9303,-2.9303,-2.9294,-2.9257,-2.9116,-2.9785,-3.1042,-3.0934,-3.1552,-3.2651,-3.2983,-3.3672,-3.4558,-3.4727,-3.4775,-3.4775,-3.4775,-3.4775,-3.4775,-3.4775,-3.4775,-3.4775,-3.4775,-3.4775,-3.4775,-3.4775,-3.33,-3.1586,-3.1586,-2.9984,-2.8301,-2.8301,-2.8301,-2.8301,-2.8301,-2.8301,-2.8301,-2.8301,-2.8516,-2.8652,-2.834,-2.8535,-2.873,-2.873,-2.873,-2.873,-2.873,-2.873,-2.8579,-2.8052,-2.796,-2.7752,-2.7454,-2.7438,-2.7512,-2.762,-2.7967,-2.826,-2.8388,-2.8663,-2.8627,-2.8223,-2.848,-2.8352,-2.784,-2.6109,-2.5397,-2.5816,-2.5133,-2.4467,-2.383,-2.4126,-2.364,-3.3794,0.0,0.0,0.0,0.0,0.0,0.0,0.0,0.0,0.0,0.0,0.0,-3.3418,-3.3418,0.0,-3.3418,-3.3418,-3.3418,-3.3418,-3.3418,-3.3418,-3.3418,-3.291,-3.238,-3.1944,-3.1302,-3.072,-3.0117,-2.9565,-2.907,-2.8728,-2.8214,-2.785,-2.7603,-2.7691,-2.7853,-2.8067,-2.8265,-2.8778,-2.9611,-2.9836,-3.0295,-3.0852,-3.0644,-3.1213,-3.2394,-3.2577,-3.3031,-3.3621,-3.4102,-3.4486,-3.4775,-3.4775,-3.4775,-3.4775,-3.4775,-3.4775,-3.4775,-3.4775,-3.4775,-3.4775,-3.4775,-3.4775,-3.4726,-3.4262,-3.2951,-3.1534,-3.1051,-2.967,-2.8301,-2.8301,-2.8301,-2.8301,-2.8301,-2.8418,-2.8535,-2.8535,-2.8887,-2.9101,-2.8848,-2.9004,-2.9121,-2.8945,-2.9062,-2.9062,-2.8711,-2.8672,-2.852,-2.8106,-2.796,-2.7841,-2.7727,-2.764,-2.7605,-2.7677,-2.7969,-2.8223,-2.8388,-2.8627,-2.8718,-2.8627,-2.8847,-2.8755,-2.8318,-2.6121,-2.5153,-2.5492,-2.4385,-2.3475,-2.2748,-2.3536,-2.3214,0.0,0.0,0.0,0.0,0.0,0.0,0.0,0.0,0.0,0.0,0.0,-3.3418,-3.3418,-3.3418,-3.3418,-3.3418,-3.3418,-3.3418,-3.3418,-3.3418,-3.3418,-3.3379,-3.2656,-3.2148,-3.2109,-3.1367,-3.0762,-3.045,-2.966,-2.901,-2.8785,-2.826,-2.796,-2.796,-2.8281,-2.8441,-2.8441,-2.9001,-2.9342,-2.9381,-2.9962,-3.1038,-3.254,-3.2443,-3.2489,-3.2658,-3.3672,-3.4054,-3.4102,-3.4583,-3.4775,-3.4775,-3.4775,-3.4775,-3.4775,-3.4775,-3.4775,-3.4775,-3.4775,-3.4775,-3.4775,-3.4775,-3.4726,-3.4482,-3.3499,-3.2398,-3.1206,-3.0172,-2.9112,-2.8301,-2.8301,-2.832,-2.834,-2.834,-2.8613,-2.8867,-2.8906,-2.9258,-2.9626,-2.9626,-2.9646,-2.9512,-2.9101,-2.9375,-2.9355,-2.8535,-2.834,-2.8301,-2.8301,-2.8067,-2.7906,-2.7906,-2.7727,-2.7622,-2.7567,-2.7715,-2.7932,-2.826,-2.8315,-2.8517,-2.892,-2.8957,-2.8975,-2.8975,-2.6338,-2.4994,-2.4994,-2.3698,-2.2404,-2.1109,-2.2466,-2.2404,0.0,0.0,0.0,0.0,0.0,0.0,0.0,0.0,0.0,0.0,-3.3418,-3.3418,-3.3418,-3.3418,-3.3418,-3.3418,-3.3418,-3.3418,-3.3418,-3.3418,-3.3301,-3.2969,-3.248,-3.2031,-3.1699,-3.1191,-3.0879,-3.082,-3.0021,-2.9458,-2.9402,-2.8641,-2.8228,-2.8228,-2.9112,-2.9565,-2.9565,-3.0554,-3.1287,-3.1708,-3.1792,-3.2497,-3.3648,-3.2806,-3.3064,-3.4315,-3.451,-3.4607,-3.4631,-3.4727,-3.4775,-3.4775,-3.4775,-3.4775,-3.4775,-3.4775,-3.4775,-3.4775,-3.4775,-3.4775,-3.4775,-3.4775,-3.4213,-3.3499,-3.325,-3.1819,-3.0224,-2.9984,-2.9112,-2.8301,-2.8301,-2.8535,-2.8789,-2.8789,-2.8594,-2.8516,-2.8848,-2.9258,-2.9626,-2.9626,-2.9844,-3.0039,-2.9941,-3.0,-2.9883,-2.9375,-2.873,-2.8301,-2.8301,-2.8247,-2.8121,-2.7906,-2.7876,-2.7663,-2.7174,-2.7456,-2.7567,-2.7491,-2.7728,-2.8095,-2.8498,-2.881,-2.8975,-2.8975,-2.6338,-2.4994,-2.4994,-2.3698,-2.2404,-2.1109,-2.2466,-2.2404,0.0,0.0,0.0,0.0,0.0,0.0,0.0,0.0,0.0,0.0,-3.4383,-3.3418,-3.3418,-3.3418,-3.3418,-3.3418,-3.3418,-3.3418,-3.3418,-3.3418,-3.3262,-3.2851,-3.2422,-3.1992,-3.1562,-3.1133,-3.0801,-3.0566,-2.9941,-2.9473,-2.9277,-2.9152,-2.9059,-2.9059,-3.0141,-3.0691,-3.0691,-3.1328,-3.1878,-3.2394,-3.2158,-3.2652,-3.3646,-3.3598,-3.4002,-3.4775,-3.4775,-3.4775,-3.4775,-3.4775,-3.4775,-3.4775,-3.4775,-3.4775,-3.4775,-3.4775,-3.4943,-3.516,-3.4871,-3.4943,-3.5062,-3.4308,-3.3671,-3.3001,-3.192,-3.0794,-2.9775,-2.927,-2.8846,-2.8594,-2.8594,-2.8906,-2.9238,-2.9238,-2.9219,-2.9258,-2.9492,-2.9883,-3.0195,-3.0195,-3.0371,-3.0449,-3.0234,-3.0039,-2.9746,-2.9316,-2.8887,-2.8516,-2.832,-2.8301,-2.8272,-2.8195,-2.8052,-2.778,-2.7342,-2.7382,-2.7345,-2.7234,-2.7417,-2.7673,-2.8077,-2.8297,-2.859,-2.8975,-2.6338,-2.4994,-2.4994,-2.3076,-2.179,-2.1109,-2.1853,-2.179,0.0,0.0,0.0,0.0,0.0,0.0,0.0,0.0,0.0,0.0,-3.5949,-3.409,-3.409,-3.3902,-3.3733,-3.3733,-3.3733,-3.367,-3.3418,-3.3548,-3.3395,-3.2796,-3.2305,-3.1894,-3.1445,-3.1094,-3.0703,-3.0234,-2.9805,-2.9486,-2.9218,-2.9652,-2.9964,-3.0172,-3.1308,-3.1891,-3.1891,-3.2082,-3.2314,-3.2686,-3.2271,-3.2539,-3.3452,-3.439,-3.4775,-3.4775,-3.4775,-3.4775,-3.4775,-3.4775,-3.4775,-3.4775,-3.4775,-3.4775,-3.4799,-3.4871,-3.5232,-3.5545,-3.5063,-3.5256,-3.5322,-3.3734,-3.3051,-3.2549,-3.0535,-2.9775,-2.9428,-2.8627,-2.8652,-2.8945,-2.9004,-2.9355,-2.9668,-2.9668,-3.0059,-3.0371,-3.0234,-3.0508,-3.082,-3.0976,-3.1055,-3.0976,-3.0508,-3.0137,-2.9785,-2.9414,-2.9238,-2.9004,-2.8672,-2.8555,-2.8544,-2.8694,-2.8437,-2.8142,-2.7846,-2.7623,-2.7381,-2.7344,-2.7215,-2.7361,-2.7803,-2.7748,-2.8022,-2.8755,-2.6463,-2.5298,-2.5362,-2.2716,-2.1475,-2.1411,-2.1235,-2.1109,0.0,0.0,0.0,0.0,0.0,0.0,0.0,0.0,0.0,0.0,-3.8007,-3.6764,-3.6764,-3.5848,-3.5129,-3.5129,-3.5129,-3.4715,-3.3544,-3.4061,-3.3963,-3.2468,-3.1875,-3.1445,-3.1016,-3.0918,-3.0703,-3.0234,-2.9805,-2.9818,-3.0368,-3.0075,-3.0328,-3.133,-3.2426,-3.3001,-3.3001,-3.3925,-3.4174,-3.3792,-3.3719,-3.3742,-3.391,-3.451,-3.4775,-3.4775,-3.4775,-3.4775,-3.4775,-3.4775,-3.4775,-3.4775,-3.4775,-3.4775,-3.4847,-3.5352,-3.5545,-3.5617,-3.5545,-3.5569,-3.5322,-3.3734,-3.26,-3.1564,-3.0276,-2.927,-2.8573,-2.8785,-2.8867,-2.9004,-2.9394,-2.9805,-3.0117,-3.0117,-3.0742,-3.1133,-3.0371,-3.0234,-3.0527,-3.1289,-3.1738,-3.1855,-3.1426,-3.1289,-3.123,-3.1172,-3.0508,-3.0,-2.9941,-2.9629,-2.9414,-2.9417,-2.9436,-2.9157,-2.8596,-2.854,-2.8296,-2.7748,-2.7361,-2.7361,-2.7803,-2.7491,-2.7471,-2.7969,-2.6824,-2.6363,-2.6702,-2.4116,-2.2827,-2.2827,-2.1664,-2.1109,0.0,0.0,0.0,0.0,0.0,0.0,0.0,0.0,0.0,-4.1272,-4.0442,-3.9216,-3.7588,-3.6824,-3.646,-3.646,-3.646,-3.6131,-3.5269,-3.5462,-3.5261,-3.3976,-3.3062,-3.2387,-3.1943,-3.1286,-3.0605,-2.9902,-3.0262,-3.0391,-3.021,-3.121,-3.1971,-3.2499,-3.3549,-3.4115,-3.4115,-3.4293,-3.4078,-3.3621,-3.415,-3.427,-3.4006,-3.4534,-3.4775,-3.4775,-3.4775,-3.4775,-3.4775,-3.4775,-3.4775,-3.4775,-3.4775,-3.4775,-3.4799,-3.5039,-3.5545,-3.5978,-3.5376,-3.5569,-3.5604,-3.3101,-3.1993,-3.1278,-2.9513,-2.8654,-2.8379,-2.8809,-2.9101,-2.9375,-2.9805,-3.0254,-3.0644,-3.0879,-3.1055,-3.1133,-3.0976,-3.1133,-3.1426,-3.1797,-3.2031,-3.2031,-3.1601,-3.1719,-3.1719,-3.125,-3.084,-3.0488,-3.0234,-2.9824,-2.9612,-2.9676,-2.9715,-2.9525,-2.907,-2.8841,-2.8576,-2.8068,-2.7713,-2.7638,-2.7822,-2.69,-2.6932,-2.8113,-2.7018,-2.6092,-2.554,-2.3901,-2.2702,-2.1964,-2.1348,-2.1109,0.0,0.0,0.0,0.0,0.0,0.0,0.0,0.0,-4.2457,0.0,-4.1948,-4.0952,-3.8684,-3.8029,-3.779,-3.779,-3.7679,-3.7361,-3.6572,-3.6546,-3.6266,-3.5198,-3.4204,-3.344,-3.3161,-3.2342,-3.1405,-3.0555,-3.1223,-3.1401,-3.0785,-3.2275,-3.33,-3.3621,-3.436,-3.4775,-3.4775,-3.439,-3.4054,-3.3693,-3.4463,-3.4583,-3.4198,-3.4607,-3.4775,-3.4775,-3.4775,-3.4775,-3.4775,-3.4775,-3.4775,-3.4775,-3.4775,-3.4775,-3.4799,-3.4919,-3.5617,-3.6266,-3.5352,-3.5641,-3.5863,-3.2661,-3.1586,-3.1176,-2.8953,-2.8359,-2.8535,-2.8965,-2.9394,-2.9824,-3.0254,-3.0703,-3.1094,-3.1309,-3.1289,-3.125,-3.1328,-3.1699,-3.1973,-3.1875,-3.2072,-3.2031,-3.1601,-3.1875,-3.1953,-3.1309,-3.1113,-3.0918,-3.0586,-3.0156,-2.9982,-3.0064,-3.0045,-2.993,-2.9622,-2.9332,-2.9027,-2.8555,-2.8214,-2.8026,-2.7987,-2.6579,-2.6435,-2.7683,-2.6876,-2.5889,-2.4935,-2.3932,-2.2773,-2.1491,-2.1195,-2.1109,0.0,0.0,0.0,0.0,0.0,0.0,0.0,0.0,0.0,-4.2167,-4.1859,-4.1492,-4.1057,-3.9966,-3.9098,-3.9098,-3.8709,-3.7924,-3.6647,-3.6802,-3.6533,-3.5247,-3.4662,-3.4302,-3.428,-3.4224,-3.3812,-3.291,-3.2877,-3.2936,-3.2996,-3.3151,-3.3671,-3.4677,-3.4775,-3.4775,-3.4775,-3.4751,-3.4727,-3.4703,-3.4751,-3.4775,-3.4751,-3.4775,-3.4775,-3.4775,-3.4775,-3.4775,-3.4775,-3.4775,-3.4775,-3.4775,-3.4775,-3.4775,-3.4847,-3.54,-3.593,-3.6314,-3.5761,-3.593,-3.5863,-3.2661,-3.1586,-3.1176,-2.8953,-2.8574,-2.8984,-2.9414,-2.9844,-3.0273,-3.0742,-3.1172,-3.1387,-3.1016,-3.1523,-3.1875,-3.1094,-3.125,-3.1426,-3.1035,-3.1601,-3.2031,-3.1601,-3.1875,-3.2148,-3.2109,-3.1758,-3.1484,-3.1445,-3.1074,-3.084,-3.0859,-3.0859,-3.0723,-3.0353,-3.0353,-3.0041,-2.9434,-2.9021,-2.8623,-2.837,-2.6737,-2.5833,-2.5908,-2.6251,-2.6439,-2.6456,-2.5011,-2.3702,-2.25,-2.1526,-2.1109,0.0,0.0,0.0,0.0,0.0,0.0,0.0,0.0,-4.2818,-4.2706,-4.2256,-4.1859,-4.1826,-4.1033,-4.0513,-4.0513,-4.0006,-3.9386,-3.8581,-3.8287,-3.7887,-3.7076,-3.6105,-3.5576,-3.5576,-3.4836,-3.4163,-3.3562,-3.3852,-3.3928,-3.3729,-3.4033,-3.4409,-3.4775,-3.4775,-3.4775,-3.4775,-3.4775,-3.4775,-3.4775,-3.4775,-3.4775,-3.4775,-3.4775,-3.4775,-3.4775,-3.4775,-3.4775,-3.4775,-3.4775,-3.4775,-3.4775,-3.4775,-3.4775,-3.4847,-3.5425,-3.5954,-3.6314,-3.5809,-3.5954,-3.5863,-3.2661,-3.1586,-3.1219,-2.9293,-2.8809,-2.9062,-2.9785,-3.0078,-3.0371,-3.1094,-3.1406,-3.1484,-3.1328,-3.1523,-3.1601,-3.1016,-3.1445,-3.1894,-3.1738,-3.1953,-3.2129,-3.1953,-3.207,-3.2229,-3.2229,-3.1797,-3.1523,-3.1523,-3.1152,-3.0898,-3.0898,-3.0898,-3.082,-3.0704,-3.0509,-3.0333,-3.0098,-2.9536,-2.9226,-2.9108,-2.6679,-2.5698,-2.6551,-2.482,-2.3929,-2.3989,-2.4351,-2.3551,-2.1624,-2.1118,-2.0935,-3.4424,0.0,0.0,0.0,0.0,0.0,0.0,0.0,-4.2534,-4.2799,-4.2538,-4.2142,-4.1972,-4.1573,-4.1287,-4.1172,-4.0739,-4.021,-3.9681,-3.9152,-3.8623,-3.8046,-3.7281,-3.6773,-3.6773,-3.6045,-3.5405,-3.4993,-3.5073,-3.5002,-3.4563,-3.4695,-3.4775,-3.4775,-3.4775,-3.4775,-3.4775,-3.4775,-3.4775,-3.4775,-3.4775,-3.4775,-3.4775,-3.4775,-3.4775,-3.4775,-3.4775,-3.4775,-3.4775,-3.4775,-3.4775,-3.4775,-3.4775,-3.4775,-3.4847,-3.5425,-3.5954,-3.6314,-3.5809,-3.5702,-3.538,-3.2508,-3.133,-3.0745,-2.9311,-2.9023,-2.9277,-3.0,-3.041,-3.0781,-3.1367,-3.1523,-3.1562,-3.1699,-3.1523,-3.123,-3.0957,-3.1328,-3.1738,-3.1738,-3.1738,-3.1738,-3.1738,-3.1738,-3.1738,-3.1738,-3.1484,-3.1309,-3.1309,-3.1055,-3.0898,-3.0898,-3.0898,-3.0898,-3.0898,-3.0704,-3.0509,-3.0392,-3.0039,-2.9745,-2.9509,-2.6702,-2.5529,-2.6277,-2.3963,-2.2461,-2.2044,-2.3262,-2.2909,-2.0962,-2.0869,-2.0922,0.0,0.0,0.0,0.0,0.0,0.0,0.0,0.0,-4.1447,-4.2295,-4.2463,-4.2238,-4.1696,-4.1606,-4.1492,-4.123,-4.0739,-4.021,-3.9681,-3.9152,-3.8623,-3.8046,-3.7974,-3.7974,-3.7974,-3.7974,-3.7757,-3.7252,-3.6723,-3.6194,-3.5665,-3.5087,-3.4775,-3.4775,-3.4775,-3.4775,-3.4775,-3.4775,-3.4775,-3.4775,-3.4775,-3.4775,-3.4775,-3.4775,-3.4775,-3.4775,-3.4775,-3.4775,-3.4775,-3.4775,-3.4775,-3.4775,-3.4775,-3.4799,-3.4871,-3.5449,-3.5978,-3.6362,-3.5783,-3.5247,-3.4429,-3.2251,-3.0815,-2.9826,-2.9115,-2.9238,-2.9668,-3.0117,-3.0859,-3.1523,-3.1543,-3.1562,-3.166,-3.209,-3.1543,-3.0918,-3.0918,-3.0898,-3.0898,-3.0898,-3.0898,-3.0898,-3.0898,-3.0898,-3.0898,-3.0898,-3.0898,-3.0898,-3.0898,-3.0898,-3.0898,-3.0898,-3.0898,-3.0898,-3.0898,-3.0898,-3.0762,-3.045,-3.0392,-3.0157,-2.9568,-2.6927,-2.5346,-2.4994,-2.3698,-2.2404,-2.1109,-2.2029,-2.1888,-2.0695,-2.0975,-2.1109,-3.3111,0.0,0.0,0.0,0.0,0.0,0.0,0.0,-3.942,-4.1243,-4.1155,-4.1012,-4.1808,-4.1777,-4.1606,-4.1492,-4.091,-4.021,-3.9681,-3.9152,-3.8623,-3.8046,-3.7974,-3.7974,-3.7974,-3.7974,-3.7926,-3.7781,-3.7276,-3.6747,-3.6218,-3.5328,-3.4775,-3.4775,-3.4775,-3.4775,-3.4775,-3.4775,-3.4775,-3.4775,-3.4775,-3.4775,-3.4775,-3.4775,-3.4775,-3.4775,-3.4775,-3.4775,-3.4775,-3.4775,-3.4775,-3.4775,-3.4775,-3.5015,-3.5449,-3.6002,-3.6531,-3.6788,-3.547,-3.4912,-3.4325,-3.1352,-3.0402,-3.0298,-2.9644,-2.9687,-3.0176,-3.0937,-3.1328,-3.166,-3.2285,-3.2441,-3.2461,-3.2598,-3.1973,-3.1348,-3.1348,-3.1113,-3.0898,-3.0898,-3.0898,-3.0898,-3.0898,-3.0898,-3.0898,-3.0898,-3.0898,-3.0898,-3.0898,-3.0898,-3.0898,-3.0898,-3.0898,-3.0898,-3.0898,-3.0898,-3.084,-3.0762,-3.0509,-3.0216,-2.9804,-2.7048,-2.5346,-2.4994,-2.2779,-2.1475,-2.1109,-2.2091,-2.2049,-2.0989,-2.1069,-2.1109,-3.3111,0.0,0.0,0.0,0.0,0.0,-3.7713,-3.8115,-3.8642,0.0,-4.0918,-4.0832,-4.1472,-4.1453,-4.1359,-4.1467,-4.1103,-4.0546,-3.9823,-3.9485,-3.9002,-3.8123,-3.7974,-3.7974,-3.7974,-3.7974,-3.7974,-3.7974,-3.7493,-3.6867,-3.6122,-3.528,-3.4823,-3.4969,-3.4969,-3.5017,-3.5114,-3.5017,-3.4969,-3.4969,-3.4823,-3.4775,-3.4775,-3.4775,-3.4775,-3.4775,-3.4775,-3.4775,-3.4775,-3.4775,-3.4775,-3.4775,-3.4775,-3.516,-3.5689,-3.6218,-3.6415,-3.6302,-3.519,-3.417,-3.299,-3.0643,-2.9802,-2.9615,-2.9597,-2.9863,-3.0371,-3.1269,-3.1777,-3.2207,-3.2891,-3.293,-3.2793,-3.2793,-3.2285,-3.1738,-3.1562,-3.1328,-3.1094,-3.0918,-3.0898,-3.0898,-3.0898,-3.0898,-3.0898,-3.0898,-3.0898,-3.0898,-3.0898,-3.0898,-3.0898,-3.0898,-3.0898,-3.0898,-3.0898,-3.0898,-3.0898,-3.0898,-3.0704,-3.045,-3.0098,-2.7271,-2.5574,-2.5224,-2.2529,-2.1109,-2.1109,-2.1673,-2.1673,-2.1109,-2.1109,-2.1109,0.0,0.0,0.0,-3.4881,-3.4625,0.0,-3.8266,-3.8266,-3.8165,0.0,-4.0674,-4.0646,-4.0554,-4.0575,-4.0666,-4.0838,-4.1059,-4.09,-4.0184,-4.0001,-3.9504,-3.82,-3.8027,-3.7974,-3.7974,-3.7974,-3.8027,-3.8027,-3.7549,-3.6802,-3.5811,-3.5209,-3.4969,-3.5235,-3.5235,-3.538,-3.562,-3.538,-3.5235,-3.5235,-3.4969,-3.4823,-3.4775,-3.4775,-3.4775,-3.4775,-3.4775,-3.4775,-3.4775,-3.4775,-3.4775,-3.4799,-3.4895,-3.5232,-3.5711,-3.6138,-3.5921,-3.5306,-3.4667,-3.3068,-3.1125,-3.0043,-2.9099,-2.8496,-2.9277,-2.9863,-3.0469,-3.1406,-3.2246,-3.2949,-3.332,-3.3144,-3.2871,-3.2871,-3.2539,-3.2129,-3.1738,-3.1621,-3.1465,-3.1055,-3.0918,-3.0898,-3.0898,-3.0898,-3.0898,-3.0898,-3.0937,-3.0957,-3.0957,-3.0957,-3.0957,-3.0957,-3.0918,-3.0898,-3.0898,-3.0898,-3.0898,-3.0898,-3.0898,-3.0762,-3.0392,-2.7572,-2.5863,-2.5513,-2.2577,-2.1109,-2.1109,-2.1109,-2.1109,-2.1109,-2.1109,-2.1109,-3.3194,-3.3395,-3.3721,-3.3596,-3.4073,0.0,-3.4951,-3.4851,-3.5203,0.0,-3.6985,-3.6941,-3.804,-3.8586,-3.8784,-3.8386,-3.9451,-4.0364,-4.0384,-4.019,-3.9558,-3.8489,-3.8133,-3.7974,-3.7974,-3.7974,-3.808,-3.8315,-3.7624,-3.7091,-3.6871,-3.5942,-3.5476,-3.5524,-3.5524,-3.5572,-3.562,-3.5572,-3.5428,-3.5235,-3.5138,-3.5017,-3.4775,-3.4775,-3.4775,-3.4775,-3.4775,-3.4775,-3.4775,-3.4775,-3.4775,-3.4823,-3.5304,-3.5785,-3.6213,-3.5759,-3.5571,-3.5222,-3.289,-3.1515,-3.0603,-2.908,-2.8677,-2.8828,-2.9004,-2.9844,-3.0996,-3.2207,-3.291,-3.332,-3.3398,-3.3359,-3.3301,-3.3301,-3.2988,-3.2656,-3.2559,-3.2285,-3.1914,-3.1484,-3.1133,-3.0898,-3.0898,-3.0898,-3.0898,-3.0898,-3.1191,-3.1406,-3.1406,-3.1406,-3.1406,-3.1406,-3.1094,-3.0898,-3.0898,-3.0898,-3.0898,-3.0898,-3.0898,-3.0762,-3.0392,-2.7572,-2.5863,-2.5513,-2.2577,-2.1109,-2.1109,-2.1109,-2.1109,-2.1109,-2.1109,-2.1109,-3.3262,-3.3294,-3.3495,-3.3495,-3.3696,0.0,0.0,-3.45,-3.47,-3.6107,-3.6157,-3.616,-3.6843,-3.7242,-3.7517,-3.7792,-3.8766,-3.9538,-3.9655,-3.9886,-3.9643,-3.8518,-3.8315,-3.8133,-3.8027,-3.7974,-3.808,-3.8368,-3.7629,-3.7168,-3.7168,-3.6162,-3.5668,-3.5812,-3.5812,-3.586,-3.5978,-3.5716,-3.5524,-3.5428,-3.5114,-3.492,-3.4775,-3.4775,-3.4631,-3.4414,-3.4655,-3.4631,-3.4414,-3.4992,-3.5232,-3.5256,-3.5521,-3.572,-3.5864,-3.5518,-3.4733,-3.3584,-3.199,-3.0717,-2.9641,-2.8632,-2.8437,-2.8652,-2.8848,-2.998,-3.1465,-3.2754,-3.3262,-3.3418,-3.3418,-3.3418,-3.3418,-3.3418,-3.3262,-3.3047,-3.2832,-3.2637,-3.2363,-3.1914,-3.168,-3.1465,-3.125,-3.1211,-3.1269,-3.1484,-3.1699,-3.1836,-3.1836,-3.1836,-3.1758,-3.1543,-3.1328,-3.1113,-3.0918,-3.0898,-3.0898,-3.0898,-3.0898,-3.082,-3.0645,-2.7811,-2.5375,-2.3559,-2.1964,-2.1109,-2.1109,-2.1109,-2.1109,-2.1109,-2.1109,-2.1109,-3.3571,-3.3589,-3.3746,-3.3872,-3.3796,-3.3947,0.0,0.0,0.0,-3.5604,-3.5755,-3.5776,0.0,0.0,0.0,-3.6935,0.0,0.0,0.0,-3.8917,0.0,-3.8338,-3.8352,-3.8267,-3.8065,-3.7944,-3.8049,-3.8408,-3.7661,-3.722,-3.722,-3.6381,-3.5959,-3.6051,-3.6098,-3.6193,-3.6405,-3.6003,-3.5716,-3.5668,-3.5187,-3.492,-3.4872,-3.4727,-3.4462,-3.4174,-3.4486,-3.451,-3.4366,-3.5256,-3.5737,-3.5879,-3.5654,-3.5517,-3.5344,-3.5007,-3.3617,-3.1774,-3.1258,-3.0077,-2.875,-2.8398,-2.8398,-2.8633,-2.9141,-3.0391,-3.1894,-3.3086,-3.3418,-3.3418,-3.3418,-3.3418,-3.3418,-3.3418,-3.3418,-3.332,-3.2988,-3.291,-3.2793,-3.2363,-3.2285,-3.2148,-3.1719,-3.1641,-3.1758,-3.2109,-3.2307,-3.2285,-3.2285,-3.2226,-3.2031,-3.168,-3.1504,-3.1269,-3.0918,-3.0645,-3.0509,-3.0509,-3.0274,-3.0157,-3.0157,-2.7589,-2.4717,-2.1664,-2.1362,-2.1172,-2.1109,-2.1109,-2.1109,-2.1109,-2.1109,-2.1109,-3.4826,-3.5253,-3.5701,-3.4248,-3.4951,-3.5575,-3.3771,0.0,-3.3897,-3.3545,0.0,-3.3488,0.0,0.0,0.0,0.0,0.0,0.0,-3.5884,-3.6458,-3.7041,-3.7617,-3.8096,-3.8279,-3.8023,-3.7787,-3.7864,-3.8361,-3.7642,-3.719,-3.719,-3.7064,-3.6812,-3.6383,-3.6358,-3.6358,-3.6405,-3.6358,-3.6193,-3.5955,-3.5668,-3.538,-3.5114,-3.4438,-3.4318,-3.4679,-3.427,-3.4583,-3.5449,-3.5569,-3.617,-3.6908,-3.5818,-3.5389,-3.523,-3.3596,-3.2344,-3.1306,-3.0183,-2.9153,-2.8359,-2.8301,-2.8809,-2.9646,-3.041,-3.1328,-3.2285,-3.3164,-3.3418,-3.3418,-3.3418,-3.3418,-3.3418,-3.3418,-3.3418,-3.3418,-3.3359,-3.3359,-3.3223,-3.2812,-3.2734,-3.2598,-3.2168,-3.209,-3.2109,-3.2168,-3.248,-3.2734,-3.2734,-3.2402,-3.2148,-3.215,-3.1426,-3.0937,-3.0898,-2.9785,-2.9098,-2.9098,-2.8104,-2.7444,-2.7444,-2.5729,-2.3822,-2.1677,-2.1551,-2.1425,-2.1109,-2.1109,-2.1109,-2.1109,-2.1109,-2.1109,-3.4881,-3.5303,-3.5655,-3.4625,-3.4901,-3.5077,-3.3847,-3.3495,-3.3345,-3.3162,0.0,0.0,0.0,0.0,0.0,0.0,-3.4399,0.0,0.0,0.0,-3.6563,-3.7071,0.0,-3.6997,-3.7045,-3.7394,-3.7692,-3.7891,-3.7191,-3.6985,-3.7638,-3.7061,-3.6807,-3.6835,-3.6581,-3.6405,-3.6405,-3.6241,-3.6051,-3.5764,-3.5524,-3.5235,-3.4969,-3.4294,-3.427,-3.4751,-3.4222,-3.4583,-3.5641,-3.5954,-3.6507,-3.7048,-3.5449,-3.4856,-3.4714,-3.3991,-3.2253,-3.0274,-2.9793,-2.9004,-2.8301,-2.8301,-2.8867,-2.9726,-3.0625,-3.1484,-3.2344,-3.3184,-3.3418,-3.3418,-3.3418,-3.3418,-3.3418,-3.3418,-3.3418,-3.3418,-3.3418,-3.3418,-3.3379,-3.3184,-3.3164,-3.3105,-3.293,-3.2695,-3.2617,-3.2851,-3.3047,-3.3164,-3.3164,-3.3008,-3.2715,-3.2226,-3.1855,-3.1426,-3.0937,-2.9648,-2.892,-2.892,-2.7727,-2.6658,-2.5928,-2.5056,-2.3837,-2.223,-2.1803,-2.1551,-2.1425,-2.1172,-2.1109,-2.1109,-2.1109,-2.1109,-3.5403,-3.568,-3.5934,-3.4931,-3.4781,-3.468,-3.3872,-3.3596,-3.3495,-3.3345,-3.3545,0.0,0.0,0.0,0.0,0.0,0.0,-3.45,0.0,-3.5052,0.0,0.0,0.0,0.0,-3.6678,-3.6899,-3.7145,-3.7493,-3.6664,-3.6558,-3.7513,-3.6935,-3.6757,-3.696,-3.6606,-3.6405,-3.6405,-3.6193,-3.6003,-3.5812,-3.5476,-3.5211,-3.5017,-3.4487,-3.4486,-3.4967,-3.4583,-3.5064,-3.6074,-3.6459,-3.6709,-3.679,-3.5418,-3.4503,-3.3888,-3.3551,-3.1804,-2.9626,-2.9626,-2.9004,-2.832,-2.8437,-2.9121,-3.0078,-3.084,-3.1738,-3.2637,-3.3242,-3.3418,-3.3418,-3.3418,-3.3418,-3.3418,-3.3418,-3.3418,-3.3418,-3.3418,-3.3418,-3.3418,-3.3418,-3.3418,-3.3418,-3.3418,-3.3164,-3.3066,-3.3379,-3.3418,-3.3418,-3.3418,-3.3223,-3.2851,-3.2226,-3.1953,-3.1562,-3.0937,-2.9353,-2.8086,-2.7349,-2.6459,-2.5501,-2.4579,-2.4332,-2.3713,-2.2606,-2.2041,-2.1664,-2.1614,-2.1235,-2.1109,-2.1109,-2.1109,-2.1109,-3.6807,-3.7111,-3.7412,-3.5253,-3.5082,-3.5056,-3.347,-3.3922,-3.4525,-3.3972,-3.468,-3.5257,-3.4731,-3.4675,0.0,0.0,0.0,0.0,0.0,0.0,0.0,0.0,0.0,0.0,0.0,-3.6368,-3.6009,-3.7136,-3.6182,-3.5805,-3.643,-3.6885,-3.691,-3.6455,-3.6405,-3.6405,-3.6405,-3.6405,-3.6358,-3.6358,-3.586,-3.5572,-3.5572,-3.5017,-3.5088,-3.5593,-3.5569,-3.617,-3.7156,-3.7156,-3.6785,-3.6208,-3.6177,-3.4747,-3.2628,-3.146,-3.0389,-2.9626,-2.9626,-2.9004,-2.8359,-2.8769,-2.9785,-3.0937,-3.1367,-3.2383,-3.3379,-3.3418,-3.3418,-3.3418,-3.3418,-3.3418,-3.3418,-3.3418,-3.3418,-3.3418,-3.3418,-3.3418,-3.3418,-3.3418,-3.3418,-3.3418,-3.3418,-3.3418,-3.3398,-3.3418,-3.3418,-3.3418,-3.3418,-3.2715,-3.2268,-3.2168,-3.1426,-3.0918,-3.0898,-2.8522,-2.5973,-2.3479,-2.323,-2.323,-2.3168,-2.3168,-2.2981,-2.2606,-2.223,-2.1915,-2.1614,-2.1235,-2.1109,-2.1109,-2.1109,-2.1109,-3.7613,-3.8015,-3.814,-3.6282,-3.5956,-3.5655,-3.3997,-3.4198,-3.4575,-3.4022,-3.4731,-3.5332,-3.4781,-3.468,0.0,0.0,0.0,0.0,0.0,0.0,0.0,0.0,0.0,0.0,0.0,0.0,-3.6081,-3.6107,-3.5708,-3.5909,-3.686,-3.6782,-3.6885,-3.7437,-3.6782,-3.6581,-3.6958,-3.6581,-3.631,-3.6146,-3.5955,-3.5962,-3.6088,-3.5381,-3.5744,-3.6882,-3.598,-3.6411,-3.7632,-3.6461,-3.6094,-3.6068,-3.4525,-3.3402,-3.2587,-3.1881,-3.0774,-2.9548,-2.8926,-2.8711,-2.873,-2.8867,-2.9805,-3.0976,-3.1387,-3.2207,-3.3066,-3.334,-3.3418,-3.3418,-3.3418,-3.3418,-3.3418,-3.3418,-3.3418,-3.3418,-3.3418,-3.3418,-3.3418,-3.3418,-3.3418,-3.3418,-3.3418,-3.3418,-3.3418,-3.3418,-3.3418,-3.3418,-3.3418,-3.293,-3.248,-3.2268,-3.166,-3.1191,-3.0918,-2.8522,-2.5851,-2.3293,-2.3106,-2.3106,-2.3106,-2.3106,-2.3043,-2.2918,-2.2606,-2.2355,-2.223,-2.1677,-2.1425,-2.1425,-2.1172,-2.1109,-3.8115,-3.8442,-3.8567,-3.7084,-3.6707,-3.6329,-3.4826,-3.5052,-3.5454,-3.4901,-3.5504,-3.6081,-3.5906,-3.5403,0.0,0.0,0.0,0.0,0.0,-3.3111,0.0,0.0,0.0,0.0,0.0,0.0,-3.5579,-3.5805,-3.5433,0.0,0.0,-3.6782,-3.6985,-3.7688,-3.7211,-3.701,-3.7186,-3.6883,-3.6511,-3.6146,-3.625,-3.6378,-3.6505,-3.621,-3.6646,-3.7542,-3.6777,-3.6829,-3.7233,-3.6133,-3.5369,-3.4803,-3.3289,-3.2354,-3.1771,-3.1466,-3.0478,-2.9258,-2.8711,-2.8691,-2.9004,-2.9473,-3.0293,-3.123,-3.1797,-3.2461,-3.3066,-3.334,-3.3418,-3.3418,-3.3418,-3.3418,-3.3418,-3.3418,-3.3418,-3.3418,-3.3418,-3.3418,-3.3418,-3.3418,-3.3418,-3.3418,-3.3418,-3.3418,-3.3418,-3.3418,-3.3418,-3.3418,-3.3418,-3.293,-3.248,-3.2268,-3.1641,-3.0818,-2.9646,-2.7984,-2.5851,-2.3293,-2.3106,-2.3106,-2.3106,-2.3106,-2.3106,-2.3106,-2.2793,-2.2606,-2.2606,-2.1915,-2.1614,-2.1614,-2.1362,-2.1235]}]]